<?xml version="1.0" encoding="UTF-8" standalone="no" ?>
<gpx xmlns="http://www.topografix.com/GPX/1/1" xmlns:xsi="http://www.w3.org/2001/XMLSchema-instance" xsi:schemaLocation="http://www.topografix.com/GPX/1/1 http://www.topografix.com/GPX/1/1/gpx.xsd" version="1.1" creator="VisuGPX - https://www.visugpx.com">
  <metadata>
    <name>Le Malinat (près du Cabaliros)</name>
    <desc><![CDATA[




]]></desc>
  </metadata>
  <trk>
    <name><![CDATA[Le Malinat (près du Cabaliros)_1]]></name>
    <trkseg>
      <trkpt lat="42.96678" lon="-0.13699">
        <ele>1305.5</ele>
        <time>2014-01-05T08:35:03Z</time>
      </trkpt>
      <trkpt lat="42.96683" lon="-0.13701">
        <ele>1305.5</ele>
        <time>2014-01-05T08:35:08Z</time>
      </trkpt>
      <trkpt lat="42.96686" lon="-0.13719">
        <ele>1340.7031842259</ele>
        <time>2014-01-05T08:35:13Z</time>
      </trkpt>
      <trkpt lat="42.96672" lon="-0.13729">
        <ele>1336.8789719015</ele>
        <time>2014-01-05T08:35:18Z</time>
      </trkpt>
      <trkpt lat="42.96676" lon="-0.13736">
        <ele>1336.8789719015</ele>
        <time>2014-01-05T08:35:38Z</time>
      </trkpt>
      <trkpt lat="42.96676" lon="-0.13738">
        <ele>1336.8789719015</ele>
        <time>2014-01-05T08:35:43Z</time>
      </trkpt>
      <trkpt lat="42.96678" lon="-0.13742">
        <ele>1337.377145872</ele>
        <time>2014-01-05T08:35:48Z</time>
      </trkpt>
      <trkpt lat="42.96679" lon="-0.13739">
        <ele>1337.377145872</ele>
        <time>2014-01-05T08:35:54Z</time>
      </trkpt>
      <trkpt lat="42.96676" lon="-0.13735">
        <ele>1337.377145872</ele>
        <time>2014-01-05T08:35:59Z</time>
      </trkpt>
      <trkpt lat="42.96675" lon="-0.13734">
        <ele>1337.377145872</ele>
        <time>2014-01-05T08:36:04Z</time>
      </trkpt>
      <trkpt lat="42.96667" lon="-0.13727">
        <ele>1340.5204088626</ele>
        <time>2014-01-05T08:37:14Z</time>
      </trkpt>
      <trkpt lat="42.96667" lon="-0.13727">
        <ele>1340.5204088626</ele>
        <time>2014-01-05T08:37:19Z</time>
      </trkpt>
      <trkpt lat="42.96676" lon="-0.13732">
        <ele>1344.513516003</ele>
        <time>2014-01-05T08:37:49Z</time>
      </trkpt>
      <trkpt lat="42.96676" lon="-0.13732">
        <ele>1344.513516003</ele>
        <time>2014-01-05T08:37:54Z</time>
      </trkpt>
      <trkpt lat="42.96673" lon="-0.13744">
        <ele>1348.4600942633</ele>
        <time>2014-01-05T08:38:14Z</time>
      </trkpt>
      <trkpt lat="42.96682" lon="-0.13742">
        <ele>1348.4600942633</ele>
        <time>2014-01-05T08:40:33Z</time>
      </trkpt>
      <trkpt lat="42.96673" lon="-0.13743">
        <ele>1351.7307642215</ele>
        <time>2014-01-05T08:41:13Z</time>
      </trkpt>
      <trkpt lat="42.96672" lon="-0.13742">
        <ele>1351.7307642215</ele>
        <time>2014-01-05T08:41:19Z</time>
      </trkpt>
      <trkpt lat="42.9667" lon="-0.13726">
        <ele>1354.3964490637</ele>
        <time>2014-01-05T08:41:31Z</time>
      </trkpt>
      <trkpt lat="42.96671" lon="-0.13724">
        <ele>1354.3964490637</ele>
        <time>2014-01-05T08:41:34Z</time>
      </trkpt>
      <trkpt lat="42.96666" lon="-0.1372">
        <ele>1354.3964490637</ele>
        <time>2014-01-05T08:43:23Z</time>
      </trkpt>
      <trkpt lat="42.96664" lon="-0.1372">
        <ele>1354.3964490637</ele>
        <time>2014-01-05T08:43:29Z</time>
      </trkpt>
      <trkpt lat="42.96661" lon="-0.13719">
        <ele>1356.4369716244</ele>
        <time>2014-01-05T08:43:34Z</time>
      </trkpt>
      <trkpt lat="42.9666" lon="-0.13719">
        <ele>1356.4369716244</ele>
        <time>2014-01-05T08:43:38Z</time>
      </trkpt>
      <trkpt lat="42.9666" lon="-0.1372">
        <ele>1356.4369716244</ele>
        <time>2014-01-05T08:43:44Z</time>
      </trkpt>
      <trkpt lat="42.96655" lon="-0.13717">
        <ele>1356.4369716244</ele>
        <time>2014-01-05T08:43:49Z</time>
      </trkpt>
      <trkpt lat="42.96651" lon="-0.13715">
        <ele>1357.7421469245</ele>
        <time>2014-01-05T08:43:54Z</time>
      </trkpt>
      <trkpt lat="42.96652" lon="-0.13716">
        <ele>1357.7421469245</ele>
        <time>2014-01-05T08:43:59Z</time>
      </trkpt>
      <trkpt lat="42.96652" lon="-0.13716">
        <ele>1357.7421469245</ele>
        <time>2014-01-05T08:44:04Z</time>
      </trkpt>
      <trkpt lat="42.96657" lon="-0.13728">
        <ele>1358.4139005498</ele>
        <time>2014-01-05T08:44:14Z</time>
      </trkpt>
      <trkpt lat="42.96659" lon="-0.13732">
        <ele>1358.4139005498</ele>
        <time>2014-01-05T08:44:18Z</time>
      </trkpt>
      <trkpt lat="42.96662" lon="-0.13739">
        <ele>1358.3927009308</ele>
        <time>2014-01-05T08:44:23Z</time>
      </trkpt>
      <trkpt lat="42.96664" lon="-0.13743">
        <ele>1358.3927009308</ele>
        <time>2014-01-05T08:44:29Z</time>
      </trkpt>
      <trkpt lat="42.96664" lon="-0.13748">
        <ele>1358.3927009308</ele>
        <time>2014-01-05T08:44:34Z</time>
      </trkpt>
      <trkpt lat="42.96663" lon="-0.13751">
        <ele>1357.8491243624</ele>
        <time>2014-01-05T08:44:38Z</time>
      </trkpt>
      <trkpt lat="42.96662" lon="-0.13755">
        <ele>1357.8491243624</ele>
        <time>2014-01-05T08:44:43Z</time>
      </trkpt>
      <trkpt lat="42.96659" lon="-0.1376">
        <ele>1357.8491243624</ele>
        <time>2014-01-05T08:44:48Z</time>
      </trkpt>
      <trkpt lat="42.96657" lon="-0.13762">
        <ele>1356.8108840928</ele>
        <time>2014-01-05T08:44:54Z</time>
      </trkpt>
      <trkpt lat="42.96655" lon="-0.13765">
        <ele>1356.8108840928</ele>
        <time>2014-01-05T08:44:59Z</time>
      </trkpt>
      <trkpt lat="42.96654" lon="-0.1377">
        <ele>1356.8108840928</ele>
        <time>2014-01-05T08:45:04Z</time>
      </trkpt>
      <trkpt lat="42.96651" lon="-0.13775">
        <ele>1355.4765570116</ele>
        <time>2014-01-05T08:45:08Z</time>
      </trkpt>
      <trkpt lat="42.96649" lon="-0.13779">
        <ele>1355.4765570116</ele>
        <time>2014-01-05T08:45:14Z</time>
      </trkpt>
      <trkpt lat="42.96647" lon="-0.13783">
        <ele>1355.4765570116</ele>
        <time>2014-01-05T08:45:19Z</time>
      </trkpt>
      <trkpt lat="42.96645" lon="-0.13788">
        <ele>1353.9395337119</ele>
        <time>2014-01-05T08:45:24Z</time>
      </trkpt>
      <trkpt lat="42.96643" lon="-0.13789">
        <ele>1353.9395337119</ele>
        <time>2014-01-05T08:45:29Z</time>
      </trkpt>
      <trkpt lat="42.96636" lon="-0.13792">
        <ele>1352.2419519149</ele>
        <time>2014-01-05T08:45:34Z</time>
      </trkpt>
      <trkpt lat="42.96634" lon="-0.13796">
        <ele>1352.2419519149</ele>
        <time>2014-01-05T08:45:39Z</time>
      </trkpt>
      <trkpt lat="42.96628" lon="-0.138">
        <ele>1350.4916700993</ele>
        <time>2014-01-05T08:45:44Z</time>
      </trkpt>
      <trkpt lat="42.96625" lon="-0.13801">
        <ele>1350.4916700993</ele>
        <time>2014-01-05T08:45:49Z</time>
      </trkpt>
      <trkpt lat="42.96618" lon="-0.13804">
        <ele>1348.7568316268</ele>
        <time>2014-01-05T08:45:54Z</time>
      </trkpt>
      <trkpt lat="42.96615" lon="-0.13804">
        <ele>1348.7568316268</ele>
        <time>2014-01-05T08:45:59Z</time>
      </trkpt>
      <trkpt lat="42.96613" lon="-0.13804">
        <ele>1348.7568316268</ele>
        <time>2014-01-05T08:46:04Z</time>
      </trkpt>
      <trkpt lat="42.96612" lon="-0.13802">
        <ele>1348.7568316268</ele>
        <time>2014-01-05T08:46:09Z</time>
      </trkpt>
      <trkpt lat="42.96612" lon="-0.13801">
        <ele>1348.7568316268</ele>
        <time>2014-01-05T08:46:14Z</time>
      </trkpt>
      <trkpt lat="42.96611" lon="-0.13795">
        <ele>1347.1653454596</ele>
        <time>2014-01-05T08:46:34Z</time>
      </trkpt>
      <trkpt lat="42.96607" lon="-0.13798">
        <ele>1347.1653454596</ele>
        <time>2014-01-05T08:46:38Z</time>
      </trkpt>
      <trkpt lat="42.96606" lon="-0.13801">
        <ele>1347.1653454596</ele>
        <time>2014-01-05T08:46:44Z</time>
      </trkpt>
      <trkpt lat="42.96609" lon="-0.13804">
        <ele>1345.6648637897</ele>
        <time>2014-01-05T08:46:49Z</time>
      </trkpt>
      <trkpt lat="42.96607" lon="-0.13809">
        <ele>1345.6648637897</ele>
        <time>2014-01-05T08:46:54Z</time>
      </trkpt>
      <trkpt lat="42.96605" lon="-0.13813">
        <ele>1345.6648637897</ele>
        <time>2014-01-05T08:46:59Z</time>
      </trkpt>
      <trkpt lat="42.96603" lon="-0.13816">
        <ele>1344.1263742806</ele>
        <time>2014-01-05T08:47:03Z</time>
      </trkpt>
      <trkpt lat="42.96601" lon="-0.1382">
        <ele>1344.1263742806</ele>
        <time>2014-01-05T08:47:09Z</time>
      </trkpt>
      <trkpt lat="42.966" lon="-0.13824">
        <ele>1344.1263742806</ele>
        <time>2014-01-05T08:47:14Z</time>
      </trkpt>
      <trkpt lat="42.96596" lon="-0.13827">
        <ele>1342.6717910616</ele>
        <time>2014-01-05T08:47:18Z</time>
      </trkpt>
      <trkpt lat="42.96595" lon="-0.13832">
        <ele>1342.6717910616</ele>
        <time>2014-01-05T08:47:23Z</time>
      </trkpt>
      <trkpt lat="42.96591" lon="-0.13835">
        <ele>1342.6717910616</ele>
        <time>2014-01-05T08:47:29Z</time>
      </trkpt>
      <trkpt lat="42.96587" lon="-0.13842">
        <ele>1341.2701115524</ele>
        <time>2014-01-05T08:47:34Z</time>
      </trkpt>
      <trkpt lat="42.96584" lon="-0.13845">
        <ele>1341.2701115524</ele>
        <time>2014-01-05T08:47:39Z</time>
      </trkpt>
      <trkpt lat="42.96577" lon="-0.13848">
        <ele>1339.9343885249</ele>
        <time>2014-01-05T08:47:44Z</time>
      </trkpt>
      <trkpt lat="42.96573" lon="-0.13851">
        <ele>1339.9343885249</ele>
        <time>2014-01-05T08:47:49Z</time>
      </trkpt>
      <trkpt lat="42.96566" lon="-0.13856">
        <ele>1338.6447551613</ele>
        <time>2014-01-05T08:47:54Z</time>
      </trkpt>
      <trkpt lat="42.96563" lon="-0.13859">
        <ele>1338.6447551613</ele>
        <time>2014-01-05T08:47:59Z</time>
      </trkpt>
      <trkpt lat="42.96558" lon="-0.13863">
        <ele>1337.3818241315</ele>
        <time>2014-01-05T08:48:04Z</time>
      </trkpt>
      <trkpt lat="42.96556" lon="-0.13869">
        <ele>1337.3818241315</ele>
        <time>2014-01-05T08:48:09Z</time>
      </trkpt>
      <trkpt lat="42.96548" lon="-0.13874">
        <ele>1336.1412767085</ele>
        <time>2014-01-05T08:48:13Z</time>
      </trkpt>
      <trkpt lat="42.96547" lon="-0.13878">
        <ele>1336.1412767085</ele>
        <time>2014-01-05T08:48:19Z</time>
      </trkpt>
      <trkpt lat="42.96546" lon="-0.13888">
        <ele>1335.0027637961</ele>
        <time>2014-01-05T08:48:24Z</time>
      </trkpt>
      <trkpt lat="42.96543" lon="-0.13891">
        <ele>1335.0027637961</ele>
        <time>2014-01-05T08:48:29Z</time>
      </trkpt>
      <trkpt lat="42.96539" lon="-0.13898">
        <ele>1333.9549040603</ele>
        <time>2014-01-05T08:48:34Z</time>
      </trkpt>
      <trkpt lat="42.96534" lon="-0.13904">
        <ele>1333.9549040603</ele>
        <time>2014-01-05T08:48:39Z</time>
      </trkpt>
      <trkpt lat="42.96529" lon="-0.1391">
        <ele>1333.0158791116</ele>
        <time>2014-01-05T08:48:44Z</time>
      </trkpt>
      <trkpt lat="42.96521" lon="-0.13919">
        <ele>1332.1063859613</ele>
        <time>2014-01-05T08:48:49Z</time>
      </trkpt>
      <trkpt lat="42.96514" lon="-0.13925">
        <ele>1332.1063859613</ele>
        <time>2014-01-05T08:48:53Z</time>
      </trkpt>
      <trkpt lat="42.96511" lon="-0.13929">
        <ele>1331.2653108777</ele>
        <time>2014-01-05T08:48:59Z</time>
      </trkpt>
      <trkpt lat="42.9651" lon="-0.13932">
        <ele>1331.2653108777</ele>
        <time>2014-01-05T08:49:04Z</time>
      </trkpt>
      <trkpt lat="42.96509" lon="-0.13939">
        <ele>1331.2653108777</ele>
        <time>2014-01-05T08:49:09Z</time>
      </trkpt>
      <trkpt lat="42.96509" lon="-0.13942">
        <ele>1330.4466522896</ele>
        <time>2014-01-05T08:49:14Z</time>
      </trkpt>
      <trkpt lat="42.96507" lon="-0.13949">
        <ele>1330.4466522896</ele>
        <time>2014-01-05T08:49:19Z</time>
      </trkpt>
      <trkpt lat="42.96503" lon="-0.13952">
        <ele>1329.4551407729</ele>
        <time>2014-01-05T08:49:24Z</time>
      </trkpt>
      <trkpt lat="42.96496" lon="-0.13957">
        <ele>1329.4551407729</ele>
        <time>2014-01-05T08:49:29Z</time>
      </trkpt>
      <trkpt lat="42.96487" lon="-0.13962">
        <ele>1328.4024937086</ele>
        <time>2014-01-05T08:49:34Z</time>
      </trkpt>
      <trkpt lat="42.96483" lon="-0.13967">
        <ele>1328.4024937086</ele>
        <time>2014-01-05T08:49:39Z</time>
      </trkpt>
      <trkpt lat="42.96479" lon="-0.13969">
        <ele>1327.2824093504</ele>
        <time>2014-01-05T08:49:44Z</time>
      </trkpt>
      <trkpt lat="42.96473" lon="-0.13971">
        <ele>1327.2824093504</ele>
        <time>2014-01-05T08:49:49Z</time>
      </trkpt>
      <trkpt lat="42.96468" lon="-0.13972">
        <ele>1326.0190751171</ele>
        <time>2014-01-05T08:49:54Z</time>
      </trkpt>
      <trkpt lat="42.96466" lon="-0.13974">
        <ele>1326.0190751171</ele>
        <time>2014-01-05T08:49:59Z</time>
      </trkpt>
      <trkpt lat="42.96463" lon="-0.13978">
        <ele>1326.0190751171</ele>
        <time>2014-01-05T08:50:04Z</time>
      </trkpt>
      <trkpt lat="42.96446" lon="-0.13987">
        <ele>1324.8414188634</ele>
        <time>2014-01-05T08:50:08Z</time>
      </trkpt>
      <trkpt lat="42.96442" lon="-0.13991">
        <ele>1324.8414188634</ele>
        <time>2014-01-05T08:50:14Z</time>
      </trkpt>
      <trkpt lat="42.96439" lon="-0.13996">
        <ele>1323.6512022722</ele>
        <time>2014-01-05T08:50:19Z</time>
      </trkpt>
      <trkpt lat="42.96436" lon="-0.14002">
        <ele>1323.6512022722</ele>
        <time>2014-01-05T08:50:23Z</time>
      </trkpt>
      <trkpt lat="42.96432" lon="-0.14008">
        <ele>1322.6739584288</ele>
        <time>2014-01-05T08:50:29Z</time>
      </trkpt>
      <trkpt lat="42.96429" lon="-0.14014">
        <ele>1322.6739584288</ele>
        <time>2014-01-05T08:50:34Z</time>
      </trkpt>
      <trkpt lat="42.96426" lon="-0.14021">
        <ele>1321.933890551</ele>
        <time>2014-01-05T08:50:38Z</time>
      </trkpt>
      <trkpt lat="42.96423" lon="-0.14027">
        <ele>1321.933890551</ele>
        <time>2014-01-05T08:50:44Z</time>
      </trkpt>
      <trkpt lat="42.96421" lon="-0.14033">
        <ele>1321.3648118362</ele>
        <time>2014-01-05T08:50:49Z</time>
      </trkpt>
      <trkpt lat="42.96418" lon="-0.14041">
        <ele>1321.3648118362</ele>
        <time>2014-01-05T08:50:54Z</time>
      </trkpt>
      <trkpt lat="42.96414" lon="-0.14045">
        <ele>1320.9323931203</ele>
        <time>2014-01-05T08:50:59Z</time>
      </trkpt>
      <trkpt lat="42.96415" lon="-0.14051">
        <ele>1320.9323931203</ele>
        <time>2014-01-05T08:51:04Z</time>
      </trkpt>
      <trkpt lat="42.96411" lon="-0.14061">
        <ele>1320.4993076136</ele>
        <time>2014-01-05T08:51:08Z</time>
      </trkpt>
      <trkpt lat="42.96413" lon="-0.14069">
        <ele>1320.4993076136</ele>
        <time>2014-01-05T08:51:14Z</time>
      </trkpt>
      <trkpt lat="42.96413" lon="-0.14071">
        <ele>1320.4993076136</ele>
        <time>2014-01-05T08:51:19Z</time>
      </trkpt>
      <trkpt lat="42.96412" lon="-0.1408">
        <ele>1319.9655384933</ele>
        <time>2014-01-05T08:51:23Z</time>
      </trkpt>
      <trkpt lat="42.96411" lon="-0.14084">
        <ele>1319.9655384933</ele>
        <time>2014-01-05T08:51:28Z</time>
      </trkpt>
      <trkpt lat="42.96408" lon="-0.14088">
        <ele>1319.9655384933</ele>
        <time>2014-01-05T08:51:34Z</time>
      </trkpt>
      <trkpt lat="42.96401" lon="-0.14094">
        <ele>1318.9830806872</ele>
        <time>2014-01-05T08:51:39Z</time>
      </trkpt>
      <trkpt lat="42.96399" lon="-0.14101">
        <ele>1318.9830806872</ele>
        <time>2014-01-05T08:51:44Z</time>
      </trkpt>
      <trkpt lat="42.96396" lon="-0.14104">
        <ele>1317.858347575</ele>
        <time>2014-01-05T08:51:49Z</time>
      </trkpt>
      <trkpt lat="42.96393" lon="-0.14111">
        <ele>1317.858347575</ele>
        <time>2014-01-05T08:51:54Z</time>
      </trkpt>
      <trkpt lat="42.96389" lon="-0.14119">
        <ele>1316.6678594646</ele>
        <time>2014-01-05T08:51:58Z</time>
      </trkpt>
      <trkpt lat="42.96387" lon="-0.14126">
        <ele>1316.6678594646</ele>
        <time>2014-01-05T08:52:04Z</time>
      </trkpt>
      <trkpt lat="42.9638" lon="-0.14132">
        <ele>1315.3171910332</ele>
        <time>2014-01-05T08:52:09Z</time>
      </trkpt>
      <trkpt lat="42.96376" lon="-0.14137">
        <ele>1315.3171910332</ele>
        <time>2014-01-05T08:52:14Z</time>
      </trkpt>
      <trkpt lat="42.96369" lon="-0.14142">
        <ele>1314.0208446498</ele>
        <time>2014-01-05T08:52:18Z</time>
      </trkpt>
      <trkpt lat="42.96365" lon="-0.14144">
        <ele>1314.0208446498</ele>
        <time>2014-01-05T08:52:23Z</time>
      </trkpt>
      <trkpt lat="42.96356" lon="-0.14146">
        <ele>1312.644908823</ele>
        <time>2014-01-05T08:52:29Z</time>
      </trkpt>
      <trkpt lat="42.96349" lon="-0.14152">
        <ele>1312.644908823</ele>
        <time>2014-01-05T08:52:33Z</time>
      </trkpt>
      <trkpt lat="42.96341" lon="-0.14153">
        <ele>1311.3070313121</ele>
        <time>2014-01-05T08:52:39Z</time>
      </trkpt>
      <trkpt lat="42.96337" lon="-0.14152">
        <ele>1311.3070313121</ele>
        <time>2014-01-05T08:52:44Z</time>
      </trkpt>
      <trkpt lat="42.96331" lon="-0.14152">
        <ele>1309.949285188</ele>
        <time>2014-01-05T08:52:48Z</time>
      </trkpt>
      <trkpt lat="42.96327" lon="-0.14153">
        <ele>1309.949285188</ele>
        <time>2014-01-05T08:52:54Z</time>
      </trkpt>
      <trkpt lat="42.96323" lon="-0.14153">
        <ele>1309.949285188</ele>
        <time>2014-01-05T08:52:58Z</time>
      </trkpt>
      <trkpt lat="42.96315" lon="-0.14154">
        <ele>1308.5330964817</ele>
        <time>2014-01-05T08:53:04Z</time>
      </trkpt>
      <trkpt lat="42.96312" lon="-0.14154">
        <ele>1308.5330964817</ele>
        <time>2014-01-05T08:53:09Z</time>
      </trkpt>
      <trkpt lat="42.96306" lon="-0.14155">
        <ele>1307.218603794</ele>
        <time>2014-01-05T08:53:14Z</time>
      </trkpt>
      <trkpt lat="42.96303" lon="-0.14157">
        <ele>1307.218603794</ele>
        <time>2014-01-05T08:53:19Z</time>
      </trkpt>
      <trkpt lat="42.96298" lon="-0.14159">
        <ele>1307.218603794</ele>
        <time>2014-01-05T08:53:24Z</time>
      </trkpt>
      <trkpt lat="42.96292" lon="-0.1416">
        <ele>1305.8065897332</ele>
        <time>2014-01-05T08:53:28Z</time>
      </trkpt>
      <trkpt lat="42.96286" lon="-0.14161">
        <ele>1305.8065897332</ele>
        <time>2014-01-05T08:53:34Z</time>
      </trkpt>
      <trkpt lat="42.9628" lon="-0.1416">
        <ele>1304.3693020585</ele>
        <time>2014-01-05T08:53:39Z</time>
      </trkpt>
      <trkpt lat="42.96275" lon="-0.14163">
        <ele>1304.3693020585</ele>
        <time>2014-01-05T08:53:44Z</time>
      </trkpt>
      <trkpt lat="42.9627" lon="-0.14166">
        <ele>1302.9878182404</ele>
        <time>2014-01-05T08:53:49Z</time>
      </trkpt>
      <trkpt lat="42.96265" lon="-0.14169">
        <ele>1302.9878182404</ele>
        <time>2014-01-05T08:53:54Z</time>
      </trkpt>
      <trkpt lat="42.9626" lon="-0.14172">
        <ele>1301.7360255532</ele>
        <time>2014-01-05T08:53:59Z</time>
      </trkpt>
      <trkpt lat="42.96254" lon="-0.14177">
        <ele>1301.7360255532</ele>
        <time>2014-01-05T08:54:04Z</time>
      </trkpt>
      <trkpt lat="42.96251" lon="-0.14179">
        <ele>1300.6214145548</ele>
        <time>2014-01-05T08:54:09Z</time>
      </trkpt>
      <trkpt lat="42.96242" lon="-0.14181">
        <ele>1299.7542613214</ele>
        <time>2014-01-05T08:54:13Z</time>
      </trkpt>
      <trkpt lat="42.96238" lon="-0.1418">
        <ele>1299.7542613214</ele>
        <time>2014-01-05T08:54:19Z</time>
      </trkpt>
      <trkpt lat="42.9623" lon="-0.1418">
        <ele>1299.0420547286</ele>
        <time>2014-01-05T08:54:24Z</time>
      </trkpt>
      <trkpt lat="42.96227" lon="-0.14177">
        <ele>1299.0420547286</ele>
        <time>2014-01-05T08:54:29Z</time>
      </trkpt>
      <trkpt lat="42.96224" lon="-0.14175">
        <ele>1299.0420547286</ele>
        <time>2014-01-05T08:54:33Z</time>
      </trkpt>
      <trkpt lat="42.96219" lon="-0.14173">
        <ele>1298.1482373284</ele>
        <time>2014-01-05T08:54:39Z</time>
      </trkpt>
      <trkpt lat="42.96216" lon="-0.14171">
        <ele>1298.1482373284</ele>
        <time>2014-01-05T08:54:44Z</time>
      </trkpt>
      <trkpt lat="42.96211" lon="-0.1417">
        <ele>1298.1482373284</ele>
        <time>2014-01-05T08:54:48Z</time>
      </trkpt>
      <trkpt lat="42.96207" lon="-0.14169">
        <ele>1297.1187932779</ele>
        <time>2014-01-05T08:54:53Z</time>
      </trkpt>
      <trkpt lat="42.96203" lon="-0.14166">
        <ele>1297.1187932779</ele>
        <time>2014-01-05T08:54:59Z</time>
      </trkpt>
      <trkpt lat="42.96201" lon="-0.14164">
        <ele>1297.1187932779</ele>
        <time>2014-01-05T08:55:05Z</time>
      </trkpt>
      <trkpt lat="42.96196" lon="-0.14159">
        <ele>1295.9372604861</ele>
        <time>2014-01-05T08:55:09Z</time>
      </trkpt>
      <trkpt lat="42.96193" lon="-0.14156">
        <ele>1295.9372604861</ele>
        <time>2014-01-05T08:55:14Z</time>
      </trkpt>
      <trkpt lat="42.9619" lon="-0.14153">
        <ele>1295.9372604861</ele>
        <time>2014-01-05T08:55:19Z</time>
      </trkpt>
      <trkpt lat="42.96188" lon="-0.14149">
        <ele>1294.6181661445</ele>
        <time>2014-01-05T08:55:23Z</time>
      </trkpt>
      <trkpt lat="42.96182" lon="-0.14144">
        <ele>1294.6181661445</ele>
        <time>2014-01-05T08:55:29Z</time>
      </trkpt>
      <trkpt lat="42.96175" lon="-0.14139">
        <ele>1293.6437582037</ele>
        <time>2014-01-05T08:55:33Z</time>
      </trkpt>
      <trkpt lat="42.96167" lon="-0.14131">
        <ele>1293.0319166689</ele>
        <time>2014-01-05T08:55:39Z</time>
      </trkpt>
      <trkpt lat="42.96161" lon="-0.14127">
        <ele>1293.0319166689</ele>
        <time>2014-01-05T08:55:43Z</time>
      </trkpt>
      <trkpt lat="42.96158" lon="-0.14124">
        <ele>1292.5647471164</ele>
        <time>2014-01-05T08:55:49Z</time>
      </trkpt>
      <trkpt lat="42.96156" lon="-0.14123">
        <ele>1292.5647471164</ele>
        <time>2014-01-05T08:55:54Z</time>
      </trkpt>
      <trkpt lat="42.96152" lon="-0.1412">
        <ele>1292.5647471164</ele>
        <time>2014-01-05T08:55:59Z</time>
      </trkpt>
      <trkpt lat="42.96149" lon="-0.14118">
        <ele>1292.1144140285</ele>
        <time>2014-01-05T08:56:04Z</time>
      </trkpt>
      <trkpt lat="42.96146" lon="-0.14115">
        <ele>1292.1144140285</ele>
        <time>2014-01-05T08:56:08Z</time>
      </trkpt>
      <trkpt lat="42.9614" lon="-0.1411">
        <ele>1291.592300924</ele>
        <time>2014-01-05T08:56:14Z</time>
      </trkpt>
      <trkpt lat="42.96135" lon="-0.14105">
        <ele>1291.592300924</ele>
        <time>2014-01-05T08:56:19Z</time>
      </trkpt>
      <trkpt lat="42.96133" lon="-0.14103">
        <ele>1291.592300924</ele>
        <time>2014-01-05T08:56:24Z</time>
      </trkpt>
      <trkpt lat="42.96124" lon="-0.14096">
        <ele>1291.1056910666</ele>
        <time>2014-01-05T08:56:29Z</time>
      </trkpt>
      <trkpt lat="42.9612" lon="-0.14095">
        <ele>1291.1056910666</ele>
        <time>2014-01-05T08:56:34Z</time>
      </trkpt>
      <trkpt lat="42.96117" lon="-0.14096">
        <ele>1291.1056910666</ele>
        <time>2014-01-05T08:56:39Z</time>
      </trkpt>
      <trkpt lat="42.96112" lon="-0.14095">
        <ele>1290.4486498889</ele>
        <time>2014-01-05T08:56:44Z</time>
      </trkpt>
      <trkpt lat="42.96106" lon="-0.14094">
        <ele>1290.4486498889</ele>
        <time>2014-01-05T08:56:49Z</time>
      </trkpt>
      <trkpt lat="42.96098" lon="-0.14088">
        <ele>1289.8517976348</ele>
        <time>2014-01-05T08:56:56Z</time>
      </trkpt>
      <trkpt lat="42.96095" lon="-0.14086">
        <ele>1289.8517976348</ele>
        <time>2014-01-05T08:56:58Z</time>
      </trkpt>
      <trkpt lat="42.9609" lon="-0.14077">
        <ele>1289.4841807008</ele>
        <time>2014-01-05T08:57:04Z</time>
      </trkpt>
      <trkpt lat="42.96094" lon="-0.14062">
        <ele>1289.4578265535</ele>
        <time>2014-01-05T08:57:19Z</time>
      </trkpt>
      <trkpt lat="42.96096" lon="-0.14058">
        <ele>1289.4578265535</ele>
        <time>2014-01-05T08:57:23Z</time>
      </trkpt>
      <trkpt lat="42.961" lon="-0.14058">
        <ele>1289.4578265535</ele>
        <time>2014-01-05T08:57:29Z</time>
      </trkpt>
      <trkpt lat="42.96105" lon="-0.14054">
        <ele>1289.5140521333</ele>
        <time>2014-01-05T08:57:33Z</time>
      </trkpt>
      <trkpt lat="42.96102" lon="-0.14057">
        <ele>1289.5140521333</ele>
        <time>2014-01-05T08:57:39Z</time>
      </trkpt>
      <trkpt lat="42.96107" lon="-0.14059">
        <ele>1289.5140521333</ele>
        <time>2014-01-05T08:57:43Z</time>
      </trkpt>
      <trkpt lat="42.96096" lon="-0.14065">
        <ele>1289.8613421471</ele>
        <time>2014-01-05T08:57:49Z</time>
      </trkpt>
      <trkpt lat="42.96086" lon="-0.14069">
        <ele>1290.2585662364</ele>
        <time>2014-01-05T08:57:54Z</time>
      </trkpt>
      <trkpt lat="42.96086" lon="-0.1407">
        <ele>1290.2585662364</ele>
        <time>2014-01-05T08:57:59Z</time>
      </trkpt>
      <trkpt lat="42.96075" lon="-0.14076">
        <ele>1292.1853303183</ele>
        <time>2014-01-05T08:58:08Z</time>
      </trkpt>
      <trkpt lat="42.96066" lon="-0.14083">
        <ele>1295.087928715</ele>
        <time>2014-01-05T08:58:18Z</time>
      </trkpt>
      <trkpt lat="42.96066" lon="-0.14083">
        <ele>1295.087928715</ele>
        <time>2014-01-05T08:58:23Z</time>
      </trkpt>
      <trkpt lat="42.96055" lon="-0.14088">
        <ele>1299.1726460321</ele>
        <time>2014-01-05T08:59:18Z</time>
      </trkpt>
      <trkpt lat="42.9605" lon="-0.14088">
        <ele>1299.1726460321</ele>
        <time>2014-01-05T08:59:23Z</time>
      </trkpt>
      <trkpt lat="42.96049" lon="-0.14086">
        <ele>1299.1726460321</ele>
        <time>2014-01-05T08:59:28Z</time>
      </trkpt>
      <trkpt lat="42.96048" lon="-0.14085">
        <ele>1299.1726460321</ele>
        <time>2014-01-05T08:59:33Z</time>
      </trkpt>
      <trkpt lat="42.96044" lon="-0.14086">
        <ele>1303.3439937055</ele>
        <time>2014-01-05T08:59:38Z</time>
      </trkpt>
      <trkpt lat="42.96044" lon="-0.14085">
        <ele>1303.3439937055</ele>
        <time>2014-01-05T08:59:43Z</time>
      </trkpt>
      <trkpt lat="42.96043" lon="-0.14086">
        <ele>1303.3439937055</ele>
        <time>2014-01-05T08:59:48Z</time>
      </trkpt>
      <trkpt lat="42.96042" lon="-0.14091">
        <ele>1303.3439937055</ele>
        <time>2014-01-05T08:59:53Z</time>
      </trkpt>
      <trkpt lat="42.96041" lon="-0.14096">
        <ele>1307.4957938399</ele>
        <time>2014-01-05T08:59:58Z</time>
      </trkpt>
      <trkpt lat="42.96043" lon="-0.14102">
        <ele>1307.4957938399</ele>
        <time>2014-01-05T09:00:03Z</time>
      </trkpt>
      <trkpt lat="42.96042" lon="-0.14108">
        <ele>1311.4432597191</ele>
        <time>2014-01-05T09:00:08Z</time>
      </trkpt>
      <trkpt lat="42.96042" lon="-0.14114">
        <ele>1311.4432597191</ele>
        <time>2014-01-05T09:00:13Z</time>
      </trkpt>
      <trkpt lat="42.96042" lon="-0.1412">
        <ele>1315.1311614725</ele>
        <time>2014-01-05T09:00:18Z</time>
      </trkpt>
      <trkpt lat="42.96041" lon="-0.14125">
        <ele>1315.1311614725</ele>
        <time>2014-01-05T09:00:24Z</time>
      </trkpt>
      <trkpt lat="42.96042" lon="-0.1413">
        <ele>1315.1311614725</ele>
        <time>2014-01-05T09:00:28Z</time>
      </trkpt>
      <trkpt lat="42.96043" lon="-0.14135">
        <ele>1318.4226215703</ele>
        <time>2014-01-05T09:00:34Z</time>
      </trkpt>
      <trkpt lat="42.96042" lon="-0.1414">
        <ele>1318.4226215703</ele>
        <time>2014-01-05T09:00:39Z</time>
      </trkpt>
      <trkpt lat="42.9604" lon="-0.14143">
        <ele>1318.4226215703</ele>
        <time>2014-01-05T09:00:43Z</time>
      </trkpt>
      <trkpt lat="42.96039" lon="-0.14147">
        <ele>1321.3506360576</ele>
        <time>2014-01-05T09:00:49Z</time>
      </trkpt>
      <trkpt lat="42.96038" lon="-0.14153">
        <ele>1321.3506360576</ele>
        <time>2014-01-05T09:00:54Z</time>
      </trkpt>
      <trkpt lat="42.96035" lon="-0.1416">
        <ele>1323.990205142</ele>
        <time>2014-01-05T09:00:59Z</time>
      </trkpt>
      <trkpt lat="42.96034" lon="-0.14166">
        <ele>1323.990205142</ele>
        <time>2014-01-05T09:01:03Z</time>
      </trkpt>
      <trkpt lat="42.96033" lon="-0.14172">
        <ele>1326.4262451356</ele>
        <time>2014-01-05T09:01:09Z</time>
      </trkpt>
      <trkpt lat="42.96033" lon="-0.14178">
        <ele>1326.4262451356</ele>
        <time>2014-01-05T09:01:14Z</time>
      </trkpt>
      <trkpt lat="42.96033" lon="-0.14183">
        <ele>1326.4262451356</ele>
        <time>2014-01-05T09:01:19Z</time>
      </trkpt>
      <trkpt lat="42.96033" lon="-0.14189">
        <ele>1328.7238121685</ele>
        <time>2014-01-05T09:01:24Z</time>
      </trkpt>
      <trkpt lat="42.96023" lon="-0.14198">
        <ele>1331.2610771632</ele>
        <time>2014-01-05T09:01:28Z</time>
      </trkpt>
      <trkpt lat="42.96023" lon="-0.14201">
        <ele>1331.2610771632</ele>
        <time>2014-01-05T09:01:35Z</time>
      </trkpt>
      <trkpt lat="42.9602" lon="-0.14202">
        <ele>1331.2610771632</ele>
        <time>2014-01-05T09:01:39Z</time>
      </trkpt>
      <trkpt lat="42.96014" lon="-0.14203">
        <ele>1334.0851907677</ele>
        <time>2014-01-05T09:01:44Z</time>
      </trkpt>
      <trkpt lat="42.96014" lon="-0.14204">
        <ele>1334.0851907677</ele>
        <time>2014-01-05T09:01:49Z</time>
      </trkpt>
      <trkpt lat="42.96025" lon="-0.14209">
        <ele>1336.8354469013</ele>
        <time>2014-01-05T09:01:59Z</time>
      </trkpt>
      <trkpt lat="42.96028" lon="-0.14215">
        <ele>1336.8354469013</ele>
        <time>2014-01-05T09:02:04Z</time>
      </trkpt>
      <trkpt lat="42.96029" lon="-0.14219">
        <ele>1336.8354469013</ele>
        <time>2014-01-05T09:02:09Z</time>
      </trkpt>
      <trkpt lat="42.96021" lon="-0.14222">
        <ele>1339.8126776902</ele>
        <time>2014-01-05T09:02:14Z</time>
      </trkpt>
      <trkpt lat="42.96021" lon="-0.14224">
        <ele>1339.8126776902</ele>
        <time>2014-01-05T09:02:19Z</time>
      </trkpt>
      <trkpt lat="42.96017" lon="-0.14228">
        <ele>1339.8126776902</ele>
        <time>2014-01-05T09:02:24Z</time>
      </trkpt>
      <trkpt lat="42.96015" lon="-0.14232">
        <ele>1342.9490854088</ele>
        <time>2014-01-05T09:02:29Z</time>
      </trkpt>
      <trkpt lat="42.96012" lon="-0.14235">
        <ele>1342.9490854088</ele>
        <time>2014-01-05T09:02:34Z</time>
      </trkpt>
      <trkpt lat="42.96012" lon="-0.14241">
        <ele>1342.9490854088</ele>
        <time>2014-01-05T09:02:39Z</time>
      </trkpt>
      <trkpt lat="42.9601" lon="-0.14248">
        <ele>1346.1816571884</ele>
        <time>2014-01-05T09:02:44Z</time>
      </trkpt>
      <trkpt lat="42.96008" lon="-0.14253">
        <ele>1346.1816571884</ele>
        <time>2014-01-05T09:02:48Z</time>
      </trkpt>
      <trkpt lat="42.96006" lon="-0.14258">
        <ele>1346.1816571884</ele>
        <time>2014-01-05T09:02:54Z</time>
      </trkpt>
      <trkpt lat="42.96007" lon="-0.14262">
        <ele>1349.46642468</ele>
        <time>2014-01-05T09:02:59Z</time>
      </trkpt>
      <trkpt lat="42.9601" lon="-0.14267">
        <ele>1349.46642468</ele>
        <time>2014-01-05T09:03:04Z</time>
      </trkpt>
      <trkpt lat="42.96006" lon="-0.14273">
        <ele>1352.5752551717</ele>
        <time>2014-01-05T09:03:08Z</time>
      </trkpt>
      <trkpt lat="42.96001" lon="-0.14283">
        <ele>1352.5752551717</ele>
        <time>2014-01-05T09:03:14Z</time>
      </trkpt>
      <trkpt lat="42.95998" lon="-0.14287">
        <ele>1355.6004705177</ele>
        <time>2014-01-05T09:03:18Z</time>
      </trkpt>
      <trkpt lat="42.95995" lon="-0.14292">
        <ele>1355.6004705177</ele>
        <time>2014-01-05T09:03:24Z</time>
      </trkpt>
      <trkpt lat="42.95993" lon="-0.14296">
        <ele>1355.6004705177</ele>
        <time>2014-01-05T09:03:29Z</time>
      </trkpt>
      <trkpt lat="42.95989" lon="-0.143">
        <ele>1358.6569652168</ele>
        <time>2014-01-05T09:03:34Z</time>
      </trkpt>
      <trkpt lat="42.95984" lon="-0.143">
        <ele>1358.6569652168</ele>
        <time>2014-01-05T09:03:39Z</time>
      </trkpt>
      <trkpt lat="42.95981" lon="-0.143">
        <ele>1358.6569652168</ele>
        <time>2014-01-05T09:03:44Z</time>
      </trkpt>
      <trkpt lat="42.95971" lon="-0.14299">
        <ele>1361.6927043344</ele>
        <time>2014-01-05T09:03:59Z</time>
      </trkpt>
      <trkpt lat="42.9597" lon="-0.14297">
        <ele>1361.6927043344</ele>
        <time>2014-01-05T09:04:04Z</time>
      </trkpt>
      <trkpt lat="42.9596" lon="-0.14291">
        <ele>1364.6309660453</ele>
        <time>2014-01-05T09:04:50Z</time>
      </trkpt>
      <trkpt lat="42.9596" lon="-0.14291">
        <ele>1364.6309660453</ele>
        <time>2014-01-05T09:04:53Z</time>
      </trkpt>
      <trkpt lat="42.95955" lon="-0.14284">
        <ele>1364.6309660453</ele>
        <time>2014-01-05T09:04:58Z</time>
      </trkpt>
      <trkpt lat="42.95954" lon="-0.14284">
        <ele>1364.6309660453</ele>
        <time>2014-01-05T09:05:04Z</time>
      </trkpt>
      <trkpt lat="42.95958" lon="-0.14287">
        <ele>1367.2569916606</ele>
        <time>2014-01-05T09:05:14Z</time>
      </trkpt>
      <trkpt lat="42.95961" lon="-0.1429">
        <ele>1367.2569916606</ele>
        <time>2014-01-05T09:05:18Z</time>
      </trkpt>
      <trkpt lat="42.95961" lon="-0.14289">
        <ele>1367.2569916606</ele>
        <time>2014-01-05T09:05:23Z</time>
      </trkpt>
      <trkpt lat="42.95957" lon="-0.14292">
        <ele>1369.7623863807</ele>
        <time>2014-01-05T09:05:34Z</time>
      </trkpt>
      <trkpt lat="42.95954" lon="-0.14293">
        <ele>1369.7623863807</ele>
        <time>2014-01-05T09:05:39Z</time>
      </trkpt>
      <trkpt lat="42.95951" lon="-0.14294">
        <ele>1369.7623863807</ele>
        <time>2014-01-05T09:05:44Z</time>
      </trkpt>
      <trkpt lat="42.95948" lon="-0.14293">
        <ele>1369.7623863807</ele>
        <time>2014-01-05T09:05:49Z</time>
      </trkpt>
      <trkpt lat="42.95943" lon="-0.14292">
        <ele>1372.0512274947</ele>
        <time>2014-01-05T09:05:54Z</time>
      </trkpt>
      <trkpt lat="42.95938" lon="-0.1429">
        <ele>1372.0512274947</ele>
        <time>2014-01-05T09:05:59Z</time>
      </trkpt>
      <trkpt lat="42.95935" lon="-0.14288">
        <ele>1372.0512274947</ele>
        <time>2014-01-05T09:06:04Z</time>
      </trkpt>
      <trkpt lat="42.95933" lon="-0.14288">
        <ele>1374.0787785039</ele>
        <time>2014-01-05T09:06:09Z</time>
      </trkpt>
      <trkpt lat="42.95927" lon="-0.14284">
        <ele>1374.0787785039</ele>
        <time>2014-01-05T09:06:14Z</time>
      </trkpt>
      <trkpt lat="42.95926" lon="-0.14284">
        <ele>1374.0787785039</ele>
        <time>2014-01-05T09:06:19Z</time>
      </trkpt>
      <trkpt lat="42.95922" lon="-0.14285">
        <ele>1375.8766714148</ele>
        <time>2014-01-05T09:06:24Z</time>
      </trkpt>
      <trkpt lat="42.95916" lon="-0.14282">
        <ele>1375.8766714148</ele>
        <time>2014-01-05T09:06:28Z</time>
      </trkpt>
      <trkpt lat="42.95912" lon="-0.14281">
        <ele>1377.5327546314</ele>
        <time>2014-01-05T09:06:34Z</time>
      </trkpt>
      <trkpt lat="42.95909" lon="-0.14281">
        <ele>1377.5327546314</ele>
        <time>2014-01-05T09:06:39Z</time>
      </trkpt>
      <trkpt lat="42.95905" lon="-0.14281">
        <ele>1377.5327546314</ele>
        <time>2014-01-05T09:06:44Z</time>
      </trkpt>
      <trkpt lat="42.95901" lon="-0.14279">
        <ele>1379.0424988081</ele>
        <time>2014-01-05T09:06:49Z</time>
      </trkpt>
      <trkpt lat="42.95896" lon="-0.14277">
        <ele>1379.0424988081</ele>
        <time>2014-01-05T09:06:54Z</time>
      </trkpt>
      <trkpt lat="42.95892" lon="-0.14274">
        <ele>1380.4311498069</ele>
        <time>2014-01-05T09:06:59Z</time>
      </trkpt>
      <trkpt lat="42.9589" lon="-0.14271">
        <ele>1380.4311498069</ele>
        <time>2014-01-05T09:07:04Z</time>
      </trkpt>
      <trkpt lat="42.95887" lon="-0.14266">
        <ele>1380.4311498069</ele>
        <time>2014-01-05T09:07:09Z</time>
      </trkpt>
      <trkpt lat="42.95881" lon="-0.14268">
        <ele>1381.7514476357</ele>
        <time>2014-01-05T09:07:14Z</time>
      </trkpt>
      <trkpt lat="42.9588" lon="-0.14266">
        <ele>1381.7514476357</ele>
        <time>2014-01-05T09:07:20Z</time>
      </trkpt>
      <trkpt lat="42.95877" lon="-0.14262">
        <ele>1381.7514476357</ele>
        <time>2014-01-05T09:07:23Z</time>
      </trkpt>
      <trkpt lat="42.95877" lon="-0.14259">
        <ele>1381.7514476357</ele>
        <time>2014-01-05T09:07:29Z</time>
      </trkpt>
      <trkpt lat="42.9587" lon="-0.1426">
        <ele>1383.1391038184</ele>
        <time>2014-01-05T09:07:34Z</time>
      </trkpt>
      <trkpt lat="42.95865" lon="-0.14263">
        <ele>1383.1391038184</ele>
        <time>2014-01-05T09:07:39Z</time>
      </trkpt>
      <trkpt lat="42.95858" lon="-0.14265">
        <ele>1384.359396714</ele>
        <time>2014-01-05T09:07:44Z</time>
      </trkpt>
      <trkpt lat="42.95857" lon="-0.14261">
        <ele>1384.359396714</ele>
        <time>2014-01-05T09:07:49Z</time>
      </trkpt>
      <trkpt lat="42.9585" lon="-0.14262">
        <ele>1385.4549705201</ele>
        <time>2014-01-05T09:07:54Z</time>
      </trkpt>
      <trkpt lat="42.95849" lon="-0.1426">
        <ele>1385.4549705201</ele>
        <time>2014-01-05T09:07:59Z</time>
      </trkpt>
      <trkpt lat="42.95849" lon="-0.14261">
        <ele>1385.4549705201</ele>
        <time>2014-01-05T09:08:04Z</time>
      </trkpt>
      <trkpt lat="42.95845" lon="-0.14266">
        <ele>1385.4549705201</ele>
        <time>2014-01-05T09:08:09Z</time>
      </trkpt>
      <trkpt lat="42.95844" lon="-0.14269">
        <ele>1386.3937248462</ele>
        <time>2014-01-05T09:08:14Z</time>
      </trkpt>
      <trkpt lat="42.95844" lon="-0.14274">
        <ele>1386.3937248462</ele>
        <time>2014-01-05T09:08:19Z</time>
      </trkpt>
      <trkpt lat="42.95838" lon="-0.14281">
        <ele>1387.1897090744</ele>
        <time>2014-01-05T09:08:24Z</time>
      </trkpt>
      <trkpt lat="42.95839" lon="-0.14287">
        <ele>1387.1897090744</ele>
        <time>2014-01-05T09:08:29Z</time>
      </trkpt>
      <trkpt lat="42.95835" lon="-0.14295">
        <ele>1387.9429104102</ele>
        <time>2014-01-05T09:08:33Z</time>
      </trkpt>
      <trkpt lat="42.95835" lon="-0.143">
        <ele>1387.9429104102</ele>
        <time>2014-01-05T09:08:39Z</time>
      </trkpt>
      <trkpt lat="42.95833" lon="-0.14307">
        <ele>1388.6884998182</ele>
        <time>2014-01-05T09:08:44Z</time>
      </trkpt>
      <trkpt lat="42.95832" lon="-0.14313">
        <ele>1388.6884998182</ele>
        <time>2014-01-05T09:08:49Z</time>
      </trkpt>
      <trkpt lat="42.95833" lon="-0.14318">
        <ele>1388.6884998182</ele>
        <time>2014-01-05T09:08:54Z</time>
      </trkpt>
      <trkpt lat="42.95837" lon="-0.14325">
        <ele>1389.6320983903</ele>
        <time>2014-01-05T09:08:59Z</time>
      </trkpt>
      <trkpt lat="42.95837" lon="-0.14331">
        <ele>1389.6320983903</ele>
        <time>2014-01-05T09:09:04Z</time>
      </trkpt>
      <trkpt lat="42.95835" lon="-0.14336">
        <ele>1389.6320983903</ele>
        <time>2014-01-05T09:09:09Z</time>
      </trkpt>
      <trkpt lat="42.95834" lon="-0.14341">
        <ele>1390.6466191872</ele>
        <time>2014-01-05T09:09:14Z</time>
      </trkpt>
      <trkpt lat="42.95835" lon="-0.14345">
        <ele>1390.6466191872</ele>
        <time>2014-01-05T09:09:19Z</time>
      </trkpt>
      <trkpt lat="42.95834" lon="-0.14351">
        <ele>1390.6466191872</ele>
        <time>2014-01-05T09:09:23Z</time>
      </trkpt>
      <trkpt lat="42.95833" lon="-0.14357">
        <ele>1391.7150464438</ele>
        <time>2014-01-05T09:09:28Z</time>
      </trkpt>
      <trkpt lat="42.95831" lon="-0.14362">
        <ele>1391.7150464438</ele>
        <time>2014-01-05T09:09:34Z</time>
      </trkpt>
      <trkpt lat="42.95831" lon="-0.14367">
        <ele>1391.7150464438</ele>
        <time>2014-01-05T09:09:39Z</time>
      </trkpt>
      <trkpt lat="42.95831" lon="-0.1437">
        <ele>1392.7782537418</ele>
        <time>2014-01-05T09:09:44Z</time>
      </trkpt>
      <trkpt lat="42.95832" lon="-0.14374">
        <ele>1392.7782537418</ele>
        <time>2014-01-05T09:09:49Z</time>
      </trkpt>
      <trkpt lat="42.95831" lon="-0.14379">
        <ele>1392.7782537418</ele>
        <time>2014-01-05T09:09:54Z</time>
      </trkpt>
      <trkpt lat="42.95829" lon="-0.14384">
        <ele>1393.7959033694</ele>
        <time>2014-01-05T09:09:59Z</time>
      </trkpt>
      <trkpt lat="42.95827" lon="-0.1439">
        <ele>1393.7959033694</ele>
        <time>2014-01-05T09:10:04Z</time>
      </trkpt>
      <trkpt lat="42.95826" lon="-0.14395">
        <ele>1393.7959033694</ele>
        <time>2014-01-05T09:10:09Z</time>
      </trkpt>
      <trkpt lat="42.95823" lon="-0.14401">
        <ele>1394.7163444937</ele>
        <time>2014-01-05T09:10:13Z</time>
      </trkpt>
      <trkpt lat="42.95822" lon="-0.14408">
        <ele>1394.7163444937</ele>
        <time>2014-01-05T09:10:19Z</time>
      </trkpt>
      <trkpt lat="42.9582" lon="-0.14414">
        <ele>1395.5352262856</ele>
        <time>2014-01-05T09:10:24Z</time>
      </trkpt>
      <trkpt lat="42.9582" lon="-0.14416">
        <ele>1395.5352262856</ele>
        <time>2014-01-05T09:10:29Z</time>
      </trkpt>
      <trkpt lat="42.95821" lon="-0.14427">
        <ele>1396.3208473886</ele>
        <time>2014-01-05T09:10:34Z</time>
      </trkpt>
      <trkpt lat="42.9582" lon="-0.14432">
        <ele>1396.3208473886</ele>
        <time>2014-01-05T09:10:39Z</time>
      </trkpt>
      <trkpt lat="42.95821" lon="-0.14435">
        <ele>1396.3208473886</ele>
        <time>2014-01-05T09:10:44Z</time>
      </trkpt>
      <trkpt lat="42.95821" lon="-0.14439">
        <ele>1397.0933264828</ele>
        <time>2014-01-05T09:10:49Z</time>
      </trkpt>
      <trkpt lat="42.95821" lon="-0.14444">
        <ele>1397.0933264828</ele>
        <time>2014-01-05T09:10:54Z</time>
      </trkpt>
      <trkpt lat="42.95817" lon="-0.14449">
        <ele>1397.0933264828</ele>
        <time>2014-01-05T09:10:58Z</time>
      </trkpt>
      <trkpt lat="42.95815" lon="-0.14455">
        <ele>1398.2171846641</ele>
        <time>2014-01-05T09:11:04Z</time>
      </trkpt>
      <trkpt lat="42.95814" lon="-0.14459">
        <ele>1398.2171846641</ele>
        <time>2014-01-05T09:11:09Z</time>
      </trkpt>
      <trkpt lat="42.9581" lon="-0.14462">
        <ele>1398.2171846641</ele>
        <time>2014-01-05T09:11:14Z</time>
      </trkpt>
      <trkpt lat="42.95807" lon="-0.14467">
        <ele>1399.5679820889</ele>
        <time>2014-01-05T09:11:19Z</time>
      </trkpt>
      <trkpt lat="42.95804" lon="-0.14472">
        <ele>1399.5679820889</ele>
        <time>2014-01-05T09:11:23Z</time>
      </trkpt>
      <trkpt lat="42.95805" lon="-0.14477">
        <ele>1399.5679820889</ele>
        <time>2014-01-05T09:11:29Z</time>
      </trkpt>
      <trkpt lat="42.958" lon="-0.14483">
        <ele>1400.9865137711</ele>
        <time>2014-01-05T09:11:34Z</time>
      </trkpt>
      <trkpt lat="42.95798" lon="-0.14487">
        <ele>1400.9865137711</ele>
        <time>2014-01-05T09:11:39Z</time>
      </trkpt>
      <trkpt lat="42.95797" lon="-0.14494">
        <ele>1400.9865137711</ele>
        <time>2014-01-05T09:11:44Z</time>
      </trkpt>
      <trkpt lat="42.95796" lon="-0.145">
        <ele>1402.4259183076</ele>
        <time>2014-01-05T09:11:49Z</time>
      </trkpt>
      <trkpt lat="42.95796" lon="-0.14505">
        <ele>1402.4259183076</ele>
        <time>2014-01-05T09:11:53Z</time>
      </trkpt>
      <trkpt lat="42.95795" lon="-0.14511">
        <ele>1402.4259183076</ele>
        <time>2014-01-05T09:11:59Z</time>
      </trkpt>
      <trkpt lat="42.95794" lon="-0.14515">
        <ele>1403.9579656208</ele>
        <time>2014-01-05T09:12:03Z</time>
      </trkpt>
      <trkpt lat="42.95795" lon="-0.14521">
        <ele>1403.9579656208</ele>
        <time>2014-01-05T09:12:09Z</time>
      </trkpt>
      <trkpt lat="42.95796" lon="-0.14526">
        <ele>1403.9579656208</ele>
        <time>2014-01-05T09:12:13Z</time>
      </trkpt>
      <trkpt lat="42.95796" lon="-0.1453">
        <ele>1405.5912056826</ele>
        <time>2014-01-05T09:12:19Z</time>
      </trkpt>
      <trkpt lat="42.95795" lon="-0.14534">
        <ele>1405.5912056826</ele>
        <time>2014-01-05T09:12:24Z</time>
      </trkpt>
      <trkpt lat="42.95793" lon="-0.14539">
        <ele>1405.5912056826</ele>
        <time>2014-01-05T09:12:29Z</time>
      </trkpt>
      <trkpt lat="42.95796" lon="-0.14545">
        <ele>1407.4485247701</ele>
        <time>2014-01-05T09:12:34Z</time>
      </trkpt>
      <trkpt lat="42.95797" lon="-0.1455">
        <ele>1407.4485247701</ele>
        <time>2014-01-05T09:12:38Z</time>
      </trkpt>
      <trkpt lat="42.95795" lon="-0.14558">
        <ele>1409.2395962412</ele>
        <time>2014-01-05T09:12:44Z</time>
      </trkpt>
      <trkpt lat="42.95795" lon="-0.14562">
        <ele>1409.2395962412</ele>
        <time>2014-01-05T09:12:49Z</time>
      </trkpt>
      <trkpt lat="42.95799" lon="-0.14566">
        <ele>1409.2395962412</ele>
        <time>2014-01-05T09:12:54Z</time>
      </trkpt>
      <trkpt lat="42.95803" lon="-0.14571">
        <ele>1410.8252682094</ele>
        <time>2014-01-05T09:12:59Z</time>
      </trkpt>
      <trkpt lat="42.95802" lon="-0.14576">
        <ele>1410.8252682094</ele>
        <time>2014-01-05T09:13:04Z</time>
      </trkpt>
      <trkpt lat="42.95803" lon="-0.14579">
        <ele>1410.8252682094</ele>
        <time>2014-01-05T09:13:09Z</time>
      </trkpt>
      <trkpt lat="42.95805" lon="-0.1458">
        <ele>1410.8252682094</ele>
        <time>2014-01-05T09:13:14Z</time>
      </trkpt>
      <trkpt lat="42.95804" lon="-0.14581">
        <ele>1412.3653766259</ele>
        <time>2014-01-05T09:13:18Z</time>
      </trkpt>
      <trkpt lat="42.95801" lon="-0.14586">
        <ele>1412.3653766259</ele>
        <time>2014-01-05T09:13:24Z</time>
      </trkpt>
      <trkpt lat="42.95797" lon="-0.14591">
        <ele>1413.8495835531</ele>
        <time>2014-01-05T09:13:28Z</time>
      </trkpt>
      <trkpt lat="42.95799" lon="-0.14597">
        <ele>1413.8495835531</ele>
        <time>2014-01-05T09:13:34Z</time>
      </trkpt>
      <trkpt lat="42.958" lon="-0.146">
        <ele>1413.8495835531</ele>
        <time>2014-01-05T09:13:39Z</time>
      </trkpt>
      <trkpt lat="42.95801" lon="-0.14605">
        <ele>1415.1387292664</ele>
        <time>2014-01-05T09:13:43Z</time>
      </trkpt>
      <trkpt lat="42.95799" lon="-0.14611">
        <ele>1415.1387292664</ele>
        <time>2014-01-05T09:13:49Z</time>
      </trkpt>
      <trkpt lat="42.95798" lon="-0.14615">
        <ele>1415.1387292664</ele>
        <time>2014-01-05T09:13:54Z</time>
      </trkpt>
      <trkpt lat="42.95796" lon="-0.14619">
        <ele>1416.3926167684</ele>
        <time>2014-01-05T09:13:58Z</time>
      </trkpt>
      <trkpt lat="42.95795" lon="-0.14625">
        <ele>1416.3926167684</ele>
        <time>2014-01-05T09:14:04Z</time>
      </trkpt>
      <trkpt lat="42.95794" lon="-0.14629">
        <ele>1416.3926167684</ele>
        <time>2014-01-05T09:14:11Z</time>
      </trkpt>
      <trkpt lat="42.95793" lon="-0.14631">
        <ele>1417.5864355956</ele>
        <time>2014-01-05T09:14:13Z</time>
      </trkpt>
      <trkpt lat="42.95791" lon="-0.14638">
        <ele>1417.5864355956</ele>
        <time>2014-01-05T09:14:19Z</time>
      </trkpt>
      <trkpt lat="42.95789" lon="-0.14642">
        <ele>1417.5864355956</ele>
        <time>2014-01-05T09:14:23Z</time>
      </trkpt>
      <trkpt lat="42.95789" lon="-0.14646">
        <ele>1418.6973284739</ele>
        <time>2014-01-05T09:14:29Z</time>
      </trkpt>
      <trkpt lat="42.95789" lon="-0.14652">
        <ele>1418.6973284739</ele>
        <time>2014-01-05T09:14:34Z</time>
      </trkpt>
      <trkpt lat="42.95786" lon="-0.14656">
        <ele>1418.6973284739</ele>
        <time>2014-01-05T09:14:39Z</time>
      </trkpt>
      <trkpt lat="42.95786" lon="-0.14661">
        <ele>1419.8196020468</ele>
        <time>2014-01-05T09:14:44Z</time>
      </trkpt>
      <trkpt lat="42.95785" lon="-0.14666">
        <ele>1419.8196020468</ele>
        <time>2014-01-05T09:14:49Z</time>
      </trkpt>
      <trkpt lat="42.95785" lon="-0.14671">
        <ele>1419.8196020468</ele>
        <time>2014-01-05T09:14:54Z</time>
      </trkpt>
      <trkpt lat="42.95784" lon="-0.14676">
        <ele>1420.8676238402</ele>
        <time>2014-01-05T09:14:59Z</time>
      </trkpt>
      <trkpt lat="42.95783" lon="-0.14683">
        <ele>1420.8676238402</ele>
        <time>2014-01-05T09:15:04Z</time>
      </trkpt>
      <trkpt lat="42.95781" lon="-0.14688">
        <ele>1421.791039339</ele>
        <time>2014-01-05T09:15:08Z</time>
      </trkpt>
      <trkpt lat="42.9578" lon="-0.14693">
        <ele>1421.791039339</ele>
        <time>2014-01-05T09:15:13Z</time>
      </trkpt>
      <trkpt lat="42.95778" lon="-0.14699">
        <ele>1421.791039339</ele>
        <time>2014-01-05T09:15:19Z</time>
      </trkpt>
      <trkpt lat="42.95777" lon="-0.14703">
        <ele>1422.5723192188</ele>
        <time>2014-01-05T09:15:24Z</time>
      </trkpt>
      <trkpt lat="42.95777" lon="-0.14706">
        <ele>1422.5723192188</ele>
        <time>2014-01-05T09:15:29Z</time>
      </trkpt>
      <trkpt lat="42.95772" lon="-0.14717">
        <ele>1423.9593805372</ele>
        <time>2014-01-05T09:19:04Z</time>
      </trkpt>
      <trkpt lat="42.95769" lon="-0.14719">
        <ele>1423.9593805372</ele>
        <time>2014-01-05T09:19:09Z</time>
      </trkpt>
      <trkpt lat="42.95767" lon="-0.1472">
        <ele>1423.9593805372</ele>
        <time>2014-01-05T09:19:14Z</time>
      </trkpt>
      <trkpt lat="42.95764" lon="-0.14721">
        <ele>1425.1158310447</ele>
        <time>2014-01-05T09:19:19Z</time>
      </trkpt>
      <trkpt lat="42.9576" lon="-0.14722">
        <ele>1425.1158310447</ele>
        <time>2014-01-05T09:19:24Z</time>
      </trkpt>
      <trkpt lat="42.95756" lon="-0.14724">
        <ele>1425.1158310447</ele>
        <time>2014-01-05T09:19:29Z</time>
      </trkpt>
      <trkpt lat="42.95751" lon="-0.14725">
        <ele>1426.0743597027</ele>
        <time>2014-01-05T09:19:34Z</time>
      </trkpt>
      <trkpt lat="42.95747" lon="-0.1473">
        <ele>1426.0743597027</ele>
        <time>2014-01-05T09:19:39Z</time>
      </trkpt>
      <trkpt lat="42.95746" lon="-0.14731">
        <ele>1426.0743597027</ele>
        <time>2014-01-05T09:19:44Z</time>
      </trkpt>
      <trkpt lat="42.95739" lon="-0.14733">
        <ele>1426.9378142367</ele>
        <time>2014-01-05T09:19:54Z</time>
      </trkpt>
      <trkpt lat="42.95737" lon="-0.14735">
        <ele>1426.9378142367</ele>
        <time>2014-01-05T09:19:59Z</time>
      </trkpt>
      <trkpt lat="42.95734" lon="-0.14738">
        <ele>1426.9378142367</ele>
        <time>2014-01-05T09:20:04Z</time>
      </trkpt>
      <trkpt lat="42.95728" lon="-0.14738">
        <ele>1427.6431743511</ele>
        <time>2014-01-05T09:20:09Z</time>
      </trkpt>
      <trkpt lat="42.95725" lon="-0.14741">
        <ele>1427.6431743511</ele>
        <time>2014-01-05T09:20:14Z</time>
      </trkpt>
      <trkpt lat="42.95723" lon="-0.1474">
        <ele>1427.6431743511</ele>
        <time>2014-01-05T09:20:20Z</time>
      </trkpt>
      <trkpt lat="42.95721" lon="-0.14738">
        <ele>1427.6431743511</ele>
        <time>2014-01-05T09:20:23Z</time>
      </trkpt>
      <trkpt lat="42.95717" lon="-0.14737">
        <ele>1428.2333171592</ele>
        <time>2014-01-05T09:20:29Z</time>
      </trkpt>
      <trkpt lat="42.95713" lon="-0.14735">
        <ele>1428.2333171592</ele>
        <time>2014-01-05T09:20:34Z</time>
      </trkpt>
      <trkpt lat="42.95708" lon="-0.1473">
        <ele>1428.6761773025</ele>
        <time>2014-01-05T09:20:39Z</time>
      </trkpt>
      <trkpt lat="42.95705" lon="-0.14728">
        <ele>1428.6761773025</ele>
        <time>2014-01-05T09:20:43Z</time>
      </trkpt>
      <trkpt lat="42.95702" lon="-0.14726">
        <ele>1428.6761773025</ele>
        <time>2014-01-05T09:20:49Z</time>
      </trkpt>
      <trkpt lat="42.95698" lon="-0.14727">
        <ele>1429.0720980921</ele>
        <time>2014-01-05T09:20:53Z</time>
      </trkpt>
      <trkpt lat="42.95695" lon="-0.14727">
        <ele>1429.0720980921</ele>
        <time>2014-01-05T09:20:59Z</time>
      </trkpt>
      <trkpt lat="42.95691" lon="-0.14725">
        <ele>1429.0720980921</ele>
        <time>2014-01-05T09:21:04Z</time>
      </trkpt>
      <trkpt lat="42.95686" lon="-0.14721">
        <ele>1429.3844140836</ele>
        <time>2014-01-05T09:21:09Z</time>
      </trkpt>
      <trkpt lat="42.95682" lon="-0.14721">
        <ele>1429.3844140836</ele>
        <time>2014-01-05T09:21:14Z</time>
      </trkpt>
      <trkpt lat="42.95679" lon="-0.1472">
        <ele>1429.3844140836</ele>
        <time>2014-01-05T09:21:19Z</time>
      </trkpt>
      <trkpt lat="42.95675" lon="-0.14721">
        <ele>1429.6081396341</ele>
        <time>2014-01-05T09:21:24Z</time>
      </trkpt>
      <trkpt lat="42.9567" lon="-0.14721">
        <ele>1429.6081396341</ele>
        <time>2014-01-05T09:21:29Z</time>
      </trkpt>
      <trkpt lat="42.95665" lon="-0.14722">
        <ele>1429.8108848873</ele>
        <time>2014-01-05T09:21:33Z</time>
      </trkpt>
      <trkpt lat="42.9566" lon="-0.14722">
        <ele>1429.8108848873</ele>
        <time>2014-01-05T09:21:39Z</time>
      </trkpt>
      <trkpt lat="42.95654" lon="-0.14722">
        <ele>1429.968804231</ele>
        <time>2014-01-05T09:21:44Z</time>
      </trkpt>
      <trkpt lat="42.95651" lon="-0.1472">
        <ele>1429.968804231</ele>
        <time>2014-01-05T09:21:49Z</time>
      </trkpt>
      <trkpt lat="42.95647" lon="-0.14717">
        <ele>1429.968804231</ele>
        <time>2014-01-05T09:21:54Z</time>
      </trkpt>
      <trkpt lat="42.95646" lon="-0.14715">
        <ele>1430.1174904664</ele>
        <time>2014-01-05T09:21:59Z</time>
      </trkpt>
      <trkpt lat="42.9564" lon="-0.14716">
        <ele>1430.1174904664</ele>
        <time>2014-01-05T09:22:03Z</time>
      </trkpt>
      <trkpt lat="42.95637" lon="-0.14714">
        <ele>1430.2754481141</ele>
        <time>2014-01-05T09:22:08Z</time>
      </trkpt>
      <trkpt lat="42.95631" lon="-0.14714">
        <ele>1430.2754481141</ele>
        <time>2014-01-05T09:22:14Z</time>
      </trkpt>
      <trkpt lat="42.95624" lon="-0.14717">
        <ele>1430.4308821977</ele>
        <time>2014-01-05T09:22:18Z</time>
      </trkpt>
      <trkpt lat="42.95619" lon="-0.14717">
        <ele>1430.4308821977</ele>
        <time>2014-01-05T09:22:24Z</time>
      </trkpt>
      <trkpt lat="42.95616" lon="-0.14717">
        <ele>1430.4308821977</ele>
        <time>2014-01-05T09:22:29Z</time>
      </trkpt>
      <trkpt lat="42.95612" lon="-0.14715">
        <ele>1430.7457115184</ele>
        <time>2014-01-05T09:22:34Z</time>
      </trkpt>
      <trkpt lat="42.9561" lon="-0.14715">
        <ele>1430.7457115184</ele>
        <time>2014-01-05T09:22:39Z</time>
      </trkpt>
      <trkpt lat="42.95605" lon="-0.14717">
        <ele>1430.7457115184</ele>
        <time>2014-01-05T09:22:44Z</time>
      </trkpt>
      <trkpt lat="42.956" lon="-0.14719">
        <ele>1431.167659682</ele>
        <time>2014-01-05T09:22:49Z</time>
      </trkpt>
      <trkpt lat="42.95597" lon="-0.14717">
        <ele>1431.167659682</ele>
        <time>2014-01-05T09:22:54Z</time>
      </trkpt>
      <trkpt lat="42.95597" lon="-0.14716">
        <ele>1431.167659682</ele>
        <time>2014-01-05T09:22:59Z</time>
      </trkpt>
      <trkpt lat="42.95594" lon="-0.14717">
        <ele>1431.167659682</ele>
        <time>2014-01-05T09:23:04Z</time>
      </trkpt>
      <trkpt lat="42.95589" lon="-0.14719">
        <ele>1431.8640613602</ele>
        <time>2014-01-05T09:23:09Z</time>
      </trkpt>
      <trkpt lat="42.95585" lon="-0.14718">
        <ele>1431.8640613602</ele>
        <time>2014-01-05T09:23:13Z</time>
      </trkpt>
      <trkpt lat="42.95579" lon="-0.1472">
        <ele>1432.686458225</ele>
        <time>2014-01-05T09:23:19Z</time>
      </trkpt>
      <trkpt lat="42.95576" lon="-0.14722">
        <ele>1432.686458225</ele>
        <time>2014-01-05T09:23:24Z</time>
      </trkpt>
      <trkpt lat="42.9557" lon="-0.14721">
        <ele>1433.5689072965</ele>
        <time>2014-01-05T09:23:29Z</time>
      </trkpt>
      <trkpt lat="42.95567" lon="-0.1472">
        <ele>1433.5689072965</ele>
        <time>2014-01-05T09:23:34Z</time>
      </trkpt>
      <trkpt lat="42.95564" lon="-0.14722">
        <ele>1433.5689072965</ele>
        <time>2014-01-05T09:23:39Z</time>
      </trkpt>
      <trkpt lat="42.9556" lon="-0.14725">
        <ele>1434.6950419229</ele>
        <time>2014-01-05T09:23:44Z</time>
      </trkpt>
      <trkpt lat="42.95556" lon="-0.14725">
        <ele>1434.6950419229</ele>
        <time>2014-01-05T09:23:48Z</time>
      </trkpt>
      <trkpt lat="42.95553" lon="-0.14725">
        <ele>1434.6950419229</ele>
        <time>2014-01-05T09:23:54Z</time>
      </trkpt>
      <trkpt lat="42.95551" lon="-0.14725">
        <ele>1435.9604262363</ele>
        <time>2014-01-05T09:23:59Z</time>
      </trkpt>
      <trkpt lat="42.95546" lon="-0.14724">
        <ele>1435.9604262363</ele>
        <time>2014-01-05T09:24:04Z</time>
      </trkpt>
      <trkpt lat="42.95543" lon="-0.14724">
        <ele>1435.9604262363</ele>
        <time>2014-01-05T09:24:09Z</time>
      </trkpt>
      <trkpt lat="42.95541" lon="-0.14724">
        <ele>1437.3975286092</ele>
        <time>2014-01-05T09:24:13Z</time>
      </trkpt>
      <trkpt lat="42.95537" lon="-0.14723">
        <ele>1437.3975286092</ele>
        <time>2014-01-05T09:24:18Z</time>
      </trkpt>
      <trkpt lat="42.9553" lon="-0.14726">
        <ele>1439.021469581</ele>
        <time>2014-01-05T09:24:24Z</time>
      </trkpt>
      <trkpt lat="42.95527" lon="-0.14727">
        <ele>1439.021469581</ele>
        <time>2014-01-05T09:24:29Z</time>
      </trkpt>
      <trkpt lat="42.95521" lon="-0.14729">
        <ele>1440.6727398728</ele>
        <time>2014-01-05T09:24:34Z</time>
      </trkpt>
      <trkpt lat="42.95516" lon="-0.1473">
        <ele>1440.6727398728</ele>
        <time>2014-01-05T09:24:39Z</time>
      </trkpt>
      <trkpt lat="42.95513" lon="-0.1473">
        <ele>1440.6727398728</ele>
        <time>2014-01-05T09:24:45Z</time>
      </trkpt>
      <trkpt lat="42.9551" lon="-0.14731">
        <ele>1442.5060527464</ele>
        <time>2014-01-05T09:24:48Z</time>
      </trkpt>
      <trkpt lat="42.95505" lon="-0.14731">
        <ele>1442.5060527464</ele>
        <time>2014-01-05T09:24:54Z</time>
      </trkpt>
      <trkpt lat="42.95501" lon="-0.14734">
        <ele>1442.5060527464</ele>
        <time>2014-01-05T09:24:59Z</time>
      </trkpt>
      <trkpt lat="42.95498" lon="-0.14735">
        <ele>1444.5200921211</ele>
        <time>2014-01-05T09:25:04Z</time>
      </trkpt>
      <trkpt lat="42.95496" lon="-0.14733">
        <ele>1444.5200921211</ele>
        <time>2014-01-05T09:25:08Z</time>
      </trkpt>
      <trkpt lat="42.95492" lon="-0.14734">
        <ele>1444.5200921211</ele>
        <time>2014-01-05T09:25:14Z</time>
      </trkpt>
      <trkpt lat="42.95488" lon="-0.14737">
        <ele>1446.6122219992</ele>
        <time>2014-01-05T09:25:19Z</time>
      </trkpt>
      <trkpt lat="42.95485" lon="-0.14737">
        <ele>1446.6122219992</ele>
        <time>2014-01-05T09:25:24Z</time>
      </trkpt>
      <trkpt lat="42.95482" lon="-0.1474">
        <ele>1446.6122219992</ele>
        <time>2014-01-05T09:25:29Z</time>
      </trkpt>
      <trkpt lat="42.95477" lon="-0.14741">
        <ele>1448.8456283276</ele>
        <time>2014-01-05T09:25:34Z</time>
      </trkpt>
      <trkpt lat="42.95472" lon="-0.14739">
        <ele>1448.8456283276</ele>
        <time>2014-01-05T09:25:39Z</time>
      </trkpt>
      <trkpt lat="42.95468" lon="-0.14738">
        <ele>1451.0478711725</ele>
        <time>2014-01-05T09:25:44Z</time>
      </trkpt>
      <trkpt lat="42.95463" lon="-0.14738">
        <ele>1451.0478711725</ele>
        <time>2014-01-05T09:25:49Z</time>
      </trkpt>
      <trkpt lat="42.95459" lon="-0.14739">
        <ele>1453.2321995887</ele>
        <time>2014-01-05T09:25:54Z</time>
      </trkpt>
      <trkpt lat="42.95456" lon="-0.1474">
        <ele>1453.2321995887</ele>
        <time>2014-01-05T09:25:59Z</time>
      </trkpt>
      <trkpt lat="42.95453" lon="-0.14742">
        <ele>1453.2321995887</ele>
        <time>2014-01-05T09:26:03Z</time>
      </trkpt>
      <trkpt lat="42.95451" lon="-0.14743">
        <ele>1453.2321995887</ele>
        <time>2014-01-05T09:26:08Z</time>
      </trkpt>
      <trkpt lat="42.95446" lon="-0.14746">
        <ele>1455.5694731992</ele>
        <time>2014-01-05T09:26:14Z</time>
      </trkpt>
      <trkpt lat="42.95443" lon="-0.14745">
        <ele>1455.5694731992</ele>
        <time>2014-01-05T09:26:19Z</time>
      </trkpt>
      <trkpt lat="42.95439" lon="-0.14743">
        <ele>1455.5694731992</ele>
        <time>2014-01-05T09:26:24Z</time>
      </trkpt>
      <trkpt lat="42.95436" lon="-0.14743">
        <ele>1457.9581924781</ele>
        <time>2014-01-05T09:26:29Z</time>
      </trkpt>
      <trkpt lat="42.95431" lon="-0.14746">
        <ele>1457.9581924781</ele>
        <time>2014-01-05T09:26:34Z</time>
      </trkpt>
      <trkpt lat="42.95427" lon="-0.14746">
        <ele>1460.3474339007</ele>
        <time>2014-01-05T09:26:39Z</time>
      </trkpt>
      <trkpt lat="42.95425" lon="-0.14747">
        <ele>1460.3474339007</ele>
        <time>2014-01-05T09:26:44Z</time>
      </trkpt>
      <trkpt lat="42.95421" lon="-0.14749">
        <ele>1460.3474339007</ele>
        <time>2014-01-05T09:26:49Z</time>
      </trkpt>
      <trkpt lat="42.95416" lon="-0.1475">
        <ele>1462.6468197314</ele>
        <time>2014-01-05T09:26:54Z</time>
      </trkpt>
      <trkpt lat="42.95412" lon="-0.14751">
        <ele>1462.6468197314</ele>
        <time>2014-01-05T09:26:59Z</time>
      </trkpt>
      <trkpt lat="42.95408" lon="-0.14754">
        <ele>1462.6468197314</ele>
        <time>2014-01-05T09:27:04Z</time>
      </trkpt>
      <trkpt lat="42.95403" lon="-0.14755">
        <ele>1464.9890784476</ele>
        <time>2014-01-05T09:27:09Z</time>
      </trkpt>
      <trkpt lat="42.95399" lon="-0.14757">
        <ele>1464.9890784476</ele>
        <time>2014-01-05T09:27:14Z</time>
      </trkpt>
      <trkpt lat="42.95397" lon="-0.14758">
        <ele>1464.9890784476</ele>
        <time>2014-01-05T09:27:19Z</time>
      </trkpt>
      <trkpt lat="42.95395" lon="-0.1476">
        <ele>1464.9890784476</ele>
        <time>2014-01-05T09:27:24Z</time>
      </trkpt>
      <trkpt lat="42.95393" lon="-0.14762">
        <ele>1467.338601565</ele>
        <time>2014-01-05T09:27:29Z</time>
      </trkpt>
      <trkpt lat="42.95391" lon="-0.14767">
        <ele>1467.338601565</ele>
        <time>2014-01-05T09:27:34Z</time>
      </trkpt>
      <trkpt lat="42.95387" lon="-0.14771">
        <ele>1469.5903827611</ele>
        <time>2014-01-05T09:27:39Z</time>
      </trkpt>
      <trkpt lat="42.95383" lon="-0.14774">
        <ele>1469.5903827611</ele>
        <time>2014-01-05T09:27:44Z</time>
      </trkpt>
      <trkpt lat="42.9538" lon="-0.14777">
        <ele>1469.5903827611</ele>
        <time>2014-01-05T09:27:49Z</time>
      </trkpt>
      <trkpt lat="42.95378" lon="-0.1478">
        <ele>1471.733938282</ele>
        <time>2014-01-05T09:27:54Z</time>
      </trkpt>
      <trkpt lat="42.95376" lon="-0.14782">
        <ele>1471.733938282</ele>
        <time>2014-01-05T09:27:59Z</time>
      </trkpt>
      <trkpt lat="42.95375" lon="-0.14783">
        <ele>1471.733938282</ele>
        <time>2014-01-05T09:28:04Z</time>
      </trkpt>
      <trkpt lat="42.95371" lon="-0.14785">
        <ele>1471.733938282</ele>
        <time>2014-01-05T09:28:09Z</time>
      </trkpt>
      <trkpt lat="42.95368" lon="-0.14787">
        <ele>1473.8463973907</ele>
        <time>2014-01-05T09:28:14Z</time>
      </trkpt>
      <trkpt lat="42.95365" lon="-0.14789">
        <ele>1473.8463973907</ele>
        <time>2014-01-05T09:28:19Z</time>
      </trkpt>
      <trkpt lat="42.95364" lon="-0.14791">
        <ele>1473.8463973907</ele>
        <time>2014-01-05T09:28:24Z</time>
      </trkpt>
      <trkpt lat="42.9536" lon="-0.14795">
        <ele>1475.9129199961</ele>
        <time>2014-01-05T09:28:29Z</time>
      </trkpt>
      <trkpt lat="42.95358" lon="-0.148">
        <ele>1475.9129199961</ele>
        <time>2014-01-05T09:28:34Z</time>
      </trkpt>
      <trkpt lat="42.95357" lon="-0.14801">
        <ele>1475.9129199961</ele>
        <time>2014-01-05T09:28:39Z</time>
      </trkpt>
      <trkpt lat="42.95354" lon="-0.14804">
        <ele>1475.9129199961</ele>
        <time>2014-01-05T09:28:44Z</time>
      </trkpt>
      <trkpt lat="42.95351" lon="-0.14806">
        <ele>1477.9487857649</ele>
        <time>2014-01-05T09:28:49Z</time>
      </trkpt>
      <trkpt lat="42.95352" lon="-0.1481">
        <ele>1477.9487857649</ele>
        <time>2014-01-05T09:28:54Z</time>
      </trkpt>
      <trkpt lat="42.95349" lon="-0.14813">
        <ele>1477.9487857649</ele>
        <time>2014-01-05T09:28:59Z</time>
      </trkpt>
      <trkpt lat="42.95344" lon="-0.14816">
        <ele>1479.910673495</ele>
        <time>2014-01-05T09:29:03Z</time>
      </trkpt>
      <trkpt lat="42.95342" lon="-0.14824">
        <ele>1479.910673495</ele>
        <time>2014-01-05T09:29:09Z</time>
      </trkpt>
      <trkpt lat="42.95342" lon="-0.14827">
        <ele>1479.910673495</ele>
        <time>2014-01-05T09:29:14Z</time>
      </trkpt>
      <trkpt lat="42.95338" lon="-0.14833">
        <ele>1481.8884330103</ele>
        <time>2014-01-05T09:29:19Z</time>
      </trkpt>
      <trkpt lat="42.95336" lon="-0.14838">
        <ele>1481.8884330103</ele>
        <time>2014-01-05T09:29:24Z</time>
      </trkpt>
      <trkpt lat="42.95333" lon="-0.14841">
        <ele>1481.8884330103</ele>
        <time>2014-01-05T09:29:29Z</time>
      </trkpt>
      <trkpt lat="42.9533" lon="-0.14847">
        <ele>1483.8788839348</ele>
        <time>2014-01-05T09:29:34Z</time>
      </trkpt>
      <trkpt lat="42.95325" lon="-0.14853">
        <ele>1483.8788839348</ele>
        <time>2014-01-05T09:29:39Z</time>
      </trkpt>
      <trkpt lat="42.95323" lon="-0.14859">
        <ele>1485.7350137945</ele>
        <time>2014-01-05T09:29:44Z</time>
      </trkpt>
      <trkpt lat="42.9532" lon="-0.14863">
        <ele>1485.7350137945</ele>
        <time>2014-01-05T09:29:49Z</time>
      </trkpt>
      <trkpt lat="42.95319" lon="-0.14866">
        <ele>1485.7350137945</ele>
        <time>2014-01-05T09:29:54Z</time>
      </trkpt>
      <trkpt lat="42.9532" lon="-0.14872">
        <ele>1487.5948782258</ele>
        <time>2014-01-05T09:29:59Z</time>
      </trkpt>
      <trkpt lat="42.95318" lon="-0.14878">
        <ele>1487.5948782258</ele>
        <time>2014-01-05T09:30:03Z</time>
      </trkpt>
      <trkpt lat="42.95318" lon="-0.14884">
        <ele>1487.5948782258</ele>
        <time>2014-01-05T09:30:08Z</time>
      </trkpt>
      <trkpt lat="42.95317" lon="-0.14892">
        <ele>1489.4567600875</ele>
        <time>2014-01-05T09:30:14Z</time>
      </trkpt>
      <trkpt lat="42.95317" lon="-0.14893">
        <ele>1489.4567600875</ele>
        <time>2014-01-05T09:30:19Z</time>
      </trkpt>
      <trkpt lat="42.95318" lon="-0.14897">
        <ele>1489.4567600875</ele>
        <time>2014-01-05T09:30:24Z</time>
      </trkpt>
      <trkpt lat="42.95316" lon="-0.14903">
        <ele>1491.4920743508</ele>
        <time>2014-01-05T09:30:28Z</time>
      </trkpt>
      <trkpt lat="42.95316" lon="-0.1491">
        <ele>1491.4920743508</ele>
        <time>2014-01-05T09:30:34Z</time>
      </trkpt>
      <trkpt lat="42.95315" lon="-0.14913">
        <ele>1491.4920743508</ele>
        <time>2014-01-05T09:30:39Z</time>
      </trkpt>
      <trkpt lat="42.95313" lon="-0.1492">
        <ele>1493.5421894948</ele>
        <time>2014-01-05T09:30:44Z</time>
      </trkpt>
      <trkpt lat="42.95311" lon="-0.14923">
        <ele>1493.5421894948</ele>
        <time>2014-01-05T09:30:49Z</time>
      </trkpt>
      <trkpt lat="42.95307" lon="-0.14926">
        <ele>1493.5421894948</ele>
        <time>2014-01-05T09:30:54Z</time>
      </trkpt>
      <trkpt lat="42.95304" lon="-0.14928">
        <ele>1495.6186837443</ele>
        <time>2014-01-05T09:30:59Z</time>
      </trkpt>
      <trkpt lat="42.95298" lon="-0.14935">
        <ele>1495.6186837443</ele>
        <time>2014-01-05T09:31:04Z</time>
      </trkpt>
      <trkpt lat="42.95295" lon="-0.14942">
        <ele>1497.7034637429</ele>
        <time>2014-01-05T09:31:08Z</time>
      </trkpt>
      <trkpt lat="42.95292" lon="-0.14946">
        <ele>1497.7034637429</ele>
        <time>2014-01-05T09:31:14Z</time>
      </trkpt>
      <trkpt lat="42.95288" lon="-0.1495">
        <ele>1499.7509943687</ele>
        <time>2014-01-05T09:31:19Z</time>
      </trkpt>
      <trkpt lat="42.95286" lon="-0.14952">
        <ele>1499.7509943687</ele>
        <time>2014-01-05T09:31:24Z</time>
      </trkpt>
      <trkpt lat="42.95283" lon="-0.14954">
        <ele>1499.7509943687</ele>
        <time>2014-01-05T09:31:28Z</time>
      </trkpt>
      <trkpt lat="42.9528" lon="-0.1496">
        <ele>1501.7048525537</ele>
        <time>2014-01-05T09:31:34Z</time>
      </trkpt>
      <trkpt lat="42.95276" lon="-0.14962">
        <ele>1501.7048525537</ele>
        <time>2014-01-05T09:31:39Z</time>
      </trkpt>
      <trkpt lat="42.9527" lon="-0.14964">
        <ele>1503.4986839035</ele>
        <time>2014-01-05T09:31:44Z</time>
      </trkpt>
      <trkpt lat="42.95266" lon="-0.14967">
        <ele>1503.4986839035</ele>
        <time>2014-01-05T09:31:49Z</time>
      </trkpt>
      <trkpt lat="42.95263" lon="-0.14969">
        <ele>1503.4986839035</ele>
        <time>2014-01-05T09:31:54Z</time>
      </trkpt>
      <trkpt lat="42.9526" lon="-0.14971">
        <ele>1505.186816246</ele>
        <time>2014-01-05T09:31:59Z</time>
      </trkpt>
      <trkpt lat="42.95257" lon="-0.14972">
        <ele>1505.186816246</ele>
        <time>2014-01-05T09:32:04Z</time>
      </trkpt>
      <trkpt lat="42.95253" lon="-0.14973">
        <ele>1505.186816246</ele>
        <time>2014-01-05T09:32:09Z</time>
      </trkpt>
      <trkpt lat="42.95249" lon="-0.14976">
        <ele>1506.9064167725</ele>
        <time>2014-01-05T09:32:14Z</time>
      </trkpt>
      <trkpt lat="42.95247" lon="-0.14978">
        <ele>1506.9064167725</ele>
        <time>2014-01-05T09:32:19Z</time>
      </trkpt>
      <trkpt lat="42.95242" lon="-0.14979">
        <ele>1506.9064167725</ele>
        <time>2014-01-05T09:32:24Z</time>
      </trkpt>
      <trkpt lat="42.95238" lon="-0.14979">
        <ele>1508.6980850238</ele>
        <time>2014-01-05T09:32:29Z</time>
      </trkpt>
      <trkpt lat="42.95234" lon="-0.14981">
        <ele>1508.6980850238</ele>
        <time>2014-01-05T09:32:34Z</time>
      </trkpt>
      <trkpt lat="42.95229" lon="-0.14981">
        <ele>1508.6980850238</ele>
        <time>2014-01-05T09:32:39Z</time>
      </trkpt>
      <trkpt lat="42.95226" lon="-0.14983">
        <ele>1510.5560626822</ele>
        <time>2014-01-05T09:32:44Z</time>
      </trkpt>
      <trkpt lat="42.95223" lon="-0.14986">
        <ele>1510.5560626822</ele>
        <time>2014-01-05T09:32:49Z</time>
      </trkpt>
      <trkpt lat="42.95218" lon="-0.14985">
        <ele>1510.5560626822</ele>
        <time>2014-01-05T09:32:54Z</time>
      </trkpt>
      <trkpt lat="42.95213" lon="-0.14985">
        <ele>1512.3451850547</ele>
        <time>2014-01-05T09:32:59Z</time>
      </trkpt>
      <trkpt lat="42.95208" lon="-0.14986">
        <ele>1512.3451850547</ele>
        <time>2014-01-05T09:33:04Z</time>
      </trkpt>
      <trkpt lat="42.95203" lon="-0.14987">
        <ele>1513.9836965022</ele>
        <time>2014-01-05T09:33:09Z</time>
      </trkpt>
      <trkpt lat="42.95199" lon="-0.14985">
        <ele>1513.9836965022</ele>
        <time>2014-01-05T09:33:14Z</time>
      </trkpt>
      <trkpt lat="42.95194" lon="-0.14984">
        <ele>1515.468375007</ele>
        <time>2014-01-05T09:33:19Z</time>
      </trkpt>
      <trkpt lat="42.95192" lon="-0.14983">
        <ele>1515.468375007</ele>
        <time>2014-01-05T09:33:24Z</time>
      </trkpt>
      <trkpt lat="42.95189" lon="-0.14983">
        <ele>1515.468375007</ele>
        <time>2014-01-05T09:33:29Z</time>
      </trkpt>
      <trkpt lat="42.95185" lon="-0.14982">
        <ele>1516.6958342388</ele>
        <time>2014-01-05T09:33:34Z</time>
      </trkpt>
      <trkpt lat="42.95181" lon="-0.14981">
        <ele>1516.6958342388</ele>
        <time>2014-01-05T09:33:39Z</time>
      </trkpt>
      <trkpt lat="42.95181" lon="-0.14981">
        <ele>1516.6958342388</ele>
        <time>2014-01-05T09:33:44Z</time>
      </trkpt>
      <trkpt lat="42.95179" lon="-0.14973">
        <ele>1517.527810047</ele>
        <time>2014-01-05T09:34:28Z</time>
      </trkpt>
      <trkpt lat="42.9518" lon="-0.14972">
        <ele>1517.527810047</ele>
        <time>2014-01-05T09:34:33Z</time>
      </trkpt>
      <trkpt lat="42.95179" lon="-0.14974">
        <ele>1517.527810047</ele>
        <time>2014-01-05T09:37:38Z</time>
      </trkpt>
      <trkpt lat="42.95176" lon="-0.14972">
        <ele>1517.527810047</ele>
        <time>2014-01-05T09:37:43Z</time>
      </trkpt>
      <trkpt lat="42.95174" lon="-0.14969">
        <ele>1517.527810047</ele>
        <time>2014-01-05T09:37:48Z</time>
      </trkpt>
      <trkpt lat="42.95174" lon="-0.14969">
        <ele>1517.527810047</ele>
        <time>2014-01-05T09:37:53Z</time>
      </trkpt>
      <trkpt lat="42.95174" lon="-0.14966">
        <ele>1518.47142593</ele>
        <time>2014-01-05T09:40:38Z</time>
      </trkpt>
      <trkpt lat="42.9517" lon="-0.14965">
        <ele>1518.47142593</ele>
        <time>2014-01-05T09:40:43Z</time>
      </trkpt>
      <trkpt lat="42.9517" lon="-0.14965">
        <ele>1518.47142593</ele>
        <time>2014-01-05T09:40:48Z</time>
      </trkpt>
      <trkpt lat="42.95165" lon="-0.14956">
        <ele>1519.2324737587</ele>
        <time>2014-01-05T09:41:19Z</time>
      </trkpt>
      <trkpt lat="42.95164" lon="-0.14953">
        <ele>1519.2324737587</ele>
        <time>2014-01-05T09:41:24Z</time>
      </trkpt>
      <trkpt lat="42.95162" lon="-0.14948">
        <ele>1519.2324737587</ele>
        <time>2014-01-05T09:41:28Z</time>
      </trkpt>
      <trkpt lat="42.9516" lon="-0.14944">
        <ele>1519.8271069335</ele>
        <time>2014-01-05T09:41:34Z</time>
      </trkpt>
      <trkpt lat="42.95158" lon="-0.1494">
        <ele>1519.8271069335</ele>
        <time>2014-01-05T09:41:39Z</time>
      </trkpt>
      <trkpt lat="42.95155" lon="-0.14936">
        <ele>1519.8271069335</ele>
        <time>2014-01-05T09:41:43Z</time>
      </trkpt>
      <trkpt lat="42.95153" lon="-0.14932">
        <ele>1520.3284085557</ele>
        <time>2014-01-05T09:41:49Z</time>
      </trkpt>
      <trkpt lat="42.95151" lon="-0.14925">
        <ele>1520.3284085557</ele>
        <time>2014-01-05T09:41:54Z</time>
      </trkpt>
      <trkpt lat="42.95149" lon="-0.1492">
        <ele>1520.7467057093</ele>
        <time>2014-01-05T09:41:59Z</time>
      </trkpt>
      <trkpt lat="42.95146" lon="-0.14915">
        <ele>1520.7467057093</ele>
        <time>2014-01-05T09:42:04Z</time>
      </trkpt>
      <trkpt lat="42.95143" lon="-0.1491">
        <ele>1521.1206072812</ele>
        <time>2014-01-05T09:42:09Z</time>
      </trkpt>
      <trkpt lat="42.9514" lon="-0.14906">
        <ele>1521.1206072812</ele>
        <time>2014-01-05T09:42:14Z</time>
      </trkpt>
      <trkpt lat="42.95138" lon="-0.14902">
        <ele>1521.1206072812</ele>
        <time>2014-01-05T09:42:19Z</time>
      </trkpt>
      <trkpt lat="42.95137" lon="-0.149">
        <ele>1521.4427526324</ele>
        <time>2014-01-05T09:42:24Z</time>
      </trkpt>
      <trkpt lat="42.95132" lon="-0.14892">
        <ele>1521.4427526324</ele>
        <time>2014-01-05T09:42:29Z</time>
      </trkpt>
      <trkpt lat="42.95129" lon="-0.14888">
        <ele>1521.7496663254</ele>
        <time>2014-01-05T09:42:34Z</time>
      </trkpt>
      <trkpt lat="42.95128" lon="-0.14885">
        <ele>1521.7496663254</ele>
        <time>2014-01-05T09:42:39Z</time>
      </trkpt>
      <trkpt lat="42.95125" lon="-0.14881">
        <ele>1521.7496663254</ele>
        <time>2014-01-05T09:42:44Z</time>
      </trkpt>
      <trkpt lat="42.95122" lon="-0.14877">
        <ele>1522.1040118244</ele>
        <time>2014-01-05T09:42:49Z</time>
      </trkpt>
      <trkpt lat="42.95119" lon="-0.14874">
        <ele>1522.1040118244</ele>
        <time>2014-01-05T09:42:54Z</time>
      </trkpt>
      <trkpt lat="42.95117" lon="-0.1487">
        <ele>1522.1040118244</ele>
        <time>2014-01-05T09:42:59Z</time>
      </trkpt>
      <trkpt lat="42.95115" lon="-0.14866">
        <ele>1522.4916095411</ele>
        <time>2014-01-05T09:43:04Z</time>
      </trkpt>
      <trkpt lat="42.95111" lon="-0.14861">
        <ele>1522.4916095411</ele>
        <time>2014-01-05T09:43:09Z</time>
      </trkpt>
      <trkpt lat="42.95108" lon="-0.14858">
        <ele>1522.8703474164</ele>
        <time>2014-01-05T09:43:14Z</time>
      </trkpt>
      <trkpt lat="42.95105" lon="-0.14854">
        <ele>1522.8703474164</ele>
        <time>2014-01-05T09:43:19Z</time>
      </trkpt>
      <trkpt lat="42.95103" lon="-0.1485">
        <ele>1522.8703474164</ele>
        <time>2014-01-05T09:43:24Z</time>
      </trkpt>
      <trkpt lat="42.951" lon="-0.14846">
        <ele>1523.3452780078</ele>
        <time>2014-01-05T09:43:29Z</time>
      </trkpt>
      <trkpt lat="42.95098" lon="-0.14841">
        <ele>1523.3452780078</ele>
        <time>2014-01-05T09:43:34Z</time>
      </trkpt>
      <trkpt lat="42.95096" lon="-0.14837">
        <ele>1523.3452780078</ele>
        <time>2014-01-05T09:43:39Z</time>
      </trkpt>
      <trkpt lat="42.95092" lon="-0.14832">
        <ele>1523.8981077603</ele>
        <time>2014-01-05T09:43:44Z</time>
      </trkpt>
      <trkpt lat="42.95088" lon="-0.14827">
        <ele>1523.8981077603</ele>
        <time>2014-01-05T09:43:49Z</time>
      </trkpt>
      <trkpt lat="42.95086" lon="-0.14822">
        <ele>1524.4683605229</ele>
        <time>2014-01-05T09:43:54Z</time>
      </trkpt>
      <trkpt lat="42.95083" lon="-0.14819">
        <ele>1524.4683605229</ele>
        <time>2014-01-05T09:43:59Z</time>
      </trkpt>
      <trkpt lat="42.95081" lon="-0.14816">
        <ele>1524.4683605229</ele>
        <time>2014-01-05T09:44:03Z</time>
      </trkpt>
      <trkpt lat="42.95081" lon="-0.14816">
        <ele>1524.4683605229</ele>
        <time>2014-01-05T09:44:09Z</time>
      </trkpt>
      <trkpt lat="42.95078" lon="-0.1481">
        <ele>1525.6771994574</ele>
        <time>2014-01-05T09:45:28Z</time>
      </trkpt>
      <trkpt lat="42.95079" lon="-0.14809">
        <ele>1525.6771994574</ele>
        <time>2014-01-05T09:45:34Z</time>
      </trkpt>
      <trkpt lat="42.95077" lon="-0.14805">
        <ele>1525.6771994574</ele>
        <time>2014-01-05T09:47:03Z</time>
      </trkpt>
      <trkpt lat="42.95076" lon="-0.14802">
        <ele>1525.6771994574</ele>
        <time>2014-01-05T09:47:08Z</time>
      </trkpt>
      <trkpt lat="42.95074" lon="-0.14798">
        <ele>1527.1471552248</ele>
        <time>2014-01-05T09:47:13Z</time>
      </trkpt>
      <trkpt lat="42.95071" lon="-0.14794">
        <ele>1527.1471552248</ele>
        <time>2014-01-05T09:47:18Z</time>
      </trkpt>
      <trkpt lat="42.95068" lon="-0.14789">
        <ele>1527.1471552248</ele>
        <time>2014-01-05T09:47:23Z</time>
      </trkpt>
      <trkpt lat="42.95066" lon="-0.14783">
        <ele>1528.5132680685</ele>
        <time>2014-01-05T09:47:28Z</time>
      </trkpt>
      <trkpt lat="42.95064" lon="-0.14779">
        <ele>1528.5132680685</ele>
        <time>2014-01-05T09:47:33Z</time>
      </trkpt>
      <trkpt lat="42.95062" lon="-0.14774">
        <ele>1528.5132680685</ele>
        <time>2014-01-05T09:47:38Z</time>
      </trkpt>
      <trkpt lat="42.95062" lon="-0.14772">
        <ele>1529.7834738633</ele>
        <time>2014-01-05T09:47:43Z</time>
      </trkpt>
      <trkpt lat="42.95061" lon="-0.14765">
        <ele>1529.7834738633</ele>
        <time>2014-01-05T09:48:03Z</time>
      </trkpt>
      <trkpt lat="42.95059" lon="-0.14761">
        <ele>1529.7834738633</ele>
        <time>2014-01-05T09:48:08Z</time>
      </trkpt>
      <trkpt lat="42.9506" lon="-0.1476">
        <ele>1530.994148761</ele>
        <time>2014-01-05T09:48:13Z</time>
      </trkpt>
      <trkpt lat="42.95058" lon="-0.14753">
        <ele>1530.994148761</ele>
        <time>2014-01-05T09:48:58Z</time>
      </trkpt>
      <trkpt lat="42.95057" lon="-0.14748">
        <ele>1532.1646884458</ele>
        <time>2014-01-05T09:49:03Z</time>
      </trkpt>
      <trkpt lat="42.95056" lon="-0.14742">
        <ele>1532.1646884458</ele>
        <time>2014-01-05T09:49:08Z</time>
      </trkpt>
      <trkpt lat="42.95055" lon="-0.14736">
        <ele>1532.1646884458</ele>
        <time>2014-01-05T09:49:13Z</time>
      </trkpt>
      <trkpt lat="42.95054" lon="-0.14731">
        <ele>1533.2410597184</ele>
        <time>2014-01-05T09:49:18Z</time>
      </trkpt>
      <trkpt lat="42.95052" lon="-0.14724">
        <ele>1533.2410597184</ele>
        <time>2014-01-05T09:49:23Z</time>
      </trkpt>
      <trkpt lat="42.95051" lon="-0.14719">
        <ele>1534.288693164</ele>
        <time>2014-01-05T09:49:28Z</time>
      </trkpt>
      <trkpt lat="42.95051" lon="-0.14713">
        <ele>1534.288693164</ele>
        <time>2014-01-05T09:49:33Z</time>
      </trkpt>
      <trkpt lat="42.9505" lon="-0.14707">
        <ele>1534.288693164</ele>
        <time>2014-01-05T09:49:38Z</time>
      </trkpt>
      <trkpt lat="42.95049" lon="-0.14699">
        <ele>1535.3538259589</ele>
        <time>2014-01-05T09:49:43Z</time>
      </trkpt>
      <trkpt lat="42.95048" lon="-0.14694">
        <ele>1535.3538259589</ele>
        <time>2014-01-05T09:49:48Z</time>
      </trkpt>
      <trkpt lat="42.95048" lon="-0.14687">
        <ele>1536.349494921</ele>
        <time>2014-01-05T09:49:53Z</time>
      </trkpt>
      <trkpt lat="42.95048" lon="-0.14681">
        <ele>1536.349494921</ele>
        <time>2014-01-05T09:49:58Z</time>
      </trkpt>
      <trkpt lat="42.95047" lon="-0.14675">
        <ele>1536.349494921</ele>
        <time>2014-01-05T09:50:03Z</time>
      </trkpt>
      <trkpt lat="42.95048" lon="-0.14668">
        <ele>1537.4114337543</ele>
        <time>2014-01-05T09:50:08Z</time>
      </trkpt>
      <trkpt lat="42.95049" lon="-0.14662">
        <ele>1537.4114337543</ele>
        <time>2014-01-05T09:50:13Z</time>
      </trkpt>
      <trkpt lat="42.9505" lon="-0.14656">
        <ele>1538.4490011816</ele>
        <time>2014-01-05T09:50:18Z</time>
      </trkpt>
      <trkpt lat="42.95052" lon="-0.14649">
        <ele>1538.4490011816</ele>
        <time>2014-01-05T09:50:23Z</time>
      </trkpt>
      <trkpt lat="42.95053" lon="-0.14642">
        <ele>1539.4646996283</ele>
        <time>2014-01-05T09:50:28Z</time>
      </trkpt>
      <trkpt lat="42.95054" lon="-0.14636">
        <ele>1539.4646996283</ele>
        <time>2014-01-05T09:50:33Z</time>
      </trkpt>
      <trkpt lat="42.95055" lon="-0.14631">
        <ele>1540.4320384693</ele>
        <time>2014-01-05T09:50:38Z</time>
      </trkpt>
      <trkpt lat="42.95057" lon="-0.14624">
        <ele>1540.4320384693</ele>
        <time>2014-01-05T09:50:43Z</time>
      </trkpt>
      <trkpt lat="42.95057" lon="-0.14619">
        <ele>1541.441850848</ele>
        <time>2014-01-05T09:50:48Z</time>
      </trkpt>
      <trkpt lat="42.95059" lon="-0.14614">
        <ele>1541.441850848</ele>
        <time>2014-01-05T09:50:53Z</time>
      </trkpt>
      <trkpt lat="42.95059" lon="-0.14607">
        <ele>1542.4772550474</ele>
        <time>2014-01-05T09:50:58Z</time>
      </trkpt>
      <trkpt lat="42.9506" lon="-0.14601">
        <ele>1542.4772550474</ele>
        <time>2014-01-05T09:51:03Z</time>
      </trkpt>
      <trkpt lat="42.95061" lon="-0.14596">
        <ele>1542.4772550474</ele>
        <time>2014-01-05T09:51:08Z</time>
      </trkpt>
      <trkpt lat="42.95062" lon="-0.14591">
        <ele>1543.6377829838</ele>
        <time>2014-01-05T09:51:13Z</time>
      </trkpt>
      <trkpt lat="42.95062" lon="-0.14584">
        <ele>1543.6377829838</ele>
        <time>2014-01-05T09:51:18Z</time>
      </trkpt>
      <trkpt lat="42.95062" lon="-0.14578">
        <ele>1544.8423290044</ele>
        <time>2014-01-05T09:51:23Z</time>
      </trkpt>
      <trkpt lat="42.95062" lon="-0.14573">
        <ele>1544.8423290044</ele>
        <time>2014-01-05T09:51:28Z</time>
      </trkpt>
      <trkpt lat="42.95062" lon="-0.14568">
        <ele>1544.8423290044</ele>
        <time>2014-01-05T09:51:33Z</time>
      </trkpt>
      <trkpt lat="42.95061" lon="-0.14564">
        <ele>1546.2029275623</ele>
        <time>2014-01-05T09:51:38Z</time>
      </trkpt>
      <trkpt lat="42.9506" lon="-0.14558">
        <ele>1546.2029275623</ele>
        <time>2014-01-05T09:51:43Z</time>
      </trkpt>
      <trkpt lat="42.95059" lon="-0.14553">
        <ele>1546.2029275623</ele>
        <time>2014-01-05T09:51:48Z</time>
      </trkpt>
      <trkpt lat="42.95058" lon="-0.14547">
        <ele>1547.6067429627</ele>
        <time>2014-01-05T09:51:53Z</time>
      </trkpt>
      <trkpt lat="42.95056" lon="-0.14543">
        <ele>1547.6067429627</ele>
        <time>2014-01-05T09:51:58Z</time>
      </trkpt>
      <trkpt lat="42.95055" lon="-0.14538">
        <ele>1547.6067429627</ele>
        <time>2014-01-05T09:52:03Z</time>
      </trkpt>
      <trkpt lat="42.95054" lon="-0.14534">
        <ele>1549.0787754175</ele>
        <time>2014-01-05T09:52:08Z</time>
      </trkpt>
      <trkpt lat="42.95052" lon="-0.14528">
        <ele>1549.0787754175</ele>
        <time>2014-01-05T09:52:13Z</time>
      </trkpt>
      <trkpt lat="42.9505" lon="-0.14522">
        <ele>1550.5555030557</ele>
        <time>2014-01-05T09:52:18Z</time>
      </trkpt>
      <trkpt lat="42.95049" lon="-0.14516">
        <ele>1550.5555030557</ele>
        <time>2014-01-05T09:52:23Z</time>
      </trkpt>
      <trkpt lat="42.95047" lon="-0.14511">
        <ele>1550.5555030557</ele>
        <time>2014-01-05T09:52:28Z</time>
      </trkpt>
      <trkpt lat="42.95046" lon="-0.14506">
        <ele>1552.0933230902</ele>
        <time>2014-01-05T09:52:33Z</time>
      </trkpt>
      <trkpt lat="42.95044" lon="-0.14501">
        <ele>1552.0933230902</ele>
        <time>2014-01-05T09:52:38Z</time>
      </trkpt>
      <trkpt lat="42.95043" lon="-0.14496">
        <ele>1552.0933230902</ele>
        <time>2014-01-05T09:52:43Z</time>
      </trkpt>
      <trkpt lat="42.95042" lon="-0.1449">
        <ele>1553.7875336694</ele>
        <time>2014-01-05T09:52:48Z</time>
      </trkpt>
      <trkpt lat="42.95041" lon="-0.14483">
        <ele>1553.7875336694</ele>
        <time>2014-01-05T09:52:53Z</time>
      </trkpt>
      <trkpt lat="42.9504" lon="-0.14478">
        <ele>1555.4954026598</ele>
        <time>2014-01-05T09:52:58Z</time>
      </trkpt>
      <trkpt lat="42.95039" lon="-0.14471">
        <ele>1555.4954026598</ele>
        <time>2014-01-05T09:53:03Z</time>
      </trkpt>
      <trkpt lat="42.95038" lon="-0.14465">
        <ele>1557.199925523</ele>
        <time>2014-01-05T09:53:08Z</time>
      </trkpt>
      <trkpt lat="42.95037" lon="-0.14459">
        <ele>1557.199925523</ele>
        <time>2014-01-05T09:53:13Z</time>
      </trkpt>
      <trkpt lat="42.95036" lon="-0.14454">
        <ele>1557.199925523</ele>
        <time>2014-01-05T09:53:18Z</time>
      </trkpt>
      <trkpt lat="42.95036" lon="-0.14448">
        <ele>1559.0150536088</ele>
        <time>2014-01-05T09:53:23Z</time>
      </trkpt>
      <trkpt lat="42.95035" lon="-0.14443">
        <ele>1559.0150536088</ele>
        <time>2014-01-05T09:53:28Z</time>
      </trkpt>
      <trkpt lat="42.95034" lon="-0.14437">
        <ele>1559.0150536088</ele>
        <time>2014-01-05T09:53:33Z</time>
      </trkpt>
      <trkpt lat="42.95033" lon="-0.14431">
        <ele>1560.8731264972</ele>
        <time>2014-01-05T09:53:38Z</time>
      </trkpt>
      <trkpt lat="42.95032" lon="-0.14425">
        <ele>1560.8731264972</ele>
        <time>2014-01-05T09:53:43Z</time>
      </trkpt>
      <trkpt lat="42.95031" lon="-0.14419">
        <ele>1560.8731264972</ele>
        <time>2014-01-05T09:53:48Z</time>
      </trkpt>
      <trkpt lat="42.95031" lon="-0.14414">
        <ele>1562.7833972584</ele>
        <time>2014-01-05T09:53:53Z</time>
      </trkpt>
      <trkpt lat="42.9503" lon="-0.14407">
        <ele>1562.7833972584</ele>
        <time>2014-01-05T09:53:58Z</time>
      </trkpt>
      <trkpt lat="42.95031" lon="-0.14401">
        <ele>1564.6534283166</ele>
        <time>2014-01-05T09:54:03Z</time>
      </trkpt>
      <trkpt lat="42.9503" lon="-0.14396">
        <ele>1564.6534283166</ele>
        <time>2014-01-05T09:54:08Z</time>
      </trkpt>
      <trkpt lat="42.9503" lon="-0.1439">
        <ele>1564.6534283166</ele>
        <time>2014-01-05T09:54:13Z</time>
      </trkpt>
      <trkpt lat="42.9503" lon="-0.14383">
        <ele>1566.5850484337</ele>
        <time>2014-01-05T09:54:18Z</time>
      </trkpt>
      <trkpt lat="42.9503" lon="-0.14378">
        <ele>1566.5850484337</ele>
        <time>2014-01-05T09:54:23Z</time>
      </trkpt>
      <trkpt lat="42.9503" lon="-0.14371">
        <ele>1568.5139344605</ele>
        <time>2014-01-05T09:54:28Z</time>
      </trkpt>
      <trkpt lat="42.9503" lon="-0.14365">
        <ele>1568.5139344605</ele>
        <time>2014-01-05T09:54:33Z</time>
      </trkpt>
      <trkpt lat="42.9503" lon="-0.14359">
        <ele>1568.5139344605</ele>
        <time>2014-01-05T09:54:38Z</time>
      </trkpt>
      <trkpt lat="42.9503" lon="-0.14354">
        <ele>1570.5102242285</ele>
        <time>2014-01-05T09:54:43Z</time>
      </trkpt>
      <trkpt lat="42.95029" lon="-0.14348">
        <ele>1570.5102242285</ele>
        <time>2014-01-05T09:54:48Z</time>
      </trkpt>
      <trkpt lat="42.95029" lon="-0.14342">
        <ele>1570.5102242285</ele>
        <time>2014-01-05T09:54:53Z</time>
      </trkpt>
      <trkpt lat="42.95029" lon="-0.14336">
        <ele>1572.5234578135</ele>
        <time>2014-01-05T09:54:58Z</time>
      </trkpt>
      <trkpt lat="42.9503" lon="-0.14331">
        <ele>1572.5234578135</ele>
        <time>2014-01-05T09:55:03Z</time>
      </trkpt>
      <trkpt lat="42.9503" lon="-0.14325">
        <ele>1572.5234578135</ele>
        <time>2014-01-05T09:55:08Z</time>
      </trkpt>
      <trkpt lat="42.95031" lon="-0.1432">
        <ele>1574.5212823875</ele>
        <time>2014-01-05T09:55:13Z</time>
      </trkpt>
      <trkpt lat="42.95031" lon="-0.14314">
        <ele>1574.5212823875</ele>
        <time>2014-01-05T09:55:18Z</time>
      </trkpt>
      <trkpt lat="42.95032" lon="-0.14308">
        <ele>1574.5212823875</ele>
        <time>2014-01-05T09:55:23Z</time>
      </trkpt>
      <trkpt lat="42.95032" lon="-0.14303">
        <ele>1576.5458612732</ele>
        <time>2014-01-05T09:55:28Z</time>
      </trkpt>
      <trkpt lat="42.95033" lon="-0.14297">
        <ele>1576.5458612732</ele>
        <time>2014-01-05T09:55:33Z</time>
      </trkpt>
      <trkpt lat="42.95034" lon="-0.14291">
        <ele>1576.5458612732</ele>
        <time>2014-01-05T09:55:38Z</time>
      </trkpt>
      <trkpt lat="42.95036" lon="-0.14285">
        <ele>1578.6650522352</ele>
        <time>2014-01-05T09:55:43Z</time>
      </trkpt>
      <trkpt lat="42.95036" lon="-0.14279">
        <ele>1578.6650522352</ele>
        <time>2014-01-05T09:55:48Z</time>
      </trkpt>
      <trkpt lat="42.95037" lon="-0.14274">
        <ele>1578.6650522352</ele>
        <time>2014-01-05T09:55:53Z</time>
      </trkpt>
      <trkpt lat="42.95037" lon="-0.14268">
        <ele>1580.7541663982</ele>
        <time>2014-01-05T09:55:58Z</time>
      </trkpt>
      <trkpt lat="42.95037" lon="-0.14263">
        <ele>1580.7541663982</ele>
        <time>2014-01-05T09:56:03Z</time>
      </trkpt>
      <trkpt lat="42.95038" lon="-0.14258">
        <ele>1580.7541663982</ele>
        <time>2014-01-05T09:56:08Z</time>
      </trkpt>
      <trkpt lat="42.95038" lon="-0.14252">
        <ele>1582.856332524</ele>
        <time>2014-01-05T09:56:13Z</time>
      </trkpt>
      <trkpt lat="42.95038" lon="-0.14247">
        <ele>1582.856332524</ele>
        <time>2014-01-05T09:56:18Z</time>
      </trkpt>
      <trkpt lat="42.95039" lon="-0.14241">
        <ele>1582.856332524</ele>
        <time>2014-01-05T09:56:23Z</time>
      </trkpt>
      <trkpt lat="42.95039" lon="-0.14235">
        <ele>1584.9827068568</ele>
        <time>2014-01-05T09:56:28Z</time>
      </trkpt>
      <trkpt lat="42.95038" lon="-0.14229">
        <ele>1584.9827068568</ele>
        <time>2014-01-05T09:56:33Z</time>
      </trkpt>
      <trkpt lat="42.95037" lon="-0.14224">
        <ele>1584.9827068568</ele>
        <time>2014-01-05T09:56:38Z</time>
      </trkpt>
      <trkpt lat="42.95038" lon="-0.14219">
        <ele>1587.0859710973</ele>
        <time>2014-01-05T09:56:43Z</time>
      </trkpt>
      <trkpt lat="42.95038" lon="-0.14213">
        <ele>1587.0859710973</ele>
        <time>2014-01-05T09:56:48Z</time>
      </trkpt>
      <trkpt lat="42.95037" lon="-0.14207">
        <ele>1587.0859710973</ele>
        <time>2014-01-05T09:56:53Z</time>
      </trkpt>
      <trkpt lat="42.95038" lon="-0.142">
        <ele>1589.1656408612</ele>
        <time>2014-01-05T09:56:58Z</time>
      </trkpt>
      <trkpt lat="42.95038" lon="-0.14194">
        <ele>1589.1656408612</ele>
        <time>2014-01-05T09:57:03Z</time>
      </trkpt>
      <trkpt lat="42.95038" lon="-0.14188">
        <ele>1591.2213952728</ele>
        <time>2014-01-05T09:57:08Z</time>
      </trkpt>
      <trkpt lat="42.95038" lon="-0.14181">
        <ele>1591.2213952728</ele>
        <time>2014-01-05T09:57:13Z</time>
      </trkpt>
      <trkpt lat="42.95038" lon="-0.14176">
        <ele>1591.2213952728</ele>
        <time>2014-01-05T09:57:18Z</time>
      </trkpt>
      <trkpt lat="42.95038" lon="-0.1417">
        <ele>1593.2818896409</ele>
        <time>2014-01-05T09:57:23Z</time>
      </trkpt>
      <trkpt lat="42.95037" lon="-0.14167">
        <ele>1593.2818896409</ele>
        <time>2014-01-05T09:57:28Z</time>
      </trkpt>
      <trkpt lat="42.95037" lon="-0.14167">
        <ele>1593.2818896409</ele>
        <time>2014-01-05T09:57:33Z</time>
      </trkpt>
      <trkpt lat="42.95036" lon="-0.14162">
        <ele>1593.2818896409</ele>
        <time>2014-01-05T09:57:48Z</time>
      </trkpt>
      <trkpt lat="42.95036" lon="-0.14157">
        <ele>1595.0422691829</ele>
        <time>2014-01-05T09:57:53Z</time>
      </trkpt>
      <trkpt lat="42.95035" lon="-0.14153">
        <ele>1595.0422691829</ele>
        <time>2014-01-05T09:57:58Z</time>
      </trkpt>
      <trkpt lat="42.95034" lon="-0.14147">
        <ele>1595.0422691829</ele>
        <time>2014-01-05T09:58:03Z</time>
      </trkpt>
      <trkpt lat="42.95032" lon="-0.1414">
        <ele>1596.5236122237</ele>
        <time>2014-01-05T09:58:08Z</time>
      </trkpt>
      <trkpt lat="42.95031" lon="-0.14135">
        <ele>1596.5236122237</ele>
        <time>2014-01-05T09:58:13Z</time>
      </trkpt>
      <trkpt lat="42.9503" lon="-0.1413">
        <ele>1596.5236122237</ele>
        <time>2014-01-05T09:58:18Z</time>
      </trkpt>
      <trkpt lat="42.9503" lon="-0.14129">
        <ele>1596.5236122237</ele>
        <time>2014-01-05T09:58:23Z</time>
      </trkpt>
      <trkpt lat="42.95028" lon="-0.14127">
        <ele>1597.6598257036</ele>
        <time>2014-01-05T09:58:33Z</time>
      </trkpt>
      <trkpt lat="42.95025" lon="-0.14119">
        <ele>1597.6598257036</ele>
        <time>2014-01-05T10:03:03Z</time>
      </trkpt>
      <trkpt lat="42.95026" lon="-0.14115">
        <ele>1597.9583619001</ele>
        <time>2014-01-05T10:03:08Z</time>
      </trkpt>
      <trkpt lat="42.95026" lon="-0.14109">
        <ele>1597.9583619001</ele>
        <time>2014-01-05T10:03:13Z</time>
      </trkpt>
      <trkpt lat="42.95025" lon="-0.14106">
        <ele>1597.9583619001</ele>
        <time>2014-01-05T10:03:18Z</time>
      </trkpt>
      <trkpt lat="42.95025" lon="-0.14103">
        <ele>1597.9583619001</ele>
        <time>2014-01-05T10:03:23Z</time>
      </trkpt>
      <trkpt lat="42.95024" lon="-0.14104">
        <ele>1598.1325530133</ele>
        <time>2014-01-05T10:03:28Z</time>
      </trkpt>
      <trkpt lat="42.95021" lon="-0.1409">
        <ele>1598.12315954</ele>
        <time>2014-01-05T10:03:58Z</time>
      </trkpt>
      <trkpt lat="42.95023" lon="-0.14087">
        <ele>1598.12315954</ele>
        <time>2014-01-05T10:04:03Z</time>
      </trkpt>
      <trkpt lat="42.95025" lon="-0.14083">
        <ele>1598.12315954</ele>
        <time>2014-01-05T10:04:08Z</time>
      </trkpt>
      <trkpt lat="42.95026" lon="-0.14078">
        <ele>1597.9767096135</ele>
        <time>2014-01-05T10:04:13Z</time>
      </trkpt>
      <trkpt lat="42.95027" lon="-0.14074">
        <ele>1597.9767096135</ele>
        <time>2014-01-05T10:04:18Z</time>
      </trkpt>
      <trkpt lat="42.95028" lon="-0.1407">
        <ele>1597.9767096135</ele>
        <time>2014-01-05T10:04:23Z</time>
      </trkpt>
      <trkpt lat="42.95031" lon="-0.14066">
        <ele>1597.7655289841</ele>
        <time>2014-01-05T10:04:28Z</time>
      </trkpt>
      <trkpt lat="42.95031" lon="-0.14064">
        <ele>1597.7655289841</ele>
        <time>2014-01-05T10:04:33Z</time>
      </trkpt>
      <trkpt lat="42.95029" lon="-0.14059">
        <ele>1597.7655289841</ele>
        <time>2014-01-05T10:04:38Z</time>
      </trkpt>
      <trkpt lat="42.95028" lon="-0.14057">
        <ele>1597.7655289841</ele>
        <time>2014-01-05T10:04:43Z</time>
      </trkpt>
      <trkpt lat="42.95025" lon="-0.14057">
        <ele>1597.5568066932</ele>
        <time>2014-01-05T10:04:48Z</time>
      </trkpt>
      <trkpt lat="42.95023" lon="-0.14056">
        <ele>1597.5568066932</ele>
        <time>2014-01-05T10:04:53Z</time>
      </trkpt>
      <trkpt lat="42.95022" lon="-0.14056">
        <ele>1597.5568066932</ele>
        <time>2014-01-05T10:04:58Z</time>
      </trkpt>
      <trkpt lat="42.95018" lon="-0.14052">
        <ele>1597.5568066932</ele>
        <time>2014-01-05T10:05:08Z</time>
      </trkpt>
      <trkpt lat="42.95017" lon="-0.14051">
        <ele>1597.3407146513</ele>
        <time>2014-01-05T10:05:13Z</time>
      </trkpt>
      <trkpt lat="42.95013" lon="-0.14047">
        <ele>1597.3407146513</ele>
        <time>2014-01-05T10:05:18Z</time>
      </trkpt>
      <trkpt lat="42.95011" lon="-0.14044">
        <ele>1597.3407146513</ele>
        <time>2014-01-05T10:05:23Z</time>
      </trkpt>
      <trkpt lat="42.95009" lon="-0.14041">
        <ele>1597.2234246197</ele>
        <time>2014-01-05T10:05:28Z</time>
      </trkpt>
      <trkpt lat="42.95007" lon="-0.1404">
        <ele>1597.2234246197</ele>
        <time>2014-01-05T10:05:33Z</time>
      </trkpt>
      <trkpt lat="42.95005" lon="-0.14034">
        <ele>1597.2234246197</ele>
        <time>2014-01-05T10:05:38Z</time>
      </trkpt>
      <trkpt lat="42.95004" lon="-0.1403">
        <ele>1597.1444662992</ele>
        <time>2014-01-05T10:05:43Z</time>
      </trkpt>
      <trkpt lat="42.95" lon="-0.14028">
        <ele>1597.1444662992</ele>
        <time>2014-01-05T10:05:48Z</time>
      </trkpt>
      <trkpt lat="42.94998" lon="-0.14027">
        <ele>1597.1444662992</ele>
        <time>2014-01-05T10:05:53Z</time>
      </trkpt>
      <trkpt lat="42.94996" lon="-0.14024">
        <ele>1597.177350608</ele>
        <time>2014-01-05T10:05:58Z</time>
      </trkpt>
      <trkpt lat="42.94995" lon="-0.14025">
        <ele>1597.177350608</ele>
        <time>2014-01-05T10:06:03Z</time>
      </trkpt>
      <trkpt lat="42.94995" lon="-0.14021">
        <ele>1597.177350608</ele>
        <time>2014-01-05T10:06:08Z</time>
      </trkpt>
      <trkpt lat="42.94995" lon="-0.14021">
        <ele>1597.177350608</ele>
        <time>2014-01-05T10:06:13Z</time>
      </trkpt>
      <trkpt lat="42.94991" lon="-0.1401">
        <ele>1597.7212690321</ele>
        <time>2014-01-05T10:07:03Z</time>
      </trkpt>
      <trkpt lat="42.94991" lon="-0.14009">
        <ele>1597.7212690321</ele>
        <time>2014-01-05T10:07:08Z</time>
      </trkpt>
      <trkpt lat="42.9499" lon="-0.14003">
        <ele>1597.7212690321</ele>
        <time>2014-01-05T10:07:23Z</time>
      </trkpt>
      <trkpt lat="42.9499" lon="-0.13999">
        <ele>1597.7212690321</ele>
        <time>2014-01-05T10:07:28Z</time>
      </trkpt>
      <trkpt lat="42.9499" lon="-0.13996">
        <ele>1598.3231542707</ele>
        <time>2014-01-05T10:07:33Z</time>
      </trkpt>
      <trkpt lat="42.94989" lon="-0.13993">
        <ele>1598.3231542707</ele>
        <time>2014-01-05T10:07:38Z</time>
      </trkpt>
      <trkpt lat="42.94989" lon="-0.13989">
        <ele>1598.3231542707</ele>
        <time>2014-01-05T10:07:43Z</time>
      </trkpt>
      <trkpt lat="42.94989" lon="-0.13982">
        <ele>1598.9088542615</ele>
        <time>2014-01-05T10:07:48Z</time>
      </trkpt>
      <trkpt lat="42.94991" lon="-0.13981">
        <ele>1598.9088542615</ele>
        <time>2014-01-05T10:07:53Z</time>
      </trkpt>
      <trkpt lat="42.94993" lon="-0.1398">
        <ele>1598.9088542615</ele>
        <time>2014-01-05T10:07:58Z</time>
      </trkpt>
      <trkpt lat="42.94995" lon="-0.13978">
        <ele>1598.9088542615</ele>
        <time>2014-01-05T10:08:03Z</time>
      </trkpt>
      <trkpt lat="42.94999" lon="-0.13978">
        <ele>1599.3808140111</ele>
        <time>2014-01-05T10:08:08Z</time>
      </trkpt>
      <trkpt lat="42.95" lon="-0.13975">
        <ele>1599.3808140111</ele>
        <time>2014-01-05T10:08:13Z</time>
      </trkpt>
      <trkpt lat="42.95002" lon="-0.13972">
        <ele>1599.3808140111</ele>
        <time>2014-01-05T10:08:18Z</time>
      </trkpt>
      <trkpt lat="42.95003" lon="-0.13972">
        <ele>1599.3808140111</ele>
        <time>2014-01-05T10:08:23Z</time>
      </trkpt>
      <trkpt lat="42.95002" lon="-0.13969">
        <ele>1599.3808140111</ele>
        <time>2014-01-05T10:08:28Z</time>
      </trkpt>
      <trkpt lat="42.95002" lon="-0.13965">
        <ele>1599.9227007579</ele>
        <time>2014-01-05T10:08:33Z</time>
      </trkpt>
      <trkpt lat="42.95002" lon="-0.13962">
        <ele>1599.9227007579</ele>
        <time>2014-01-05T10:08:38Z</time>
      </trkpt>
      <trkpt lat="42.95006" lon="-0.13957">
        <ele>1599.9227007579</ele>
        <time>2014-01-05T10:08:48Z</time>
      </trkpt>
      <trkpt lat="42.95009" lon="-0.13954">
        <ele>1600.4882514791</ele>
        <time>2014-01-05T10:08:53Z</time>
      </trkpt>
      <trkpt lat="42.9501" lon="-0.13951">
        <ele>1600.4882514791</ele>
        <time>2014-01-05T10:08:58Z</time>
      </trkpt>
      <trkpt lat="42.95012" lon="-0.13948">
        <ele>1600.4882514791</ele>
        <time>2014-01-05T10:09:03Z</time>
      </trkpt>
      <trkpt lat="42.95016" lon="-0.13946">
        <ele>1600.9912258603</ele>
        <time>2014-01-05T10:09:08Z</time>
      </trkpt>
      <trkpt lat="42.9502" lon="-0.13944">
        <ele>1600.9912258603</ele>
        <time>2014-01-05T10:09:13Z</time>
      </trkpt>
      <trkpt lat="42.95023" lon="-0.13943">
        <ele>1600.9912258603</ele>
        <time>2014-01-05T10:09:18Z</time>
      </trkpt>
      <trkpt lat="42.95027" lon="-0.13942">
        <ele>1601.5247512202</ele>
        <time>2014-01-05T10:09:23Z</time>
      </trkpt>
      <trkpt lat="42.95029" lon="-0.13938">
        <ele>1601.5247512202</ele>
        <time>2014-01-05T10:09:28Z</time>
      </trkpt>
      <trkpt lat="42.9503" lon="-0.13933">
        <ele>1601.5247512202</ele>
        <time>2014-01-05T10:09:33Z</time>
      </trkpt>
      <trkpt lat="42.95031" lon="-0.13931">
        <ele>1602.0740736883</ele>
        <time>2014-01-05T10:09:38Z</time>
      </trkpt>
      <trkpt lat="42.95034" lon="-0.13926">
        <ele>1602.0740736883</ele>
        <time>2014-01-05T10:09:43Z</time>
      </trkpt>
      <trkpt lat="42.95037" lon="-0.13921">
        <ele>1602.6398135622</ele>
        <time>2014-01-05T10:09:48Z</time>
      </trkpt>
      <trkpt lat="42.95038" lon="-0.13918">
        <ele>1602.6398135622</ele>
        <time>2014-01-05T10:09:53Z</time>
      </trkpt>
      <trkpt lat="42.95038" lon="-0.13913">
        <ele>1602.6398135622</ele>
        <time>2014-01-05T10:09:58Z</time>
      </trkpt>
      <trkpt lat="42.95038" lon="-0.13907">
        <ele>1603.2656569237</ele>
        <time>2014-01-05T10:10:03Z</time>
      </trkpt>
      <trkpt lat="42.95037" lon="-0.13903">
        <ele>1603.2656569237</ele>
        <time>2014-01-05T10:10:08Z</time>
      </trkpt>
      <trkpt lat="42.95035" lon="-0.13898">
        <ele>1603.2656569237</ele>
        <time>2014-01-05T10:10:13Z</time>
      </trkpt>
      <trkpt lat="42.95035" lon="-0.13894">
        <ele>1603.9486037792</ele>
        <time>2014-01-05T10:10:18Z</time>
      </trkpt>
      <trkpt lat="42.95035" lon="-0.13889">
        <ele>1603.9486037792</ele>
        <time>2014-01-05T10:10:23Z</time>
      </trkpt>
      <trkpt lat="42.95037" lon="-0.13885">
        <ele>1603.9486037792</ele>
        <time>2014-01-05T10:10:28Z</time>
      </trkpt>
      <trkpt lat="42.95037" lon="-0.13878">
        <ele>1604.8009299701</ele>
        <time>2014-01-05T10:10:33Z</time>
      </trkpt>
      <trkpt lat="42.95037" lon="-0.13873">
        <ele>1604.8009299701</ele>
        <time>2014-01-05T10:10:38Z</time>
      </trkpt>
      <trkpt lat="42.95038" lon="-0.13868">
        <ele>1604.8009299701</ele>
        <time>2014-01-05T10:10:43Z</time>
      </trkpt>
      <trkpt lat="42.9504" lon="-0.13864">
        <ele>1605.7531842129</ele>
        <time>2014-01-05T10:10:48Z</time>
      </trkpt>
      <trkpt lat="42.95041" lon="-0.13858">
        <ele>1605.7531842129</ele>
        <time>2014-01-05T10:10:53Z</time>
      </trkpt>
      <trkpt lat="42.95042" lon="-0.13854">
        <ele>1605.7531842129</ele>
        <time>2014-01-05T10:10:58Z</time>
      </trkpt>
      <trkpt lat="42.95044" lon="-0.13848">
        <ele>1606.7839025256</ele>
        <time>2014-01-05T10:11:03Z</time>
      </trkpt>
      <trkpt lat="42.95045" lon="-0.13845">
        <ele>1606.7839025256</ele>
        <time>2014-01-05T10:11:09Z</time>
      </trkpt>
      <trkpt lat="42.95047" lon="-0.1384">
        <ele>1606.7839025256</ele>
        <time>2014-01-05T10:11:14Z</time>
      </trkpt>
      <trkpt lat="42.95049" lon="-0.13832">
        <ele>1607.8585028893</ele>
        <time>2014-01-05T10:11:18Z</time>
      </trkpt>
      <trkpt lat="42.95049" lon="-0.13826">
        <ele>1607.8585028893</ele>
        <time>2014-01-05T10:11:23Z</time>
      </trkpt>
      <trkpt lat="42.95051" lon="-0.1382">
        <ele>1609.0600507441</ele>
        <time>2014-01-05T10:11:28Z</time>
      </trkpt>
      <trkpt lat="42.95052" lon="-0.13816">
        <ele>1609.0600507441</ele>
        <time>2014-01-05T10:11:33Z</time>
      </trkpt>
      <trkpt lat="42.95053" lon="-0.13812">
        <ele>1609.0600507441</ele>
        <time>2014-01-05T10:11:38Z</time>
      </trkpt>
      <trkpt lat="42.95053" lon="-0.13809">
        <ele>1609.0600507441</ele>
        <time>2014-01-05T10:11:43Z</time>
      </trkpt>
      <trkpt lat="42.95056" lon="-0.13803">
        <ele>1610.6668562121</ele>
        <time>2014-01-05T10:11:48Z</time>
      </trkpt>
      <trkpt lat="42.95057" lon="-0.13799">
        <ele>1610.6668562121</ele>
        <time>2014-01-05T10:11:53Z</time>
      </trkpt>
      <trkpt lat="42.95059" lon="-0.13795">
        <ele>1610.6668562121</ele>
        <time>2014-01-05T10:11:58Z</time>
      </trkpt>
      <trkpt lat="42.9506" lon="-0.1379">
        <ele>1612.5032686337</ele>
        <time>2014-01-05T10:12:03Z</time>
      </trkpt>
      <trkpt lat="42.95058" lon="-0.13783">
        <ele>1612.5032686337</ele>
        <time>2014-01-05T10:12:08Z</time>
      </trkpt>
      <trkpt lat="42.95059" lon="-0.13775">
        <ele>1614.4779143678</ele>
        <time>2014-01-05T10:12:13Z</time>
      </trkpt>
      <trkpt lat="42.9506" lon="-0.13768">
        <ele>1614.4779143678</ele>
        <time>2014-01-05T10:12:18Z</time>
      </trkpt>
      <trkpt lat="42.95064" lon="-0.13764">
        <ele>1616.5201272265</ele>
        <time>2014-01-05T10:12:23Z</time>
      </trkpt>
      <trkpt lat="42.95066" lon="-0.13758">
        <ele>1616.5201272265</ele>
        <time>2014-01-05T10:12:28Z</time>
      </trkpt>
      <trkpt lat="42.95068" lon="-0.13753">
        <ele>1618.5930469821</ele>
        <time>2014-01-05T10:12:33Z</time>
      </trkpt>
      <trkpt lat="42.95071" lon="-0.13748">
        <ele>1618.5930469821</ele>
        <time>2014-01-05T10:12:38Z</time>
      </trkpt>
      <trkpt lat="42.95074" lon="-0.13743">
        <ele>1620.7921277844</ele>
        <time>2014-01-05T10:12:43Z</time>
      </trkpt>
      <trkpt lat="42.95075" lon="-0.13737">
        <ele>1620.7921277844</ele>
        <time>2014-01-05T10:12:48Z</time>
      </trkpt>
      <trkpt lat="42.95077" lon="-0.13734">
        <ele>1620.7921277844</ele>
        <time>2014-01-05T10:12:53Z</time>
      </trkpt>
      <trkpt lat="42.9508" lon="-0.13731">
        <ele>1623.1478167377</ele>
        <time>2014-01-05T10:12:58Z</time>
      </trkpt>
      <trkpt lat="42.95086" lon="-0.1373">
        <ele>1623.1478167377</ele>
        <time>2014-01-05T10:13:03Z</time>
      </trkpt>
      <trkpt lat="42.95089" lon="-0.13728">
        <ele>1625.5870210725</ele>
        <time>2014-01-05T10:13:08Z</time>
      </trkpt>
      <trkpt lat="42.95093" lon="-0.13726">
        <ele>1625.5870210725</ele>
        <time>2014-01-05T10:13:13Z</time>
      </trkpt>
      <trkpt lat="42.95099" lon="-0.13724">
        <ele>1627.9841628834</ele>
        <time>2014-01-05T10:13:18Z</time>
      </trkpt>
      <trkpt lat="42.95101" lon="-0.13719">
        <ele>1627.9841628834</ele>
        <time>2014-01-05T10:13:23Z</time>
      </trkpt>
      <trkpt lat="42.95104" lon="-0.13717">
        <ele>1627.9841628834</ele>
        <time>2014-01-05T10:13:28Z</time>
      </trkpt>
      <trkpt lat="42.95107" lon="-0.13715">
        <ele>1630.6986089059</ele>
        <time>2014-01-05T10:13:33Z</time>
      </trkpt>
      <trkpt lat="42.95109" lon="-0.13716">
        <ele>1630.6986089059</ele>
        <time>2014-01-05T10:13:38Z</time>
      </trkpt>
      <trkpt lat="42.95109" lon="-0.13715">
        <ele>1630.6986089059</ele>
        <time>2014-01-05T10:13:43Z</time>
      </trkpt>
      <trkpt lat="42.9511" lon="-0.13711">
        <ele>1630.6986089059</ele>
        <time>2014-01-05T10:13:48Z</time>
      </trkpt>
      <trkpt lat="42.95107" lon="-0.13707">
        <ele>1633.4428042746</ele>
        <time>2014-01-05T10:13:53Z</time>
      </trkpt>
      <trkpt lat="42.95106" lon="-0.13704">
        <ele>1633.4428042746</ele>
        <time>2014-01-05T10:13:58Z</time>
      </trkpt>
      <trkpt lat="42.95106" lon="-0.13693">
        <ele>1636.6132020899</ele>
        <time>2014-01-05T10:16:43Z</time>
      </trkpt>
      <trkpt lat="42.95108" lon="-0.13688">
        <ele>1636.6132020899</ele>
        <time>2014-01-05T10:16:48Z</time>
      </trkpt>
      <trkpt lat="42.95111" lon="-0.13683">
        <ele>1639.4663477506</ele>
        <time>2014-01-05T10:16:53Z</time>
      </trkpt>
      <trkpt lat="42.95116" lon="-0.13678">
        <ele>1639.4663477506</ele>
        <time>2014-01-05T10:16:58Z</time>
      </trkpt>
      <trkpt lat="42.95122" lon="-0.13672">
        <ele>1642.0205122889</ele>
        <time>2014-01-05T10:17:03Z</time>
      </trkpt>
      <trkpt lat="42.95126" lon="-0.13665">
        <ele>1642.0205122889</ele>
        <time>2014-01-05T10:17:08Z</time>
      </trkpt>
      <trkpt lat="42.95125" lon="-0.13661">
        <ele>1644.2791377624</ele>
        <time>2014-01-05T10:17:13Z</time>
      </trkpt>
      <trkpt lat="42.95128" lon="-0.13657">
        <ele>1644.2791377624</ele>
        <time>2014-01-05T10:17:18Z</time>
      </trkpt>
      <trkpt lat="42.9513" lon="-0.13653">
        <ele>1644.2791377624</ele>
        <time>2014-01-05T10:17:23Z</time>
      </trkpt>
      <trkpt lat="42.95132" lon="-0.1365">
        <ele>1646.2751562519</ele>
        <time>2014-01-05T10:17:28Z</time>
      </trkpt>
      <trkpt lat="42.95134" lon="-0.13646">
        <ele>1646.2751562519</ele>
        <time>2014-01-05T10:17:33Z</time>
      </trkpt>
      <trkpt lat="42.95135" lon="-0.13643">
        <ele>1646.2751562519</ele>
        <time>2014-01-05T10:17:38Z</time>
      </trkpt>
      <trkpt lat="42.95134" lon="-0.1364">
        <ele>1646.2751562519</ele>
        <time>2014-01-05T10:17:43Z</time>
      </trkpt>
      <trkpt lat="42.95134" lon="-0.13638">
        <ele>1647.9966783539</ele>
        <time>2014-01-05T10:17:49Z</time>
      </trkpt>
      <trkpt lat="42.95137" lon="-0.13634">
        <ele>1647.9966783539</ele>
        <time>2014-01-05T10:17:53Z</time>
      </trkpt>
      <trkpt lat="42.95138" lon="-0.1363">
        <ele>1647.9966783539</ele>
        <time>2014-01-05T10:17:58Z</time>
      </trkpt>
      <trkpt lat="42.95139" lon="-0.13627">
        <ele>1649.5632526017</ele>
        <time>2014-01-05T10:18:03Z</time>
      </trkpt>
      <trkpt lat="42.95141" lon="-0.13627">
        <ele>1649.5632526017</ele>
        <time>2014-01-05T10:18:08Z</time>
      </trkpt>
      <trkpt lat="42.95142" lon="-0.13629">
        <ele>1649.5632526017</ele>
        <time>2014-01-05T10:18:14Z</time>
      </trkpt>
      <trkpt lat="42.95145" lon="-0.13633">
        <ele>1649.5632526017</ele>
        <time>2014-01-05T10:18:18Z</time>
      </trkpt>
      <trkpt lat="42.95147" lon="-0.13634">
        <ele>1650.8988278923</ele>
        <time>2014-01-05T10:18:23Z</time>
      </trkpt>
      <trkpt lat="42.95148" lon="-0.13635">
        <ele>1650.8988278923</ele>
        <time>2014-01-05T10:18:28Z</time>
      </trkpt>
      <trkpt lat="42.95152" lon="-0.13637">
        <ele>1650.8988278923</ele>
        <time>2014-01-05T10:18:33Z</time>
      </trkpt>
      <trkpt lat="42.95153" lon="-0.13638">
        <ele>1650.8988278923</ele>
        <time>2014-01-05T10:18:38Z</time>
      </trkpt>
      <trkpt lat="42.95156" lon="-0.13638">
        <ele>1652.0345535296</ele>
        <time>2014-01-05T10:18:43Z</time>
      </trkpt>
      <trkpt lat="42.9516" lon="-0.13641">
        <ele>1652.0345535296</ele>
        <time>2014-01-05T10:18:48Z</time>
      </trkpt>
      <trkpt lat="42.95162" lon="-0.13642">
        <ele>1652.0345535296</ele>
        <time>2014-01-05T10:18:53Z</time>
      </trkpt>
      <trkpt lat="42.95166" lon="-0.13642">
        <ele>1653.0719889236</ele>
        <time>2014-01-05T10:18:58Z</time>
      </trkpt>
      <trkpt lat="42.95168" lon="-0.13641">
        <ele>1653.0719889236</ele>
        <time>2014-01-05T10:19:03Z</time>
      </trkpt>
      <trkpt lat="42.95169" lon="-0.13638">
        <ele>1653.0719889236</ele>
        <time>2014-01-05T10:19:08Z</time>
      </trkpt>
      <trkpt lat="42.9517" lon="-0.13637">
        <ele>1653.0719889236</ele>
        <time>2014-01-05T10:19:13Z</time>
      </trkpt>
      <trkpt lat="42.9517" lon="-0.13633">
        <ele>1653.0719889236</ele>
        <time>2014-01-05T10:19:18Z</time>
      </trkpt>
      <trkpt lat="42.9517" lon="-0.1363">
        <ele>1654.0767617025</ele>
        <time>2014-01-05T10:19:23Z</time>
      </trkpt>
      <trkpt lat="42.9517" lon="-0.13626">
        <ele>1654.0767617025</ele>
        <time>2014-01-05T10:19:28Z</time>
      </trkpt>
      <trkpt lat="42.95173" lon="-0.13623">
        <ele>1654.0767617025</ele>
        <time>2014-01-05T10:19:38Z</time>
      </trkpt>
      <trkpt lat="42.95175" lon="-0.13623">
        <ele>1655.0810155907</ele>
        <time>2014-01-05T10:19:43Z</time>
      </trkpt>
      <trkpt lat="42.95178" lon="-0.13622">
        <ele>1655.0810155907</ele>
        <time>2014-01-05T10:19:48Z</time>
      </trkpt>
      <trkpt lat="42.95178" lon="-0.13624">
        <ele>1655.0810155907</ele>
        <time>2014-01-05T10:19:53Z</time>
      </trkpt>
      <trkpt lat="42.95177" lon="-0.13628">
        <ele>1655.0810155907</ele>
        <time>2014-01-05T10:19:58Z</time>
      </trkpt>
      <trkpt lat="42.95178" lon="-0.13629">
        <ele>1655.0810155907</ele>
        <time>2014-01-05T10:20:03Z</time>
      </trkpt>
      <trkpt lat="42.95182" lon="-0.13626">
        <ele>1656.2875282202</ele>
        <time>2014-01-05T10:20:08Z</time>
      </trkpt>
      <trkpt lat="42.95184" lon="-0.13623">
        <ele>1656.2875282202</ele>
        <time>2014-01-05T10:20:13Z</time>
      </trkpt>
      <trkpt lat="42.95184" lon="-0.13622">
        <ele>1656.2875282202</ele>
        <time>2014-01-05T10:20:19Z</time>
      </trkpt>
      <trkpt lat="42.95182" lon="-0.13619">
        <ele>1656.2875282202</ele>
        <time>2014-01-05T10:20:23Z</time>
      </trkpt>
      <trkpt lat="42.95185" lon="-0.13622">
        <ele>1657.7539677078</ele>
        <time>2014-01-05T10:20:28Z</time>
      </trkpt>
      <trkpt lat="42.95186" lon="-0.13623">
        <ele>1657.7539677078</ele>
        <time>2014-01-05T10:20:33Z</time>
      </trkpt>
      <trkpt lat="42.95188" lon="-0.13625">
        <ele>1657.7539677078</ele>
        <time>2014-01-05T10:20:38Z</time>
      </trkpt>
      <trkpt lat="42.9519" lon="-0.13624">
        <ele>1657.7539677078</ele>
        <time>2014-01-05T10:20:44Z</time>
      </trkpt>
      <trkpt lat="42.95191" lon="-0.1362">
        <ele>1659.3169185999</ele>
        <time>2014-01-05T10:20:48Z</time>
      </trkpt>
      <trkpt lat="42.95194" lon="-0.13618">
        <ele>1659.3169185999</ele>
        <time>2014-01-05T10:20:53Z</time>
      </trkpt>
      <trkpt lat="42.95195" lon="-0.13616">
        <ele>1659.3169185999</ele>
        <time>2014-01-05T10:20:58Z</time>
      </trkpt>
      <trkpt lat="42.95196" lon="-0.13614">
        <ele>1659.3169185999</ele>
        <time>2014-01-05T10:21:03Z</time>
      </trkpt>
      <trkpt lat="42.95197" lon="-0.1361">
        <ele>1661.1850222474</ele>
        <time>2014-01-05T10:21:08Z</time>
      </trkpt>
      <trkpt lat="42.952" lon="-0.13611">
        <ele>1661.1850222474</ele>
        <time>2014-01-05T10:21:13Z</time>
      </trkpt>
      <trkpt lat="42.95201" lon="-0.13611">
        <ele>1661.1850222474</ele>
        <time>2014-01-05T10:21:18Z</time>
      </trkpt>
      <trkpt lat="42.95203" lon="-0.1361">
        <ele>1661.1850222474</ele>
        <time>2014-01-05T10:21:23Z</time>
      </trkpt>
      <trkpt lat="42.95204" lon="-0.1361">
        <ele>1661.1850222474</ele>
        <time>2014-01-05T10:21:29Z</time>
      </trkpt>
      <trkpt lat="42.95206" lon="-0.13611">
        <ele>1663.2625586787</ele>
        <time>2014-01-05T10:21:33Z</time>
      </trkpt>
      <trkpt lat="42.95209" lon="-0.13611">
        <ele>1663.2625586787</ele>
        <time>2014-01-05T10:21:38Z</time>
      </trkpt>
      <trkpt lat="42.95211" lon="-0.13611">
        <ele>1663.2625586787</ele>
        <time>2014-01-05T10:21:43Z</time>
      </trkpt>
      <trkpt lat="42.95215" lon="-0.13612">
        <ele>1663.2625586787</ele>
        <time>2014-01-05T10:21:48Z</time>
      </trkpt>
      <trkpt lat="42.95221" lon="-0.13611">
        <ele>1665.4170623769</ele>
        <time>2014-01-05T10:21:53Z</time>
      </trkpt>
      <trkpt lat="42.95225" lon="-0.13607">
        <ele>1665.4170623769</ele>
        <time>2014-01-05T10:21:58Z</time>
      </trkpt>
      <trkpt lat="42.95224" lon="-0.13607">
        <ele>1665.4170623769</ele>
        <time>2014-01-05T10:22:03Z</time>
      </trkpt>
      <trkpt lat="42.95225" lon="-0.13608">
        <ele>1665.4170623769</ele>
        <time>2014-01-05T10:22:08Z</time>
      </trkpt>
      <trkpt lat="42.95224" lon="-0.13607">
        <ele>1665.4170623769</ele>
        <time>2014-01-05T10:22:18Z</time>
      </trkpt>
      <trkpt lat="42.95223" lon="-0.13603">
        <ele>1668.4335295927</ele>
        <time>2014-01-05T10:22:23Z</time>
      </trkpt>
      <trkpt lat="42.95223" lon="-0.13598">
        <ele>1668.4335295927</ele>
        <time>2014-01-05T10:22:28Z</time>
      </trkpt>
      <trkpt lat="42.95223" lon="-0.13594">
        <ele>1668.4335295927</ele>
        <time>2014-01-05T10:22:33Z</time>
      </trkpt>
      <trkpt lat="42.95225" lon="-0.13589">
        <ele>1671.480523603</ele>
        <time>2014-01-05T10:22:38Z</time>
      </trkpt>
      <trkpt lat="42.95225" lon="-0.13589">
        <ele>1671.480523603</ele>
        <time>2014-01-05T10:22:43Z</time>
      </trkpt>
      <trkpt lat="42.95228" lon="-0.13588">
        <ele>1671.480523603</ele>
        <time>2014-01-05T10:22:48Z</time>
      </trkpt>
      <trkpt lat="42.95231" lon="-0.13586">
        <ele>1671.480523603</ele>
        <time>2014-01-05T10:22:53Z</time>
      </trkpt>
      <trkpt lat="42.95233" lon="-0.13585">
        <ele>1671.480523603</ele>
        <time>2014-01-05T10:22:58Z</time>
      </trkpt>
      <trkpt lat="42.95235" lon="-0.13583">
        <ele>1674.7387903235</ele>
        <time>2014-01-05T10:23:03Z</time>
      </trkpt>
      <trkpt lat="42.95238" lon="-0.13581">
        <ele>1674.7387903235</ele>
        <time>2014-01-05T10:23:08Z</time>
      </trkpt>
      <trkpt lat="42.95238" lon="-0.13578">
        <ele>1674.7387903235</ele>
        <time>2014-01-05T10:23:14Z</time>
      </trkpt>
      <trkpt lat="42.95238" lon="-0.13573">
        <ele>1677.9573489281</ele>
        <time>2014-01-05T10:23:18Z</time>
      </trkpt>
      <trkpt lat="42.95238" lon="-0.13566">
        <ele>1677.9573489281</ele>
        <time>2014-01-05T10:23:23Z</time>
      </trkpt>
      <trkpt lat="42.9524" lon="-0.13567">
        <ele>1677.9573489281</ele>
        <time>2014-01-05T10:23:28Z</time>
      </trkpt>
      <trkpt lat="42.95241" lon="-0.13567">
        <ele>1677.9573489281</ele>
        <time>2014-01-05T10:23:33Z</time>
      </trkpt>
      <trkpt lat="42.95242" lon="-0.13564">
        <ele>1681.4514644986</ele>
        <time>2014-01-05T10:23:38Z</time>
      </trkpt>
      <trkpt lat="42.95242" lon="-0.13563">
        <ele>1681.4514644986</ele>
        <time>2014-01-05T10:23:43Z</time>
      </trkpt>
      <trkpt lat="42.95239" lon="-0.1356">
        <ele>1681.4514644986</ele>
        <time>2014-01-05T10:23:48Z</time>
      </trkpt>
      <trkpt lat="42.95237" lon="-0.13558">
        <ele>1681.4514644986</ele>
        <time>2014-01-05T10:23:53Z</time>
      </trkpt>
      <trkpt lat="42.95237" lon="-0.13553">
        <ele>1685.3684438319</ele>
        <time>2014-01-05T10:23:58Z</time>
      </trkpt>
      <trkpt lat="42.95238" lon="-0.13547">
        <ele>1685.3684438319</ele>
        <time>2014-01-05T10:24:03Z</time>
      </trkpt>
      <trkpt lat="42.95237" lon="-0.13544">
        <ele>1685.3684438319</ele>
        <time>2014-01-05T10:24:08Z</time>
      </trkpt>
      <trkpt lat="42.95235" lon="-0.13538">
        <ele>1689.180770175</ele>
        <time>2014-01-05T10:24:13Z</time>
      </trkpt>
      <trkpt lat="42.95235" lon="-0.13533">
        <ele>1689.180770175</ele>
        <time>2014-01-05T10:24:18Z</time>
      </trkpt>
      <trkpt lat="42.95236" lon="-0.13529">
        <ele>1689.180770175</ele>
        <time>2014-01-05T10:24:23Z</time>
      </trkpt>
      <trkpt lat="42.95237" lon="-0.13525">
        <ele>1692.8468211611</ele>
        <time>2014-01-05T10:24:29Z</time>
      </trkpt>
      <trkpt lat="42.95236" lon="-0.13517">
        <ele>1692.8468211611</ele>
        <time>2014-01-05T10:24:33Z</time>
      </trkpt>
      <trkpt lat="42.95236" lon="-0.13517">
        <ele>1692.8468211611</ele>
        <time>2014-01-05T10:24:38Z</time>
      </trkpt>
      <trkpt lat="42.95235" lon="-0.13509">
        <ele>1696.4582570954</ele>
        <time>2014-01-05T10:26:43Z</time>
      </trkpt>
      <trkpt lat="42.95236" lon="-0.13504">
        <ele>1696.4582570954</ele>
        <time>2014-01-05T10:26:48Z</time>
      </trkpt>
      <trkpt lat="42.95235" lon="-0.13498">
        <ele>1696.4582570954</ele>
        <time>2014-01-05T10:26:53Z</time>
      </trkpt>
      <trkpt lat="42.95235" lon="-0.13492">
        <ele>1699.6103026553</ele>
        <time>2014-01-05T10:26:58Z</time>
      </trkpt>
      <trkpt lat="42.95236" lon="-0.13487">
        <ele>1699.6103026553</ele>
        <time>2014-01-05T10:27:03Z</time>
      </trkpt>
      <trkpt lat="42.95237" lon="-0.13482">
        <ele>1699.6103026553</ele>
        <time>2014-01-05T10:27:08Z</time>
      </trkpt>
      <trkpt lat="42.95238" lon="-0.13477">
        <ele>1702.3328443568</ele>
        <time>2014-01-05T10:27:13Z</time>
      </trkpt>
      <trkpt lat="42.95241" lon="-0.13473">
        <ele>1702.3328443568</ele>
        <time>2014-01-05T10:27:18Z</time>
      </trkpt>
      <trkpt lat="42.95243" lon="-0.13468">
        <ele>1702.3328443568</ele>
        <time>2014-01-05T10:27:23Z</time>
      </trkpt>
      <trkpt lat="42.95244" lon="-0.13461">
        <ele>1704.6837292975</ele>
        <time>2014-01-05T10:27:28Z</time>
      </trkpt>
      <trkpt lat="42.95244" lon="-0.13455">
        <ele>1704.6837292975</ele>
        <time>2014-01-05T10:27:33Z</time>
      </trkpt>
      <trkpt lat="42.95244" lon="-0.13451">
        <ele>1704.6837292975</ele>
        <time>2014-01-05T10:27:39Z</time>
      </trkpt>
      <trkpt lat="42.95242" lon="-0.13441">
        <ele>1706.7177248596</ele>
        <time>2014-01-05T10:27:43Z</time>
      </trkpt>
      <trkpt lat="42.95241" lon="-0.13435">
        <ele>1706.7177248596</ele>
        <time>2014-01-05T10:27:48Z</time>
      </trkpt>
      <trkpt lat="42.9524" lon="-0.1343">
        <ele>1706.7177248596</ele>
        <time>2014-01-05T10:27:54Z</time>
      </trkpt>
      <trkpt lat="42.95239" lon="-0.13425">
        <ele>1708.4577638287</ele>
        <time>2014-01-05T10:27:58Z</time>
      </trkpt>
      <trkpt lat="42.95236" lon="-0.13421">
        <ele>1708.4577638287</ele>
        <time>2014-01-05T10:28:03Z</time>
      </trkpt>
      <trkpt lat="42.95235" lon="-0.13419">
        <ele>1708.4577638287</ele>
        <time>2014-01-05T10:28:08Z</time>
      </trkpt>
      <trkpt lat="42.95235" lon="-0.13418">
        <ele>1708.4577638287</ele>
        <time>2014-01-05T10:28:13Z</time>
      </trkpt>
      <trkpt lat="42.95233" lon="-0.13415">
        <ele>1710.7186455817</ele>
        <time>2014-01-05T10:29:33Z</time>
      </trkpt>
      <trkpt lat="42.9523" lon="-0.13411">
        <ele>1710.7186455817</ele>
        <time>2014-01-05T10:29:38Z</time>
      </trkpt>
      <trkpt lat="42.95226" lon="-0.13404">
        <ele>1712.6831490744</ele>
        <time>2014-01-05T10:29:43Z</time>
      </trkpt>
      <trkpt lat="42.95225" lon="-0.13399">
        <ele>1712.6831490744</ele>
        <time>2014-01-05T10:29:48Z</time>
      </trkpt>
      <trkpt lat="42.95222" lon="-0.13391">
        <ele>1714.3876272007</ele>
        <time>2014-01-05T10:29:53Z</time>
      </trkpt>
      <trkpt lat="42.9522" lon="-0.13386">
        <ele>1714.3876272007</ele>
        <time>2014-01-05T10:29:58Z</time>
      </trkpt>
      <trkpt lat="42.95217" lon="-0.1338">
        <ele>1715.8377591394</ele>
        <time>2014-01-05T10:30:03Z</time>
      </trkpt>
      <trkpt lat="42.95215" lon="-0.13376">
        <ele>1715.8377591394</ele>
        <time>2014-01-05T10:30:08Z</time>
      </trkpt>
      <trkpt lat="42.95214" lon="-0.13375">
        <ele>1715.8377591394</ele>
        <time>2014-01-05T10:30:13Z</time>
      </trkpt>
      <trkpt lat="42.95211" lon="-0.13371">
        <ele>1717.082833593</ele>
        <time>2014-01-05T10:30:18Z</time>
      </trkpt>
      <trkpt lat="42.95208" lon="-0.13368">
        <ele>1717.082833593</ele>
        <time>2014-01-05T10:30:23Z</time>
      </trkpt>
      <trkpt lat="42.95206" lon="-0.13365">
        <ele>1717.082833593</ele>
        <time>2014-01-05T10:30:29Z</time>
      </trkpt>
      <trkpt lat="42.95202" lon="-0.1336">
        <ele>1718.1691624537</ele>
        <time>2014-01-05T10:30:33Z</time>
      </trkpt>
      <trkpt lat="42.95199" lon="-0.13357">
        <ele>1718.1691624537</ele>
        <time>2014-01-05T10:30:38Z</time>
      </trkpt>
      <trkpt lat="42.95195" lon="-0.13354">
        <ele>1718.1691624537</ele>
        <time>2014-01-05T10:30:43Z</time>
      </trkpt>
      <trkpt lat="42.95192" lon="-0.13352">
        <ele>1719.2842687424</ele>
        <time>2014-01-05T10:30:48Z</time>
      </trkpt>
      <trkpt lat="42.95189" lon="-0.1335">
        <ele>1719.2842687424</ele>
        <time>2014-01-05T10:30:53Z</time>
      </trkpt>
      <trkpt lat="42.95185" lon="-0.13347">
        <ele>1719.2842687424</ele>
        <time>2014-01-05T10:30:58Z</time>
      </trkpt>
      <trkpt lat="42.95181" lon="-0.13343">
        <ele>1720.4001081821</ele>
        <time>2014-01-05T10:31:03Z</time>
      </trkpt>
      <trkpt lat="42.95178" lon="-0.13339">
        <ele>1720.4001081821</ele>
        <time>2014-01-05T10:31:08Z</time>
      </trkpt>
      <trkpt lat="42.95174" lon="-0.13335">
        <ele>1720.4001081821</ele>
        <time>2014-01-05T10:31:13Z</time>
      </trkpt>
      <trkpt lat="42.95172" lon="-0.13331">
        <ele>1721.5051380331</ele>
        <time>2014-01-05T10:31:18Z</time>
      </trkpt>
      <trkpt lat="42.95168" lon="-0.13325">
        <ele>1721.5051380331</ele>
        <time>2014-01-05T10:31:23Z</time>
      </trkpt>
      <trkpt lat="42.95165" lon="-0.13318">
        <ele>1722.5166590322</ele>
        <time>2014-01-05T10:31:28Z</time>
      </trkpt>
      <trkpt lat="42.95162" lon="-0.13314">
        <ele>1722.5166590322</ele>
        <time>2014-01-05T10:31:33Z</time>
      </trkpt>
      <trkpt lat="42.95159" lon="-0.13309">
        <ele>1722.5166590322</ele>
        <time>2014-01-05T10:31:38Z</time>
      </trkpt>
      <trkpt lat="42.95158" lon="-0.13307">
        <ele>1723.5168415138</ele>
        <time>2014-01-05T10:31:43Z</time>
      </trkpt>
      <trkpt lat="42.95156" lon="-0.13301">
        <ele>1723.5168415138</ele>
        <time>2014-01-05T10:31:48Z</time>
      </trkpt>
      <trkpt lat="42.95154" lon="-0.13296">
        <ele>1723.5168415138</ele>
        <time>2014-01-05T10:31:53Z</time>
      </trkpt>
      <trkpt lat="42.95152" lon="-0.13291">
        <ele>1724.5386177909</ele>
        <time>2014-01-05T10:31:58Z</time>
      </trkpt>
      <trkpt lat="42.9515" lon="-0.13287">
        <ele>1724.5386177909</ele>
        <time>2014-01-05T10:32:03Z</time>
      </trkpt>
      <trkpt lat="42.95148" lon="-0.13283">
        <ele>1724.5386177909</ele>
        <time>2014-01-05T10:32:08Z</time>
      </trkpt>
      <trkpt lat="42.95146" lon="-0.13279">
        <ele>1725.5547859765</ele>
        <time>2014-01-05T10:32:13Z</time>
      </trkpt>
      <trkpt lat="42.95144" lon="-0.13275">
        <ele>1725.5547859765</ele>
        <time>2014-01-05T10:32:18Z</time>
      </trkpt>
      <trkpt lat="42.95141" lon="-0.13272">
        <ele>1725.5547859765</ele>
        <time>2014-01-05T10:32:23Z</time>
      </trkpt>
      <trkpt lat="42.95138" lon="-0.13268">
        <ele>1726.5257279692</ele>
        <time>2014-01-05T10:32:28Z</time>
      </trkpt>
      <trkpt lat="42.95135" lon="-0.13265">
        <ele>1726.5257279692</ele>
        <time>2014-01-05T10:32:33Z</time>
      </trkpt>
      <trkpt lat="42.95132" lon="-0.13261">
        <ele>1726.5257279692</ele>
        <time>2014-01-05T10:32:38Z</time>
      </trkpt>
      <trkpt lat="42.95129" lon="-0.13257">
        <ele>1727.5157132583</ele>
        <time>2014-01-05T10:32:43Z</time>
      </trkpt>
      <trkpt lat="42.95126" lon="-0.13253">
        <ele>1727.5157132583</ele>
        <time>2014-01-05T10:32:48Z</time>
      </trkpt>
      <trkpt lat="42.95124" lon="-0.1325">
        <ele>1727.5157132583</ele>
        <time>2014-01-05T10:32:53Z</time>
      </trkpt>
      <trkpt lat="42.95121" lon="-0.13248">
        <ele>1728.5553794579</ele>
        <time>2014-01-05T10:32:58Z</time>
      </trkpt>
      <trkpt lat="42.95118" lon="-0.13244">
        <ele>1728.5553794579</ele>
        <time>2014-01-05T10:33:03Z</time>
      </trkpt>
      <trkpt lat="42.95115" lon="-0.13241">
        <ele>1728.5553794579</ele>
        <time>2014-01-05T10:33:08Z</time>
      </trkpt>
      <trkpt lat="42.95112" lon="-0.13239">
        <ele>1729.7449881087</ele>
        <time>2014-01-05T10:33:13Z</time>
      </trkpt>
      <trkpt lat="42.95109" lon="-0.13235">
        <ele>1729.7449881087</ele>
        <time>2014-01-05T10:33:18Z</time>
      </trkpt>
      <trkpt lat="42.95106" lon="-0.13232">
        <ele>1729.7449881087</ele>
        <time>2014-01-05T10:33:23Z</time>
      </trkpt>
      <trkpt lat="42.95103" lon="-0.13228">
        <ele>1731.0328565705</ele>
        <time>2014-01-05T10:33:28Z</time>
      </trkpt>
      <trkpt lat="42.95102" lon="-0.13225">
        <ele>1731.0328565705</ele>
        <time>2014-01-05T10:33:33Z</time>
      </trkpt>
      <trkpt lat="42.95098" lon="-0.13219">
        <ele>1731.0328565705</ele>
        <time>2014-01-05T10:33:38Z</time>
      </trkpt>
      <trkpt lat="42.95095" lon="-0.13215">
        <ele>1732.4140049868</ele>
        <time>2014-01-05T10:33:43Z</time>
      </trkpt>
      <trkpt lat="42.95092" lon="-0.1321">
        <ele>1732.4140049868</ele>
        <time>2014-01-05T10:33:48Z</time>
      </trkpt>
      <trkpt lat="42.95088" lon="-0.13205">
        <ele>1733.7105695063</ele>
        <time>2014-01-05T10:33:53Z</time>
      </trkpt>
      <trkpt lat="42.95086" lon="-0.13201">
        <ele>1733.7105695063</ele>
        <time>2014-01-05T10:33:58Z</time>
      </trkpt>
      <trkpt lat="42.95084" lon="-0.13197">
        <ele>1733.7105695063</ele>
        <time>2014-01-05T10:34:03Z</time>
      </trkpt>
      <trkpt lat="42.95082" lon="-0.13191">
        <ele>1735.002921227</ele>
        <time>2014-01-05T10:34:08Z</time>
      </trkpt>
      <trkpt lat="42.9508" lon="-0.13187">
        <ele>1735.002921227</ele>
        <time>2014-01-05T10:34:13Z</time>
      </trkpt>
      <trkpt lat="42.95078" lon="-0.13183">
        <ele>1735.002921227</ele>
        <time>2014-01-05T10:34:18Z</time>
      </trkpt>
      <trkpt lat="42.95075" lon="-0.13179">
        <ele>1736.3654802191</ele>
        <time>2014-01-05T10:34:23Z</time>
      </trkpt>
      <trkpt lat="42.95073" lon="-0.13175">
        <ele>1736.3654802191</ele>
        <time>2014-01-05T10:34:28Z</time>
      </trkpt>
      <trkpt lat="42.95071" lon="-0.13172">
        <ele>1736.3654802191</ele>
        <time>2014-01-05T10:34:33Z</time>
      </trkpt>
      <trkpt lat="42.95069" lon="-0.13168">
        <ele>1737.7516536339</ele>
        <time>2014-01-05T10:34:38Z</time>
      </trkpt>
      <trkpt lat="42.95066" lon="-0.13164">
        <ele>1737.7516536339</ele>
        <time>2014-01-05T10:34:43Z</time>
      </trkpt>
      <trkpt lat="42.95063" lon="-0.13162">
        <ele>1737.7516536339</ele>
        <time>2014-01-05T10:34:48Z</time>
      </trkpt>
      <trkpt lat="42.9506" lon="-0.13158">
        <ele>1739.1757884059</ele>
        <time>2014-01-05T10:34:53Z</time>
      </trkpt>
      <trkpt lat="42.95057" lon="-0.13155">
        <ele>1739.1757884059</ele>
        <time>2014-01-05T10:34:58Z</time>
      </trkpt>
      <trkpt lat="42.95054" lon="-0.13151">
        <ele>1739.1757884059</ele>
        <time>2014-01-05T10:35:03Z</time>
      </trkpt>
      <trkpt lat="42.95052" lon="-0.13148">
        <ele>1740.6510095746</ele>
        <time>2014-01-05T10:35:08Z</time>
      </trkpt>
      <trkpt lat="42.95049" lon="-0.13143">
        <ele>1740.6510095746</ele>
        <time>2014-01-05T10:35:13Z</time>
      </trkpt>
      <trkpt lat="42.95046" lon="-0.13139">
        <ele>1740.6510095746</ele>
        <time>2014-01-05T10:35:19Z</time>
      </trkpt>
      <trkpt lat="42.95044" lon="-0.13138">
        <ele>1742.1748623316</ele>
        <time>2014-01-05T10:35:23Z</time>
      </trkpt>
      <trkpt lat="42.95042" lon="-0.13135">
        <ele>1742.1748623316</ele>
        <time>2014-01-05T10:35:28Z</time>
      </trkpt>
      <trkpt lat="42.9504" lon="-0.13131">
        <ele>1742.1748623316</ele>
        <time>2014-01-05T10:35:33Z</time>
      </trkpt>
      <trkpt lat="42.95037" lon="-0.13129">
        <ele>1743.7016418368</ele>
        <time>2014-01-05T10:35:38Z</time>
      </trkpt>
      <trkpt lat="42.95032" lon="-0.13123">
        <ele>1743.7016418368</ele>
        <time>2014-01-05T10:35:43Z</time>
      </trkpt>
      <trkpt lat="42.95031" lon="-0.13116">
        <ele>1745.2033440425</ele>
        <time>2014-01-05T10:35:48Z</time>
      </trkpt>
      <trkpt lat="42.95029" lon="-0.13113">
        <ele>1745.2033440425</ele>
        <time>2014-01-05T10:35:53Z</time>
      </trkpt>
      <trkpt lat="42.95025" lon="-0.13108">
        <ele>1745.2033440425</ele>
        <time>2014-01-05T10:35:58Z</time>
      </trkpt>
      <trkpt lat="42.95021" lon="-0.13104">
        <ele>1746.7693231545</ele>
        <time>2014-01-05T10:36:03Z</time>
      </trkpt>
      <trkpt lat="42.95018" lon="-0.13101">
        <ele>1746.7693231545</ele>
        <time>2014-01-05T10:36:08Z</time>
      </trkpt>
      <trkpt lat="42.95016" lon="-0.13098">
        <ele>1746.7693231545</ele>
        <time>2014-01-05T10:36:13Z</time>
      </trkpt>
      <trkpt lat="42.95014" lon="-0.13096">
        <ele>1748.3091990722</ele>
        <time>2014-01-05T10:36:18Z</time>
      </trkpt>
      <trkpt lat="42.95011" lon="-0.13093">
        <ele>1748.3091990722</ele>
        <time>2014-01-05T10:36:23Z</time>
      </trkpt>
      <trkpt lat="42.95008" lon="-0.13091">
        <ele>1748.3091990722</ele>
        <time>2014-01-05T10:36:28Z</time>
      </trkpt>
      <trkpt lat="42.95005" lon="-0.13089">
        <ele>1749.8257157812</ele>
        <time>2014-01-05T10:36:33Z</time>
      </trkpt>
      <trkpt lat="42.95002" lon="-0.13088">
        <ele>1749.8257157812</ele>
        <time>2014-01-05T10:36:38Z</time>
      </trkpt>
      <trkpt lat="42.94998" lon="-0.13087">
        <ele>1749.8257157812</ele>
        <time>2014-01-05T10:36:43Z</time>
      </trkpt>
      <trkpt lat="42.94994" lon="-0.13088">
        <ele>1751.2926054253</ele>
        <time>2014-01-05T10:36:48Z</time>
      </trkpt>
      <trkpt lat="42.94992" lon="-0.13089">
        <ele>1751.2926054253</ele>
        <time>2014-01-05T10:36:53Z</time>
      </trkpt>
      <trkpt lat="42.9499" lon="-0.13091">
        <ele>1751.2926054253</ele>
        <time>2014-01-05T10:36:58Z</time>
      </trkpt>
      <trkpt lat="42.94987" lon="-0.13092">
        <ele>1751.2926054253</ele>
        <time>2014-01-05T10:37:03Z</time>
      </trkpt>
      <trkpt lat="42.94983" lon="-0.13093">
        <ele>1752.8441393602</ele>
        <time>2014-01-05T10:37:08Z</time>
      </trkpt>
      <trkpt lat="42.94982" lon="-0.13094">
        <ele>1752.8441393602</ele>
        <time>2014-01-05T10:37:14Z</time>
      </trkpt>
      <trkpt lat="42.94978" lon="-0.13096">
        <ele>1752.8441393602</ele>
        <time>2014-01-05T10:37:18Z</time>
      </trkpt>
      <trkpt lat="42.94978" lon="-0.13096">
        <ele>1752.8441393602</ele>
        <time>2014-01-05T10:37:23Z</time>
      </trkpt>
      <trkpt lat="42.9497" lon="-0.13096">
        <ele>1754.5900269203</ele>
        <time>2014-01-05T10:40:48Z</time>
      </trkpt>
      <trkpt lat="42.94966" lon="-0.13098">
        <ele>1754.5900269203</ele>
        <time>2014-01-05T10:40:53Z</time>
      </trkpt>
      <trkpt lat="42.94963" lon="-0.131">
        <ele>1754.5900269203</ele>
        <time>2014-01-05T10:40:58Z</time>
      </trkpt>
      <trkpt lat="42.94959" lon="-0.13101">
        <ele>1756.1557581779</ele>
        <time>2014-01-05T10:41:03Z</time>
      </trkpt>
      <trkpt lat="42.94955" lon="-0.13102">
        <ele>1756.1557581779</ele>
        <time>2014-01-05T10:41:08Z</time>
      </trkpt>
      <trkpt lat="42.94951" lon="-0.13102">
        <ele>1756.1557581779</ele>
        <time>2014-01-05T10:41:13Z</time>
      </trkpt>
      <trkpt lat="42.94947" lon="-0.13104">
        <ele>1757.5983051205</ele>
        <time>2014-01-05T10:41:18Z</time>
      </trkpt>
      <trkpt lat="42.94944" lon="-0.13106">
        <ele>1757.5983051205</ele>
        <time>2014-01-05T10:41:23Z</time>
      </trkpt>
      <trkpt lat="42.9494" lon="-0.13107">
        <ele>1757.5983051205</ele>
        <time>2014-01-05T10:41:28Z</time>
      </trkpt>
      <trkpt lat="42.94936" lon="-0.13107">
        <ele>1758.9563448333</ele>
        <time>2014-01-05T10:41:33Z</time>
      </trkpt>
      <trkpt lat="42.94936" lon="-0.13105">
        <ele>1758.9563448333</ele>
        <time>2014-01-05T10:41:38Z</time>
      </trkpt>
      <trkpt lat="42.94929" lon="-0.13105">
        <ele>1758.9563448333</ele>
        <time>2014-01-05T10:41:53Z</time>
      </trkpt>
      <trkpt lat="42.94926" lon="-0.13106">
        <ele>1760.2082627281</ele>
        <time>2014-01-05T10:41:58Z</time>
      </trkpt>
      <trkpt lat="42.94923" lon="-0.13107">
        <ele>1760.2082627281</ele>
        <time>2014-01-05T10:42:03Z</time>
      </trkpt>
      <trkpt lat="42.94919" lon="-0.13108">
        <ele>1760.2082627281</ele>
        <time>2014-01-05T10:42:08Z</time>
      </trkpt>
      <trkpt lat="42.94916" lon="-0.13108">
        <ele>1761.3775202252</ele>
        <time>2014-01-05T10:42:14Z</time>
      </trkpt>
      <trkpt lat="42.94913" lon="-0.13107">
        <ele>1761.3775202252</ele>
        <time>2014-01-05T10:42:18Z</time>
      </trkpt>
      <trkpt lat="42.9491" lon="-0.13107">
        <ele>1761.3775202252</ele>
        <time>2014-01-05T10:42:23Z</time>
      </trkpt>
      <trkpt lat="42.94907" lon="-0.13107">
        <ele>1761.3775202252</ele>
        <time>2014-01-05T10:42:28Z</time>
      </trkpt>
      <trkpt lat="42.94904" lon="-0.13107">
        <ele>1762.6013330439</ele>
        <time>2014-01-05T10:42:33Z</time>
      </trkpt>
      <trkpt lat="42.949" lon="-0.13106">
        <ele>1762.6013330439</ele>
        <time>2014-01-05T10:42:38Z</time>
      </trkpt>
      <trkpt lat="42.94896" lon="-0.13105">
        <ele>1762.6013330439</ele>
        <time>2014-01-05T10:42:43Z</time>
      </trkpt>
      <trkpt lat="42.94893" lon="-0.13105">
        <ele>1763.8337071342</ele>
        <time>2014-01-05T10:42:48Z</time>
      </trkpt>
      <trkpt lat="42.94891" lon="-0.13103">
        <ele>1763.8337071342</ele>
        <time>2014-01-05T10:42:53Z</time>
      </trkpt>
      <trkpt lat="42.94889" lon="-0.13101">
        <ele>1763.8337071342</ele>
        <time>2014-01-05T10:42:58Z</time>
      </trkpt>
      <trkpt lat="42.94888" lon="-0.13101">
        <ele>1763.8337071342</ele>
        <time>2014-01-05T10:43:03Z</time>
      </trkpt>
      <trkpt lat="42.94885" lon="-0.13094">
        <ele>1765.233715013</ele>
        <time>2014-01-05T10:43:19Z</time>
      </trkpt>
      <trkpt lat="42.94881" lon="-0.13087">
        <ele>1765.233715013</ele>
        <time>2014-01-05T10:43:23Z</time>
      </trkpt>
      <trkpt lat="42.94877" lon="-0.13081">
        <ele>1766.5014851503</ele>
        <time>2014-01-05T10:43:28Z</time>
      </trkpt>
      <trkpt lat="42.94873" lon="-0.13077">
        <ele>1766.5014851503</ele>
        <time>2014-01-05T10:43:33Z</time>
      </trkpt>
      <trkpt lat="42.94871" lon="-0.13073">
        <ele>1766.5014851503</ele>
        <time>2014-01-05T10:43:38Z</time>
      </trkpt>
      <trkpt lat="42.94869" lon="-0.13068">
        <ele>1767.6765463253</ele>
        <time>2014-01-05T10:43:43Z</time>
      </trkpt>
      <trkpt lat="42.94866" lon="-0.13064">
        <ele>1767.6765463253</ele>
        <time>2014-01-05T10:43:48Z</time>
      </trkpt>
      <trkpt lat="42.94863" lon="-0.13058">
        <ele>1768.7813290356</ele>
        <time>2014-01-05T10:43:53Z</time>
      </trkpt>
      <trkpt lat="42.94861" lon="-0.13053">
        <ele>1768.7813290356</ele>
        <time>2014-01-05T10:43:58Z</time>
      </trkpt>
      <trkpt lat="42.94858" lon="-0.13047">
        <ele>1769.7791249979</ele>
        <time>2014-01-05T10:44:03Z</time>
      </trkpt>
      <trkpt lat="42.94857" lon="-0.13044">
        <ele>1769.7791249979</ele>
        <time>2014-01-05T10:44:08Z</time>
      </trkpt>
      <trkpt lat="42.94855" lon="-0.1304">
        <ele>1769.7791249979</ele>
        <time>2014-01-05T10:44:13Z</time>
      </trkpt>
      <trkpt lat="42.94852" lon="-0.13036">
        <ele>1770.7082335994</ele>
        <time>2014-01-05T10:44:18Z</time>
      </trkpt>
      <trkpt lat="42.9485" lon="-0.1303">
        <ele>1770.7082335994</ele>
        <time>2014-01-05T10:44:23Z</time>
      </trkpt>
      <trkpt lat="42.94849" lon="-0.13025">
        <ele>1770.7082335994</ele>
        <time>2014-01-05T10:44:28Z</time>
      </trkpt>
      <trkpt lat="42.94846" lon="-0.13021">
        <ele>1771.5898764035</ele>
        <time>2014-01-05T10:44:33Z</time>
      </trkpt>
      <trkpt lat="42.94843" lon="-0.13016">
        <ele>1771.5898764035</ele>
        <time>2014-01-05T10:44:39Z</time>
      </trkpt>
      <trkpt lat="42.94841" lon="-0.13012">
        <ele>1771.5898764035</ele>
        <time>2014-01-05T10:44:43Z</time>
      </trkpt>
      <trkpt lat="42.94839" lon="-0.13009">
        <ele>1772.3861570375</ele>
        <time>2014-01-05T10:44:48Z</time>
      </trkpt>
      <trkpt lat="42.94839" lon="-0.13008">
        <ele>1772.3861570375</ele>
        <time>2014-01-05T10:44:53Z</time>
      </trkpt>
      <trkpt lat="42.94839" lon="-0.13008">
        <ele>1772.3861570375</ele>
        <time>2014-01-05T10:44:58Z</time>
      </trkpt>
      <trkpt lat="42.94836" lon="-0.13003">
        <ele>1772.3861570375</ele>
        <time>2014-01-05T10:45:03Z</time>
      </trkpt>
      <trkpt lat="42.94834" lon="-0.12998">
        <ele>1773.1630305494</ele>
        <time>2014-01-05T10:45:08Z</time>
      </trkpt>
      <trkpt lat="42.9483" lon="-0.12993">
        <ele>1773.1630305494</ele>
        <time>2014-01-05T10:45:13Z</time>
      </trkpt>
      <trkpt lat="42.94829" lon="-0.12986">
        <ele>1773.8086759841</ele>
        <time>2014-01-05T10:45:18Z</time>
      </trkpt>
      <trkpt lat="42.94826" lon="-0.12981">
        <ele>1773.8086759841</ele>
        <time>2014-01-05T10:45:23Z</time>
      </trkpt>
      <trkpt lat="42.94824" lon="-0.12976">
        <ele>1773.8086759841</ele>
        <time>2014-01-05T10:45:28Z</time>
      </trkpt>
      <trkpt lat="42.94823" lon="-0.12972">
        <ele>1774.4071447919</ele>
        <time>2014-01-05T10:45:33Z</time>
      </trkpt>
      <trkpt lat="42.94821" lon="-0.12967">
        <ele>1774.4071447919</ele>
        <time>2014-01-05T10:45:38Z</time>
      </trkpt>
      <trkpt lat="42.94819" lon="-0.12961">
        <ele>1774.4071447919</ele>
        <time>2014-01-05T10:45:43Z</time>
      </trkpt>
      <trkpt lat="42.94816" lon="-0.12956">
        <ele>1774.9499224058</ele>
        <time>2014-01-05T10:45:48Z</time>
      </trkpt>
      <trkpt lat="42.94813" lon="-0.12951">
        <ele>1774.9499224058</ele>
        <time>2014-01-05T10:45:53Z</time>
      </trkpt>
      <trkpt lat="42.94809" lon="-0.12945">
        <ele>1775.4436268805</ele>
        <time>2014-01-05T10:45:58Z</time>
      </trkpt>
      <trkpt lat="42.94807" lon="-0.1294">
        <ele>1775.4436268805</ele>
        <time>2014-01-05T10:46:03Z</time>
      </trkpt>
      <trkpt lat="42.94804" lon="-0.12935">
        <ele>1775.8512311198</ele>
        <time>2014-01-05T10:46:08Z</time>
      </trkpt>
      <trkpt lat="42.94801" lon="-0.1293">
        <ele>1775.8512311198</ele>
        <time>2014-01-05T10:46:13Z</time>
      </trkpt>
      <trkpt lat="42.94799" lon="-0.12924">
        <ele>1776.225069817</ele>
        <time>2014-01-05T10:46:18Z</time>
      </trkpt>
      <trkpt lat="42.94798" lon="-0.12921">
        <ele>1776.225069817</ele>
        <time>2014-01-05T10:46:23Z</time>
      </trkpt>
      <trkpt lat="42.94798" lon="-0.12919">
        <ele>1776.225069817</ele>
        <time>2014-01-05T10:46:28Z</time>
      </trkpt>
      <trkpt lat="42.94796" lon="-0.12915">
        <ele>1776.225069817</ele>
        <time>2014-01-05T10:46:33Z</time>
      </trkpt>
      <trkpt lat="42.94796" lon="-0.12912">
        <ele>1776.6280695588</ele>
        <time>2014-01-05T10:46:38Z</time>
      </trkpt>
      <trkpt lat="42.94794" lon="-0.12906">
        <ele>1776.6280695588</ele>
        <time>2014-01-05T10:46:43Z</time>
      </trkpt>
      <trkpt lat="42.94792" lon="-0.12903">
        <ele>1776.6280695588</ele>
        <time>2014-01-05T10:46:48Z</time>
      </trkpt>
      <trkpt lat="42.9479" lon="-0.12899">
        <ele>1777.0030912635</ele>
        <time>2014-01-05T10:46:53Z</time>
      </trkpt>
      <trkpt lat="42.94788" lon="-0.12895">
        <ele>1777.0030912635</ele>
        <time>2014-01-05T10:46:58Z</time>
      </trkpt>
      <trkpt lat="42.94785" lon="-0.12892">
        <ele>1777.0030912635</ele>
        <time>2014-01-05T10:47:03Z</time>
      </trkpt>
      <trkpt lat="42.94783" lon="-0.12888">
        <ele>1777.4413080051</ele>
        <time>2014-01-05T10:47:08Z</time>
      </trkpt>
      <trkpt lat="42.94779" lon="-0.12885">
        <ele>1777.4413080051</ele>
        <time>2014-01-05T10:47:13Z</time>
      </trkpt>
      <trkpt lat="42.94776" lon="-0.12881">
        <ele>1777.4413080051</ele>
        <time>2014-01-05T10:47:18Z</time>
      </trkpt>
      <trkpt lat="42.94773" lon="-0.12879">
        <ele>1777.9548856411</ele>
        <time>2014-01-05T10:47:23Z</time>
      </trkpt>
      <trkpt lat="42.94767" lon="-0.12873">
        <ele>1777.9548856411</ele>
        <time>2014-01-05T10:47:28Z</time>
      </trkpt>
      <trkpt lat="42.94765" lon="-0.12871">
        <ele>1778.511573479</ele>
        <time>2014-01-05T10:47:33Z</time>
      </trkpt>
      <trkpt lat="42.9476" lon="-0.12868">
        <ele>1778.511573479</ele>
        <time>2014-01-05T10:47:38Z</time>
      </trkpt>
      <trkpt lat="42.94757" lon="-0.12868">
        <ele>1778.511573479</ele>
        <time>2014-01-05T10:47:43Z</time>
      </trkpt>
      <trkpt lat="42.94752" lon="-0.12867">
        <ele>1779.2830462903</ele>
        <time>2014-01-05T10:47:48Z</time>
      </trkpt>
      <trkpt lat="42.94748" lon="-0.12867">
        <ele>1779.2830462903</ele>
        <time>2014-01-05T10:47:53Z</time>
      </trkpt>
      <trkpt lat="42.94745" lon="-0.12868">
        <ele>1779.2830462903</ele>
        <time>2014-01-05T10:47:58Z</time>
      </trkpt>
      <trkpt lat="42.94742" lon="-0.12868">
        <ele>1780.2691655394</ele>
        <time>2014-01-05T10:48:03Z</time>
      </trkpt>
      <trkpt lat="42.94737" lon="-0.12869">
        <ele>1780.2691655394</ele>
        <time>2014-01-05T10:48:08Z</time>
      </trkpt>
      <trkpt lat="42.94734" lon="-0.12869">
        <ele>1780.2691655394</ele>
        <time>2014-01-05T10:48:13Z</time>
      </trkpt>
      <trkpt lat="42.94731" lon="-0.12866">
        <ele>1781.5267703629</ele>
        <time>2014-01-05T10:48:18Z</time>
      </trkpt>
      <trkpt lat="42.94727" lon="-0.12865">
        <ele>1781.5267703629</ele>
        <time>2014-01-05T10:48:23Z</time>
      </trkpt>
      <trkpt lat="42.94726" lon="-0.12864">
        <ele>1781.5267703629</ele>
        <time>2014-01-05T10:48:28Z</time>
      </trkpt>
      <trkpt lat="42.94723" lon="-0.12864">
        <ele>1781.5267703629</ele>
        <time>2014-01-05T10:48:43Z</time>
      </trkpt>
      <trkpt lat="42.9472" lon="-0.12864">
        <ele>1782.8627031213</ele>
        <time>2014-01-05T10:48:48Z</time>
      </trkpt>
      <trkpt lat="42.94717" lon="-0.12861">
        <ele>1782.8627031213</ele>
        <time>2014-01-05T10:48:53Z</time>
      </trkpt>
      <trkpt lat="42.94713" lon="-0.12856">
        <ele>1782.8627031213</ele>
        <time>2014-01-05T10:48:58Z</time>
      </trkpt>
      <trkpt lat="42.94711" lon="-0.12857">
        <ele>1784.1265322619</ele>
        <time>2014-01-05T10:49:03Z</time>
      </trkpt>
      <trkpt lat="42.94708" lon="-0.12859">
        <ele>1784.1265322619</ele>
        <time>2014-01-05T10:49:08Z</time>
      </trkpt>
      <trkpt lat="42.94706" lon="-0.1286">
        <ele>1784.1265322619</ele>
        <time>2014-01-05T10:49:13Z</time>
      </trkpt>
      <trkpt lat="42.94702" lon="-0.12861">
        <ele>1785.3663637992</ele>
        <time>2014-01-05T10:49:18Z</time>
      </trkpt>
      <trkpt lat="42.947" lon="-0.12857">
        <ele>1785.3663637992</ele>
        <time>2014-01-05T10:49:23Z</time>
      </trkpt>
      <trkpt lat="42.94698" lon="-0.12854">
        <ele>1785.3663637992</ele>
        <time>2014-01-05T10:49:28Z</time>
      </trkpt>
      <trkpt lat="42.94697" lon="-0.12852">
        <ele>1785.3663637992</ele>
        <time>2014-01-05T10:49:33Z</time>
      </trkpt>
      <trkpt lat="42.94693" lon="-0.12852">
        <ele>1786.4826719197</ele>
        <time>2014-01-05T10:49:48Z</time>
      </trkpt>
      <trkpt lat="42.94692" lon="-0.12854">
        <ele>1786.4826719197</ele>
        <time>2014-01-05T10:49:53Z</time>
      </trkpt>
      <trkpt lat="42.9469" lon="-0.12854">
        <ele>1786.4826719197</ele>
        <time>2014-01-05T10:49:58Z</time>
      </trkpt>
      <trkpt lat="42.94686" lon="-0.1285">
        <ele>1787.4844170824</ele>
        <time>2014-01-05T10:50:03Z</time>
      </trkpt>
      <trkpt lat="42.94684" lon="-0.12847">
        <ele>1787.4844170824</ele>
        <time>2014-01-05T10:50:08Z</time>
      </trkpt>
      <trkpt lat="42.94683" lon="-0.12844">
        <ele>1787.4844170824</ele>
        <time>2014-01-05T10:50:13Z</time>
      </trkpt>
      <trkpt lat="42.94682" lon="-0.12842">
        <ele>1787.4844170824</ele>
        <time>2014-01-05T10:50:18Z</time>
      </trkpt>
      <trkpt lat="42.94681" lon="-0.12839">
        <ele>1788.4234111549</ele>
        <time>2014-01-05T10:50:23Z</time>
      </trkpt>
      <trkpt lat="42.94682" lon="-0.12839">
        <ele>1788.4234111549</ele>
        <time>2014-01-05T10:50:28Z</time>
      </trkpt>
      <trkpt lat="42.94679" lon="-0.1284">
        <ele>1788.4234111549</ele>
        <time>2014-01-05T10:50:48Z</time>
      </trkpt>
      <trkpt lat="42.94678" lon="-0.12843">
        <ele>1788.4234111549</ele>
        <time>2014-01-05T10:50:53Z</time>
      </trkpt>
      <trkpt lat="42.94676" lon="-0.12846">
        <ele>1788.4234111549</ele>
        <time>2014-01-05T10:50:58Z</time>
      </trkpt>
      <trkpt lat="42.94674" lon="-0.1285">
        <ele>1789.3622052978</ele>
        <time>2014-01-05T10:51:03Z</time>
      </trkpt>
      <trkpt lat="42.94672" lon="-0.12852">
        <ele>1789.3622052978</ele>
        <time>2014-01-05T10:51:08Z</time>
      </trkpt>
      <trkpt lat="42.9467" lon="-0.12855">
        <ele>1789.3622052978</ele>
        <time>2014-01-05T10:51:13Z</time>
      </trkpt>
      <trkpt lat="42.94668" lon="-0.12857">
        <ele>1789.3622052978</ele>
        <time>2014-01-05T10:51:18Z</time>
      </trkpt>
      <trkpt lat="42.94665" lon="-0.1286">
        <ele>1790.2578392324</ele>
        <time>2014-01-05T10:51:23Z</time>
      </trkpt>
      <trkpt lat="42.94663" lon="-0.12861">
        <ele>1790.2578392324</ele>
        <time>2014-01-05T10:51:28Z</time>
      </trkpt>
      <trkpt lat="42.9466" lon="-0.12865">
        <ele>1790.2578392324</ele>
        <time>2014-01-05T10:51:33Z</time>
      </trkpt>
      <trkpt lat="42.94658" lon="-0.12866">
        <ele>1790.2578392324</ele>
        <time>2014-01-05T10:51:38Z</time>
      </trkpt>
      <trkpt lat="42.94655" lon="-0.12868">
        <ele>1791.2002926745</ele>
        <time>2014-01-05T10:51:43Z</time>
      </trkpt>
      <trkpt lat="42.94653" lon="-0.12871">
        <ele>1791.2002926745</ele>
        <time>2014-01-05T10:51:48Z</time>
      </trkpt>
      <trkpt lat="42.9465" lon="-0.12871">
        <ele>1791.2002926745</ele>
        <time>2014-01-05T10:51:54Z</time>
      </trkpt>
      <trkpt lat="42.94647" lon="-0.12874">
        <ele>1791.2002926745</ele>
        <time>2014-01-05T10:51:58Z</time>
      </trkpt>
      <trkpt lat="42.94646" lon="-0.12875">
        <ele>1792.359236319</ele>
        <time>2014-01-05T10:52:03Z</time>
      </trkpt>
      <trkpt lat="42.94644" lon="-0.12876">
        <ele>1792.359236319</ele>
        <time>2014-01-05T10:52:08Z</time>
      </trkpt>
      <trkpt lat="42.94644" lon="-0.12876">
        <ele>1792.359236319</ele>
        <time>2014-01-05T10:52:13Z</time>
      </trkpt>
      <trkpt lat="42.94644" lon="-0.12876">
        <ele>1792.359236319</ele>
        <time>2014-01-05T10:52:18Z</time>
      </trkpt>
      <trkpt lat="42.94638" lon="-0.12877">
        <ele>1792.359236319</ele>
        <time>2014-01-05T10:52:38Z</time>
      </trkpt>
      <trkpt lat="42.94636" lon="-0.12876">
        <ele>1794.2082835439</ele>
        <time>2014-01-05T10:52:43Z</time>
      </trkpt>
      <trkpt lat="42.94632" lon="-0.12876">
        <ele>1794.2082835439</ele>
        <time>2014-01-05T10:52:48Z</time>
      </trkpt>
      <trkpt lat="42.9463" lon="-0.12876">
        <ele>1794.2082835439</ele>
        <time>2014-01-05T10:52:53Z</time>
      </trkpt>
      <trkpt lat="42.94629" lon="-0.12874">
        <ele>1794.2082835439</ele>
        <time>2014-01-05T10:52:58Z</time>
      </trkpt>
      <trkpt lat="42.94628" lon="-0.12873">
        <ele>1794.2082835439</ele>
        <time>2014-01-05T10:53:03Z</time>
      </trkpt>
      <trkpt lat="42.94626" lon="-0.12873">
        <ele>1796.3628617201</ele>
        <time>2014-01-05T10:53:08Z</time>
      </trkpt>
      <trkpt lat="42.94622" lon="-0.12874">
        <ele>1796.3628617201</ele>
        <time>2014-01-05T10:53:14Z</time>
      </trkpt>
      <trkpt lat="42.94621" lon="-0.12875">
        <ele>1796.3628617201</ele>
        <time>2014-01-05T10:53:18Z</time>
      </trkpt>
      <trkpt lat="42.94613" lon="-0.12867">
        <ele>1798.8548748509</ele>
        <time>2014-01-05T10:53:48Z</time>
      </trkpt>
      <trkpt lat="42.94614" lon="-0.12866">
        <ele>1798.8548748509</ele>
        <time>2014-01-05T10:53:53Z</time>
      </trkpt>
      <trkpt lat="42.94605" lon="-0.12857">
        <ele>1802.0876204558</ele>
        <time>2014-01-05T10:54:58Z</time>
      </trkpt>
      <trkpt lat="42.94602" lon="-0.12857">
        <ele>1802.0876204558</ele>
        <time>2014-01-05T10:55:03Z</time>
      </trkpt>
      <trkpt lat="42.946" lon="-0.12857">
        <ele>1802.0876204558</ele>
        <time>2014-01-05T10:55:08Z</time>
      </trkpt>
      <trkpt lat="42.946" lon="-0.12856">
        <ele>1802.0876204558</ele>
        <time>2014-01-05T10:55:13Z</time>
      </trkpt>
      <trkpt lat="42.94597" lon="-0.12855">
        <ele>1805.1501111347</ele>
        <time>2014-01-05T10:55:19Z</time>
      </trkpt>
      <trkpt lat="42.94595" lon="-0.12855">
        <ele>1805.1501111347</ele>
        <time>2014-01-05T10:55:23Z</time>
      </trkpt>
      <trkpt lat="42.94595" lon="-0.12854">
        <ele>1805.1501111347</ele>
        <time>2014-01-05T10:55:28Z</time>
      </trkpt>
      <trkpt lat="42.9459" lon="-0.12851">
        <ele>1805.1501111347</ele>
        <time>2014-01-05T10:55:33Z</time>
      </trkpt>
      <trkpt lat="42.94586" lon="-0.1285">
        <ele>1807.9481587516</ele>
        <time>2014-01-05T10:55:38Z</time>
      </trkpt>
      <trkpt lat="42.94582" lon="-0.1285">
        <ele>1807.9481587516</ele>
        <time>2014-01-05T10:55:43Z</time>
      </trkpt>
      <trkpt lat="42.94579" lon="-0.1285">
        <ele>1807.9481587516</ele>
        <time>2014-01-05T10:55:48Z</time>
      </trkpt>
      <trkpt lat="42.94574" lon="-0.12851">
        <ele>1810.5105621251</ele>
        <time>2014-01-05T10:55:53Z</time>
      </trkpt>
      <trkpt lat="42.94571" lon="-0.1285">
        <ele>1810.5105621251</ele>
        <time>2014-01-05T10:55:58Z</time>
      </trkpt>
      <trkpt lat="42.9457" lon="-0.12848">
        <ele>1810.5105621251</ele>
        <time>2014-01-05T10:56:03Z</time>
      </trkpt>
      <trkpt lat="42.94564" lon="-0.12849">
        <ele>1812.8791263396</ele>
        <time>2014-01-05T10:56:08Z</time>
      </trkpt>
      <trkpt lat="42.94561" lon="-0.1285">
        <ele>1812.8791263396</ele>
        <time>2014-01-05T10:56:13Z</time>
      </trkpt>
      <trkpt lat="42.94558" lon="-0.12851">
        <ele>1812.8791263396</ele>
        <time>2014-01-05T10:56:18Z</time>
      </trkpt>
      <trkpt lat="42.94557" lon="-0.1285">
        <ele>1812.8791263396</ele>
        <time>2014-01-05T10:56:23Z</time>
      </trkpt>
      <trkpt lat="42.94551" lon="-0.12852">
        <ele>1815.3093556396</ele>
        <time>2014-01-05T10:57:03Z</time>
      </trkpt>
      <trkpt lat="42.94547" lon="-0.12853">
        <ele>1815.3093556396</ele>
        <time>2014-01-05T10:57:08Z</time>
      </trkpt>
      <trkpt lat="42.94543" lon="-0.12855">
        <ele>1815.3093556396</ele>
        <time>2014-01-05T10:57:13Z</time>
      </trkpt>
      <trkpt lat="42.9454" lon="-0.12856">
        <ele>1817.5334901432</ele>
        <time>2014-01-05T10:57:18Z</time>
      </trkpt>
      <trkpt lat="42.94537" lon="-0.12857">
        <ele>1817.5334901432</ele>
        <time>2014-01-05T10:57:23Z</time>
      </trkpt>
      <trkpt lat="42.94534" lon="-0.12858">
        <ele>1817.5334901432</ele>
        <time>2014-01-05T10:57:28Z</time>
      </trkpt>
      <trkpt lat="42.9453" lon="-0.1286">
        <ele>1819.5779015417</ele>
        <time>2014-01-05T10:57:33Z</time>
      </trkpt>
      <trkpt lat="42.94526" lon="-0.12861">
        <ele>1819.5779015417</ele>
        <time>2014-01-05T10:57:38Z</time>
      </trkpt>
      <trkpt lat="42.94523" lon="-0.12862">
        <ele>1819.5779015417</ele>
        <time>2014-01-05T10:57:43Z</time>
      </trkpt>
      <trkpt lat="42.94519" lon="-0.12863">
        <ele>1821.4243716049</ele>
        <time>2014-01-05T10:57:48Z</time>
      </trkpt>
      <trkpt lat="42.94516" lon="-0.12863">
        <ele>1821.4243716049</ele>
        <time>2014-01-05T10:57:53Z</time>
      </trkpt>
      <trkpt lat="42.94513" lon="-0.12864">
        <ele>1821.4243716049</ele>
        <time>2014-01-05T10:57:58Z</time>
      </trkpt>
      <trkpt lat="42.94509" lon="-0.12865">
        <ele>1823.0854764018</ele>
        <time>2014-01-05T10:58:03Z</time>
      </trkpt>
      <trkpt lat="42.94505" lon="-0.12868">
        <ele>1823.0854764018</ele>
        <time>2014-01-05T10:58:08Z</time>
      </trkpt>
      <trkpt lat="42.945" lon="-0.12868">
        <ele>1823.0854764018</ele>
        <time>2014-01-05T10:58:13Z</time>
      </trkpt>
      <trkpt lat="42.94498" lon="-0.12868">
        <ele>1824.5590555104</ele>
        <time>2014-01-05T10:58:19Z</time>
      </trkpt>
      <trkpt lat="42.94493" lon="-0.12868">
        <ele>1824.5590555104</ele>
        <time>2014-01-05T10:58:23Z</time>
      </trkpt>
      <trkpt lat="42.94492" lon="-0.12868">
        <ele>1824.5590555104</ele>
        <time>2014-01-05T10:58:28Z</time>
      </trkpt>
      <trkpt lat="42.94489" lon="-0.12868">
        <ele>1825.9301767159</ele>
        <time>2014-01-05T10:58:33Z</time>
      </trkpt>
      <trkpt lat="42.94487" lon="-0.12868">
        <ele>1825.9301767159</ele>
        <time>2014-01-05T10:58:38Z</time>
      </trkpt>
      <trkpt lat="42.94484" lon="-0.12869">
        <ele>1825.9301767159</ele>
        <time>2014-01-05T10:58:43Z</time>
      </trkpt>
      <trkpt lat="42.9448" lon="-0.12871">
        <ele>1827.2059642112</ele>
        <time>2014-01-05T10:58:48Z</time>
      </trkpt>
      <trkpt lat="42.94476" lon="-0.1287">
        <ele>1827.2059642112</ele>
        <time>2014-01-05T10:58:53Z</time>
      </trkpt>
      <trkpt lat="42.94473" lon="-0.12869">
        <ele>1827.2059642112</ele>
        <time>2014-01-05T10:58:58Z</time>
      </trkpt>
      <trkpt lat="42.94469" lon="-0.12869">
        <ele>1828.3501222168</ele>
        <time>2014-01-05T10:59:03Z</time>
      </trkpt>
      <trkpt lat="42.94466" lon="-0.1287">
        <ele>1828.3501222168</ele>
        <time>2014-01-05T10:59:08Z</time>
      </trkpt>
      <trkpt lat="42.94463" lon="-0.12872">
        <ele>1828.3501222168</ele>
        <time>2014-01-05T10:59:13Z</time>
      </trkpt>
      <trkpt lat="42.94459" lon="-0.12874">
        <ele>1829.3870990059</ele>
        <time>2014-01-05T10:59:18Z</time>
      </trkpt>
      <trkpt lat="42.94456" lon="-0.12874">
        <ele>1829.3870990059</ele>
        <time>2014-01-05T10:59:23Z</time>
      </trkpt>
      <trkpt lat="42.94454" lon="-0.12875">
        <ele>1829.3870990059</ele>
        <time>2014-01-05T10:59:29Z</time>
      </trkpt>
      <trkpt lat="42.94449" lon="-0.12874">
        <ele>1830.3399057272</ele>
        <time>2014-01-05T10:59:33Z</time>
      </trkpt>
      <trkpt lat="42.94445" lon="-0.12875">
        <ele>1830.3399057272</ele>
        <time>2014-01-05T10:59:38Z</time>
      </trkpt>
      <trkpt lat="42.94442" lon="-0.12876">
        <ele>1830.3399057272</ele>
        <time>2014-01-05T10:59:43Z</time>
      </trkpt>
      <trkpt lat="42.94439" lon="-0.12874">
        <ele>1831.2445621008</ele>
        <time>2014-01-05T10:59:48Z</time>
      </trkpt>
      <trkpt lat="42.94434" lon="-0.12874">
        <ele>1831.2445621008</ele>
        <time>2014-01-05T10:59:53Z</time>
      </trkpt>
      <trkpt lat="42.94432" lon="-0.12876">
        <ele>1831.2445621008</ele>
        <time>2014-01-05T10:59:58Z</time>
      </trkpt>
      <trkpt lat="42.94429" lon="-0.12875">
        <ele>1832.1202107523</ele>
        <time>2014-01-05T11:00:03Z</time>
      </trkpt>
      <trkpt lat="42.94426" lon="-0.12874">
        <ele>1832.1202107523</ele>
        <time>2014-01-05T11:00:08Z</time>
      </trkpt>
      <trkpt lat="42.94423" lon="-0.12873">
        <ele>1832.1202107523</ele>
        <time>2014-01-05T11:00:13Z</time>
      </trkpt>
      <trkpt lat="42.9442" lon="-0.12873">
        <ele>1832.1202107523</ele>
        <time>2014-01-05T11:00:18Z</time>
      </trkpt>
      <trkpt lat="42.94417" lon="-0.12875">
        <ele>1832.9991186779</ele>
        <time>2014-01-05T11:00:23Z</time>
      </trkpt>
      <trkpt lat="42.94415" lon="-0.12876">
        <ele>1832.9991186779</ele>
        <time>2014-01-05T11:00:28Z</time>
      </trkpt>
      <trkpt lat="42.94411" lon="-0.12877">
        <ele>1832.9991186779</ele>
        <time>2014-01-05T11:00:33Z</time>
      </trkpt>
      <trkpt lat="42.94407" lon="-0.12878">
        <ele>1833.867971426</ele>
        <time>2014-01-05T11:00:38Z</time>
      </trkpt>
      <trkpt lat="42.94403" lon="-0.12877">
        <ele>1833.867971426</ele>
        <time>2014-01-05T11:00:43Z</time>
      </trkpt>
      <trkpt lat="42.94401" lon="-0.12875">
        <ele>1833.867971426</ele>
        <time>2014-01-05T11:00:48Z</time>
      </trkpt>
      <trkpt lat="42.94398" lon="-0.12874">
        <ele>1834.844185984</ele>
        <time>2014-01-05T11:00:53Z</time>
      </trkpt>
      <trkpt lat="42.94395" lon="-0.12874">
        <ele>1834.844185984</ele>
        <time>2014-01-05T11:00:58Z</time>
      </trkpt>
      <trkpt lat="42.94392" lon="-0.12871">
        <ele>1834.844185984</ele>
        <time>2014-01-05T11:01:03Z</time>
      </trkpt>
      <trkpt lat="42.94389" lon="-0.12867">
        <ele>1835.8345165164</ele>
        <time>2014-01-05T11:01:08Z</time>
      </trkpt>
      <trkpt lat="42.94386" lon="-0.12866">
        <ele>1835.8345165164</ele>
        <time>2014-01-05T11:01:13Z</time>
      </trkpt>
      <trkpt lat="42.94383" lon="-0.12863">
        <ele>1835.8345165164</ele>
        <time>2014-01-05T11:01:18Z</time>
      </trkpt>
      <trkpt lat="42.94379" lon="-0.1286">
        <ele>1836.8101860565</ele>
        <time>2014-01-05T11:01:23Z</time>
      </trkpt>
      <trkpt lat="42.94377" lon="-0.12857">
        <ele>1836.8101860565</ele>
        <time>2014-01-05T11:01:28Z</time>
      </trkpt>
      <trkpt lat="42.94375" lon="-0.12853">
        <ele>1836.8101860565</ele>
        <time>2014-01-05T11:01:33Z</time>
      </trkpt>
      <trkpt lat="42.94375" lon="-0.12853">
        <ele>1836.8101860565</ele>
        <time>2014-01-05T11:01:38Z</time>
      </trkpt>
      <trkpt lat="42.94372" lon="-0.12848">
        <ele>1838.796595598</ele>
        <time>2014-01-05T11:02:38Z</time>
      </trkpt>
      <trkpt lat="42.9437" lon="-0.12848">
        <ele>1838.796595598</ele>
        <time>2014-01-05T11:02:43Z</time>
      </trkpt>
      <trkpt lat="42.94367" lon="-0.12847">
        <ele>1838.796595598</ele>
        <time>2014-01-05T11:02:49Z</time>
      </trkpt>
      <trkpt lat="42.94365" lon="-0.12846">
        <ele>1838.796595598</ele>
        <time>2014-01-05T11:02:53Z</time>
      </trkpt>
      <trkpt lat="42.94361" lon="-0.12842">
        <ele>1840.6513834322</ele>
        <time>2014-01-05T11:02:58Z</time>
      </trkpt>
      <trkpt lat="42.94357" lon="-0.12838">
        <ele>1840.6513834322</ele>
        <time>2014-01-05T11:03:03Z</time>
      </trkpt>
      <trkpt lat="42.94354" lon="-0.12836">
        <ele>1840.6513834322</ele>
        <time>2014-01-05T11:03:08Z</time>
      </trkpt>
      <trkpt lat="42.94351" lon="-0.12833">
        <ele>1842.3252627307</ele>
        <time>2014-01-05T11:03:13Z</time>
      </trkpt>
      <trkpt lat="42.94349" lon="-0.1283">
        <ele>1842.3252627307</ele>
        <time>2014-01-05T11:03:18Z</time>
      </trkpt>
      <trkpt lat="42.94348" lon="-0.12826">
        <ele>1842.3252627307</ele>
        <time>2014-01-05T11:03:23Z</time>
      </trkpt>
      <trkpt lat="42.94345" lon="-0.12823">
        <ele>1843.816319734</ele>
        <time>2014-01-05T11:03:28Z</time>
      </trkpt>
      <trkpt lat="42.94342" lon="-0.12821">
        <ele>1843.816319734</ele>
        <time>2014-01-05T11:03:33Z</time>
      </trkpt>
      <trkpt lat="42.94339" lon="-0.12818">
        <ele>1843.816319734</ele>
        <time>2014-01-05T11:03:38Z</time>
      </trkpt>
      <trkpt lat="42.94336" lon="-0.12816">
        <ele>1845.1233071846</ele>
        <time>2014-01-05T11:03:43Z</time>
      </trkpt>
      <trkpt lat="42.94333" lon="-0.12812">
        <ele>1845.1233071846</ele>
        <time>2014-01-05T11:03:48Z</time>
      </trkpt>
      <trkpt lat="42.94329" lon="-0.12806">
        <ele>1846.2455986456</ele>
        <time>2014-01-05T11:03:53Z</time>
      </trkpt>
      <trkpt lat="42.94324" lon="-0.12799">
        <ele>1846.2455986456</ele>
        <time>2014-01-05T11:03:58Z</time>
      </trkpt>
      <trkpt lat="42.94321" lon="-0.12793">
        <ele>1847.2263762793</ele>
        <time>2014-01-05T11:04:03Z</time>
      </trkpt>
      <trkpt lat="42.94319" lon="-0.12787">
        <ele>1847.2263762793</ele>
        <time>2014-01-05T11:04:08Z</time>
      </trkpt>
      <trkpt lat="42.94318" lon="-0.12782">
        <ele>1847.2263762793</ele>
        <time>2014-01-05T11:04:13Z</time>
      </trkpt>
      <trkpt lat="42.94316" lon="-0.12776">
        <ele>1848.0628217924</ele>
        <time>2014-01-05T11:04:18Z</time>
      </trkpt>
      <trkpt lat="42.94313" lon="-0.12772">
        <ele>1848.0628217924</ele>
        <time>2014-01-05T11:04:23Z</time>
      </trkpt>
      <trkpt lat="42.94312" lon="-0.1277">
        <ele>1848.0628217924</ele>
        <time>2014-01-05T11:04:29Z</time>
      </trkpt>
      <trkpt lat="42.94309" lon="-0.12763">
        <ele>1848.7671437895</ele>
        <time>2014-01-05T11:04:33Z</time>
      </trkpt>
      <trkpt lat="42.94307" lon="-0.12759">
        <ele>1848.7671437895</ele>
        <time>2014-01-05T11:04:38Z</time>
      </trkpt>
      <trkpt lat="42.94303" lon="-0.12756">
        <ele>1848.7671437895</ele>
        <time>2014-01-05T11:04:43Z</time>
      </trkpt>
      <trkpt lat="42.94302" lon="-0.12754">
        <ele>1849.351023446</ele>
        <time>2014-01-05T11:04:49Z</time>
      </trkpt>
      <trkpt lat="42.94298" lon="-0.12753">
        <ele>1849.351023446</ele>
        <time>2014-01-05T11:04:53Z</time>
      </trkpt>
      <trkpt lat="42.94295" lon="-0.12751">
        <ele>1849.351023446</ele>
        <time>2014-01-05T11:04:58Z</time>
      </trkpt>
      <trkpt lat="42.94294" lon="-0.12749">
        <ele>1849.8256146778</ele>
        <time>2014-01-05T11:05:03Z</time>
      </trkpt>
      <trkpt lat="42.94291" lon="-0.12744">
        <ele>1849.8256146778</ele>
        <time>2014-01-05T11:05:08Z</time>
      </trkpt>
      <trkpt lat="42.94287" lon="-0.12741">
        <ele>1850.2015452162</ele>
        <time>2014-01-05T11:05:13Z</time>
      </trkpt>
      <trkpt lat="42.94283" lon="-0.12738">
        <ele>1850.2015452162</ele>
        <time>2014-01-05T11:05:18Z</time>
      </trkpt>
      <trkpt lat="42.94282" lon="-0.1274">
        <ele>1850.2015452162</ele>
        <time>2014-01-05T11:05:23Z</time>
      </trkpt>
      <trkpt lat="42.94279" lon="-0.1274">
        <ele>1850.2015452162</ele>
        <time>2014-01-05T11:05:28Z</time>
      </trkpt>
      <trkpt lat="42.94275" lon="-0.12738">
        <ele>1850.4745075338</ele>
        <time>2014-01-05T11:05:33Z</time>
      </trkpt>
      <trkpt lat="42.94269" lon="-0.12738">
        <ele>1850.4745075338</ele>
        <time>2014-01-05T11:05:38Z</time>
      </trkpt>
      <trkpt lat="42.94266" lon="-0.12737">
        <ele>1850.6840054795</ele>
        <time>2014-01-05T11:05:43Z</time>
      </trkpt>
      <trkpt lat="42.94265" lon="-0.12733">
        <ele>1850.6840054795</ele>
        <time>2014-01-05T11:05:48Z</time>
      </trkpt>
      <trkpt lat="42.94263" lon="-0.1273">
        <ele>1850.6840054795</ele>
        <time>2014-01-05T11:05:53Z</time>
      </trkpt>
      <trkpt lat="42.94259" lon="-0.12732">
        <ele>1850.852373491</ele>
        <time>2014-01-05T11:05:58Z</time>
      </trkpt>
      <trkpt lat="42.94255" lon="-0.12733">
        <ele>1850.852373491</ele>
        <time>2014-01-05T11:06:03Z</time>
      </trkpt>
      <trkpt lat="42.94254" lon="-0.12732">
        <ele>1850.852373491</ele>
        <time>2014-01-05T11:06:08Z</time>
      </trkpt>
      <trkpt lat="42.94253" lon="-0.12727">
        <ele>1851.0147903969</ele>
        <time>2014-01-05T11:06:13Z</time>
      </trkpt>
      <trkpt lat="42.94251" lon="-0.12725">
        <ele>1851.0147903969</ele>
        <time>2014-01-05T11:06:18Z</time>
      </trkpt>
      <trkpt lat="42.94252" lon="-0.12718">
        <ele>1851.0147903969</ele>
        <time>2014-01-05T11:06:23Z</time>
      </trkpt>
      <trkpt lat="42.94251" lon="-0.12716">
        <ele>1851.1605859658</ele>
        <time>2014-01-05T11:06:28Z</time>
      </trkpt>
      <trkpt lat="42.94247" lon="-0.12708">
        <ele>1851.1605859658</ele>
        <time>2014-01-05T11:06:33Z</time>
      </trkpt>
      <trkpt lat="42.94247" lon="-0.12705">
        <ele>1851.1605859658</ele>
        <time>2014-01-05T11:06:38Z</time>
      </trkpt>
      <trkpt lat="42.94246" lon="-0.12699">
        <ele>1851.3807438811</ele>
        <time>2014-01-05T11:06:43Z</time>
      </trkpt>
      <trkpt lat="42.94246" lon="-0.12699">
        <ele>1851.3807438811</ele>
        <time>2014-01-05T11:06:48Z</time>
      </trkpt>
      <trkpt lat="42.94247" lon="-0.12706">
        <ele>1851.3807438811</ele>
        <time>2014-01-05T11:07:03Z</time>
      </trkpt>
      <trkpt lat="42.94247" lon="-0.12705">
        <ele>1851.3807438811</ele>
        <time>2014-01-05T11:07:08Z</time>
      </trkpt>
      <trkpt lat="42.94243" lon="-0.12706">
        <ele>1851.9322296916</ele>
        <time>2014-01-05T11:07:13Z</time>
      </trkpt>
      <trkpt lat="42.94238" lon="-0.12702">
        <ele>1851.9322296916</ele>
        <time>2014-01-05T11:07:18Z</time>
      </trkpt>
      <trkpt lat="42.9424" lon="-0.12703">
        <ele>1851.9322296916</ele>
        <time>2014-01-05T11:07:23Z</time>
      </trkpt>
      <trkpt lat="42.94241" lon="-0.12698">
        <ele>1853.8879869776</ele>
        <time>2014-01-05T11:09:18Z</time>
      </trkpt>
      <trkpt lat="42.94237" lon="-0.12695">
        <ele>1853.8879869776</ele>
        <time>2014-01-05T11:09:23Z</time>
      </trkpt>
      <trkpt lat="42.94234" lon="-0.12692">
        <ele>1853.8879869776</ele>
        <time>2014-01-05T11:09:28Z</time>
      </trkpt>
      <trkpt lat="42.94233" lon="-0.12688">
        <ele>1855.6009082044</ele>
        <time>2014-01-05T11:09:33Z</time>
      </trkpt>
      <trkpt lat="42.94231" lon="-0.12688">
        <ele>1855.6009082044</ele>
        <time>2014-01-05T11:09:38Z</time>
      </trkpt>
      <trkpt lat="42.94226" lon="-0.12689">
        <ele>1855.6009082044</ele>
        <time>2014-01-05T11:09:43Z</time>
      </trkpt>
      <trkpt lat="42.94222" lon="-0.1269">
        <ele>1857.1307301321</ele>
        <time>2014-01-05T11:09:48Z</time>
      </trkpt>
      <trkpt lat="42.9422" lon="-0.12687">
        <ele>1857.1307301321</ele>
        <time>2014-01-05T11:09:53Z</time>
      </trkpt>
      <trkpt lat="42.94219" lon="-0.12685">
        <ele>1857.1307301321</ele>
        <time>2014-01-05T11:09:58Z</time>
      </trkpt>
      <trkpt lat="42.94217" lon="-0.12682">
        <ele>1857.1307301321</ele>
        <time>2014-01-05T11:10:03Z</time>
      </trkpt>
      <trkpt lat="42.94215" lon="-0.12679">
        <ele>1858.2018097474</ele>
        <time>2014-01-05T11:10:09Z</time>
      </trkpt>
      <trkpt lat="42.94212" lon="-0.12674">
        <ele>1858.2018097474</ele>
        <time>2014-01-05T11:10:13Z</time>
      </trkpt>
      <trkpt lat="42.94211" lon="-0.12669">
        <ele>1858.2018097474</ele>
        <time>2014-01-05T11:10:18Z</time>
      </trkpt>
      <trkpt lat="42.94209" lon="-0.12665">
        <ele>1858.8482175435</ele>
        <time>2014-01-05T11:10:24Z</time>
      </trkpt>
      <trkpt lat="42.94209" lon="-0.12664">
        <ele>1858.8482175435</ele>
        <time>2014-01-05T11:10:28Z</time>
      </trkpt>
      <trkpt lat="42.94206" lon="-0.12664">
        <ele>1858.8482175435</ele>
        <time>2014-01-05T11:10:38Z</time>
      </trkpt>
      <trkpt lat="42.94207" lon="-0.12661">
        <ele>1858.8482175435</ele>
        <time>2014-01-05T11:10:43Z</time>
      </trkpt>
      <trkpt lat="42.9421" lon="-0.12655">
        <ele>1859.4053042639</ele>
        <time>2014-01-05T11:10:48Z</time>
      </trkpt>
      <trkpt lat="42.94207" lon="-0.12653">
        <ele>1859.4053042639</ele>
        <time>2014-01-05T11:10:53Z</time>
      </trkpt>
      <trkpt lat="42.94208" lon="-0.1265">
        <ele>1859.4053042639</ele>
        <time>2014-01-05T11:10:59Z</time>
      </trkpt>
      <trkpt lat="42.94209" lon="-0.12648">
        <ele>1859.4053042639</ele>
        <time>2014-01-05T11:11:03Z</time>
      </trkpt>
      <trkpt lat="42.94204" lon="-0.12651">
        <ele>1860.0254730023</ele>
        <time>2014-01-05T11:11:08Z</time>
      </trkpt>
      <trkpt lat="42.94203" lon="-0.1265">
        <ele>1860.0254730023</ele>
        <time>2014-01-05T11:11:13Z</time>
      </trkpt>
      <trkpt lat="42.94202" lon="-0.12647">
        <ele>1860.0254730023</ele>
        <time>2014-01-05T11:11:18Z</time>
      </trkpt>
      <trkpt lat="42.942" lon="-0.12646">
        <ele>1860.0254730023</ele>
        <time>2014-01-05T11:11:23Z</time>
      </trkpt>
      <trkpt lat="42.94199" lon="-0.12647">
        <ele>1860.0254730023</ele>
        <time>2014-01-05T11:11:28Z</time>
      </trkpt>
      <trkpt lat="42.94196" lon="-0.12647">
        <ele>1860.9505905038</ele>
        <time>2014-01-05T11:11:33Z</time>
      </trkpt>
      <trkpt lat="42.94194" lon="-0.12648">
        <ele>1860.9505905038</ele>
        <time>2014-01-05T11:11:38Z</time>
      </trkpt>
      <trkpt lat="42.94192" lon="-0.12652">
        <ele>1860.9505905038</ele>
        <time>2014-01-05T11:11:43Z</time>
      </trkpt>
      <trkpt lat="42.94189" lon="-0.12654">
        <ele>1862.3029812792</ele>
        <time>2014-01-05T11:11:48Z</time>
      </trkpt>
      <trkpt lat="42.94187" lon="-0.1265">
        <ele>1862.3029812792</ele>
        <time>2014-01-05T11:11:53Z</time>
      </trkpt>
      <trkpt lat="42.94183" lon="-0.12656">
        <ele>1863.8344676797</ele>
        <time>2014-01-05T11:11:58Z</time>
      </trkpt>
      <trkpt lat="42.94181" lon="-0.12658">
        <ele>1863.8344676797</ele>
        <time>2014-01-05T11:12:03Z</time>
      </trkpt>
      <trkpt lat="42.94178" lon="-0.12659">
        <ele>1863.8344676797</ele>
        <time>2014-01-05T11:12:09Z</time>
      </trkpt>
      <trkpt lat="42.94176" lon="-0.12662">
        <ele>1863.8344676797</ele>
        <time>2014-01-05T11:12:13Z</time>
      </trkpt>
      <trkpt lat="42.94172" lon="-0.12666">
        <ele>1865.8333655291</ele>
        <time>2014-01-05T11:12:18Z</time>
      </trkpt>
      <trkpt lat="42.94166" lon="-0.12668">
        <ele>1865.8333655291</ele>
        <time>2014-01-05T11:12:23Z</time>
      </trkpt>
      <trkpt lat="42.94162" lon="-0.12669">
        <ele>1868.0322601157</ele>
        <time>2014-01-05T11:12:28Z</time>
      </trkpt>
      <trkpt lat="42.94159" lon="-0.12669">
        <ele>1868.0322601157</ele>
        <time>2014-01-05T11:12:33Z</time>
      </trkpt>
      <trkpt lat="42.94153" lon="-0.12671">
        <ele>1870.4854337618</ele>
        <time>2014-01-05T11:12:38Z</time>
      </trkpt>
      <trkpt lat="42.94152" lon="-0.12673">
        <ele>1870.4854337618</ele>
        <time>2014-01-05T11:12:43Z</time>
      </trkpt>
      <trkpt lat="42.9415" lon="-0.12664">
        <ele>1870.4854337618</ele>
        <time>2014-01-05T11:12:53Z</time>
      </trkpt>
      <trkpt lat="42.94149" lon="-0.1266">
        <ele>1873.4730375071</ele>
        <time>2014-01-05T11:12:58Z</time>
      </trkpt>
      <trkpt lat="42.94149" lon="-0.1266">
        <ele>1873.4730375071</ele>
        <time>2014-01-05T11:13:03Z</time>
      </trkpt>
      <trkpt lat="42.94149" lon="-0.1266">
        <ele>1873.4730375071</ele>
        <time>2014-01-05T11:13:08Z</time>
      </trkpt>
      <trkpt lat="42.94147" lon="-0.12655">
        <ele>1873.4730375071</ele>
        <time>2014-01-05T11:13:13Z</time>
      </trkpt>
      <trkpt lat="42.94148" lon="-0.12655">
        <ele>1873.4730375071</ele>
        <time>2014-01-05T11:13:19Z</time>
      </trkpt>
      <trkpt lat="42.94141" lon="-0.12646">
        <ele>1877.2819714764</ele>
        <time>2014-01-05T11:13:48Z</time>
      </trkpt>
      <trkpt lat="42.94139" lon="-0.12646">
        <ele>1877.2819714764</ele>
        <time>2014-01-05T11:13:53Z</time>
      </trkpt>
      <trkpt lat="42.94142" lon="-0.12651">
        <ele>1877.2819714764</ele>
        <time>2014-01-05T11:13:58Z</time>
      </trkpt>
      <trkpt lat="42.94141" lon="-0.1265">
        <ele>1877.2819714764</ele>
        <time>2014-01-05T11:14:03Z</time>
      </trkpt>
      <trkpt lat="42.94137" lon="-0.12649">
        <ele>1881.051710834</ele>
        <time>2014-01-05T11:14:08Z</time>
      </trkpt>
      <trkpt lat="42.94135" lon="-0.12648">
        <ele>1881.051710834</ele>
        <time>2014-01-05T11:14:13Z</time>
      </trkpt>
      <trkpt lat="42.94133" lon="-0.12649">
        <ele>1881.051710834</ele>
        <time>2014-01-05T11:14:18Z</time>
      </trkpt>
      <trkpt lat="42.94132" lon="-0.1265">
        <ele>1881.051710834</ele>
        <time>2014-01-05T11:14:23Z</time>
      </trkpt>
      <trkpt lat="42.9413" lon="-0.12651">
        <ele>1881.051710834</ele>
        <time>2014-01-05T11:14:29Z</time>
      </trkpt>
      <trkpt lat="42.94128" lon="-0.12655">
        <ele>1884.734471666</ele>
        <time>2014-01-05T11:14:33Z</time>
      </trkpt>
      <trkpt lat="42.94124" lon="-0.12658">
        <ele>1884.734471666</ele>
        <time>2014-01-05T11:14:38Z</time>
      </trkpt>
      <trkpt lat="42.94121" lon="-0.12658">
        <ele>1884.734471666</ele>
        <time>2014-01-05T11:14:43Z</time>
      </trkpt>
      <trkpt lat="42.94119" lon="-0.12659">
        <ele>1888.2430480769</ele>
        <time>2014-01-05T11:14:48Z</time>
      </trkpt>
      <trkpt lat="42.94118" lon="-0.12662">
        <ele>1888.2430480769</ele>
        <time>2014-01-05T11:14:53Z</time>
      </trkpt>
      <trkpt lat="42.94116" lon="-0.12664">
        <ele>1888.2430480769</ele>
        <time>2014-01-05T11:14:58Z</time>
      </trkpt>
      <trkpt lat="42.94115" lon="-0.12667">
        <ele>1888.2430480769</ele>
        <time>2014-01-05T11:15:03Z</time>
      </trkpt>
      <trkpt lat="42.94114" lon="-0.1267">
        <ele>1891.7277809384</ele>
        <time>2014-01-05T11:15:08Z</time>
      </trkpt>
      <trkpt lat="42.94112" lon="-0.12674">
        <ele>1891.7277809384</ele>
        <time>2014-01-05T11:15:13Z</time>
      </trkpt>
      <trkpt lat="42.9411" lon="-0.12675">
        <ele>1891.7277809384</ele>
        <time>2014-01-05T11:15:18Z</time>
      </trkpt>
      <trkpt lat="42.9411" lon="-0.12677">
        <ele>1891.7277809384</ele>
        <time>2014-01-05T11:15:23Z</time>
      </trkpt>
      <trkpt lat="42.94109" lon="-0.12678">
        <ele>1891.7277809384</ele>
        <time>2014-01-05T11:15:28Z</time>
      </trkpt>
      <trkpt lat="42.94108" lon="-0.12682">
        <ele>1895.2128341363</ele>
        <time>2014-01-05T11:15:33Z</time>
      </trkpt>
      <trkpt lat="42.94106" lon="-0.12684">
        <ele>1895.2128341363</ele>
        <time>2014-01-05T11:15:38Z</time>
      </trkpt>
      <trkpt lat="42.94105" lon="-0.12685">
        <ele>1895.2128341363</ele>
        <time>2014-01-05T11:15:43Z</time>
      </trkpt>
      <trkpt lat="42.94104" lon="-0.12687">
        <ele>1895.2128341363</ele>
        <time>2014-01-05T11:15:48Z</time>
      </trkpt>
      <trkpt lat="42.94104" lon="-0.12688">
        <ele>1895.2128341363</ele>
        <time>2014-01-05T11:15:53Z</time>
      </trkpt>
      <trkpt lat="42.94098" lon="-0.12694">
        <ele>1898.8503978463</ele>
        <time>2014-01-05T11:16:03Z</time>
      </trkpt>
      <trkpt lat="42.94097" lon="-0.12697">
        <ele>1898.8503978463</ele>
        <time>2014-01-05T11:16:08Z</time>
      </trkpt>
      <trkpt lat="42.94095" lon="-0.127">
        <ele>1898.8503978463</ele>
        <time>2014-01-05T11:16:13Z</time>
      </trkpt>
      <trkpt lat="42.94093" lon="-0.12704">
        <ele>1898.8503978463</ele>
        <time>2014-01-05T11:16:18Z</time>
      </trkpt>
      <trkpt lat="42.94091" lon="-0.12706">
        <ele>1902.3920682924</ele>
        <time>2014-01-05T11:16:23Z</time>
      </trkpt>
      <trkpt lat="42.94089" lon="-0.12707">
        <ele>1902.3920682924</ele>
        <time>2014-01-05T11:16:28Z</time>
      </trkpt>
      <trkpt lat="42.94087" lon="-0.1271">
        <ele>1902.3920682924</ele>
        <time>2014-01-05T11:16:33Z</time>
      </trkpt>
      <trkpt lat="42.94085" lon="-0.12715">
        <ele>1905.8674826769</ele>
        <time>2014-01-05T11:16:38Z</time>
      </trkpt>
      <trkpt lat="42.94084" lon="-0.12715">
        <ele>1905.8674826769</ele>
        <time>2014-01-05T11:16:44Z</time>
      </trkpt>
      <trkpt lat="42.94076" lon="-0.12726">
        <ele>1909.6935212564</ele>
        <time>2014-01-05T11:17:43Z</time>
      </trkpt>
      <trkpt lat="42.94074" lon="-0.12729">
        <ele>1909.6935212564</ele>
        <time>2014-01-05T11:17:48Z</time>
      </trkpt>
      <trkpt lat="42.94072" lon="-0.12733">
        <ele>1909.6935212564</ele>
        <time>2014-01-05T11:17:53Z</time>
      </trkpt>
      <trkpt lat="42.94071" lon="-0.12735">
        <ele>1909.6935212564</ele>
        <time>2014-01-05T11:17:58Z</time>
      </trkpt>
      <trkpt lat="42.94069" lon="-0.12738">
        <ele>1913.2756438009</ele>
        <time>2014-01-05T11:18:03Z</time>
      </trkpt>
      <trkpt lat="42.94068" lon="-0.1274">
        <ele>1913.2756438009</ele>
        <time>2014-01-05T11:18:08Z</time>
      </trkpt>
      <trkpt lat="42.94068" lon="-0.12744">
        <ele>1913.2756438009</ele>
        <time>2014-01-05T11:18:13Z</time>
      </trkpt>
      <trkpt lat="42.94067" lon="-0.12747">
        <ele>1913.2756438009</ele>
        <time>2014-01-05T11:18:18Z</time>
      </trkpt>
      <trkpt lat="42.94066" lon="-0.12748">
        <ele>1913.2756438009</ele>
        <time>2014-01-05T11:18:23Z</time>
      </trkpt>
      <trkpt lat="42.94065" lon="-0.12751">
        <ele>1916.7411417201</ele>
        <time>2014-01-05T11:18:28Z</time>
      </trkpt>
      <trkpt lat="42.94063" lon="-0.12753">
        <ele>1916.7411417201</ele>
        <time>2014-01-05T11:18:33Z</time>
      </trkpt>
      <trkpt lat="42.94063" lon="-0.12752">
        <ele>1916.7411417201</ele>
        <time>2014-01-05T11:18:38Z</time>
      </trkpt>
      <trkpt lat="42.94058" lon="-0.12758">
        <ele>1916.7411417201</ele>
        <time>2014-01-05T11:18:49Z</time>
      </trkpt>
      <trkpt lat="42.94057" lon="-0.12759">
        <ele>1920.1796173032</ele>
        <time>2014-01-05T11:18:53Z</time>
      </trkpt>
      <trkpt lat="42.94047" lon="-0.12758">
        <ele>1923.4869835943</ele>
        <time>2014-01-05T11:19:13Z</time>
      </trkpt>
      <trkpt lat="42.94047" lon="-0.12762">
        <ele>1923.4869835943</ele>
        <time>2014-01-05T11:19:33Z</time>
      </trkpt>
      <trkpt lat="42.94044" lon="-0.12761">
        <ele>1923.4869835943</ele>
        <time>2014-01-05T11:19:38Z</time>
      </trkpt>
      <trkpt lat="42.9404" lon="-0.12761">
        <ele>1926.7834991742</ele>
        <time>2014-01-05T11:19:43Z</time>
      </trkpt>
      <trkpt lat="42.94038" lon="-0.12758">
        <ele>1926.7834991742</ele>
        <time>2014-01-05T11:19:53Z</time>
      </trkpt>
      <trkpt lat="42.94038" lon="-0.12758">
        <ele>1926.7834991742</ele>
        <time>2014-01-05T11:19:58Z</time>
      </trkpt>
      <trkpt lat="42.94034" lon="-0.12763">
        <ele>1926.7834991742</ele>
        <time>2014-01-05T11:20:24Z</time>
      </trkpt>
      <trkpt lat="42.94031" lon="-0.12763">
        <ele>1930.1519636316</ele>
        <time>2014-01-05T11:20:29Z</time>
      </trkpt>
      <trkpt lat="42.94028" lon="-0.12763">
        <ele>1930.1519636316</ele>
        <time>2014-01-05T11:20:33Z</time>
      </trkpt>
      <trkpt lat="42.94024" lon="-0.12761">
        <ele>1930.1519636316</ele>
        <time>2014-01-05T11:20:38Z</time>
      </trkpt>
      <trkpt lat="42.9402" lon="-0.12762">
        <ele>1933.323193309</ele>
        <time>2014-01-05T11:20:43Z</time>
      </trkpt>
      <trkpt lat="42.9402" lon="-0.12761">
        <ele>1933.323193309</ele>
        <time>2014-01-05T11:20:48Z</time>
      </trkpt>
      <trkpt lat="42.94019" lon="-0.12761">
        <ele>1933.323193309</ele>
        <time>2014-01-05T11:20:53Z</time>
      </trkpt>
      <trkpt lat="42.94019" lon="-0.12762">
        <ele>1933.323193309</ele>
        <time>2014-01-05T11:21:03Z</time>
      </trkpt>
      <trkpt lat="42.94017" lon="-0.12764">
        <ele>1933.323193309</ele>
        <time>2014-01-05T11:21:08Z</time>
      </trkpt>
      <trkpt lat="42.94015" lon="-0.12761">
        <ele>1933.323193309</ele>
        <time>2014-01-05T11:21:13Z</time>
      </trkpt>
      <trkpt lat="42.94013" lon="-0.12758">
        <ele>1936.4664220413</ele>
        <time>2014-01-05T11:21:18Z</time>
      </trkpt>
      <trkpt lat="42.94009" lon="-0.12758">
        <ele>1936.4664220413</ele>
        <time>2014-01-05T11:21:23Z</time>
      </trkpt>
      <trkpt lat="42.94007" lon="-0.12758">
        <ele>1936.4664220413</ele>
        <time>2014-01-05T11:21:28Z</time>
      </trkpt>
      <trkpt lat="42.94003" lon="-0.12759">
        <ele>1939.3928300718</ele>
        <time>2014-01-05T11:21:33Z</time>
      </trkpt>
      <trkpt lat="42.94001" lon="-0.12763">
        <ele>1939.3928300718</ele>
        <time>2014-01-05T11:21:38Z</time>
      </trkpt>
      <trkpt lat="42.93997" lon="-0.12765">
        <ele>1939.3928300718</ele>
        <time>2014-01-05T11:21:43Z</time>
      </trkpt>
      <trkpt lat="42.93995" lon="-0.12764">
        <ele>1942.1444070874</ele>
        <time>2014-01-05T11:21:48Z</time>
      </trkpt>
      <trkpt lat="42.93993" lon="-0.12764">
        <ele>1942.1444070874</ele>
        <time>2014-01-05T11:21:53Z</time>
      </trkpt>
      <trkpt lat="42.93992" lon="-0.12763">
        <ele>1942.1444070874</ele>
        <time>2014-01-05T11:21:58Z</time>
      </trkpt>
      <trkpt lat="42.93985" lon="-0.12753">
        <ele>1945.1353980826</ele>
        <time>2014-01-05T11:22:29Z</time>
      </trkpt>
      <trkpt lat="42.93982" lon="-0.12755">
        <ele>1945.1353980826</ele>
        <time>2014-01-05T11:22:33Z</time>
      </trkpt>
      <trkpt lat="42.93981" lon="-0.12755">
        <ele>1945.1353980826</ele>
        <time>2014-01-05T11:22:38Z</time>
      </trkpt>
      <trkpt lat="42.93979" lon="-0.12755">
        <ele>1945.1353980826</ele>
        <time>2014-01-05T11:22:43Z</time>
      </trkpt>
      <trkpt lat="42.93975" lon="-0.12752">
        <ele>1947.9276683691</ele>
        <time>2014-01-05T11:22:48Z</time>
      </trkpt>
      <trkpt lat="42.93971" lon="-0.1275">
        <ele>1947.9276683691</ele>
        <time>2014-01-05T11:22:53Z</time>
      </trkpt>
      <trkpt lat="42.9397" lon="-0.12748">
        <ele>1947.9276683691</ele>
        <time>2014-01-05T11:22:58Z</time>
      </trkpt>
      <trkpt lat="42.93967" lon="-0.12744">
        <ele>1950.9374105476</ele>
        <time>2014-01-05T11:23:23Z</time>
      </trkpt>
      <trkpt lat="42.93965" lon="-0.12741">
        <ele>1950.9374105476</ele>
        <time>2014-01-05T11:23:29Z</time>
      </trkpt>
      <trkpt lat="42.93961" lon="-0.12736">
        <ele>1950.9374105476</ele>
        <time>2014-01-05T11:23:33Z</time>
      </trkpt>
      <trkpt lat="42.93959" lon="-0.12735">
        <ele>1953.6851127724</ele>
        <time>2014-01-05T11:23:39Z</time>
      </trkpt>
      <trkpt lat="42.93954" lon="-0.12737">
        <ele>1953.6851127724</ele>
        <time>2014-01-05T11:23:43Z</time>
      </trkpt>
      <trkpt lat="42.9395" lon="-0.12738">
        <ele>1953.6851127724</ele>
        <time>2014-01-05T11:23:49Z</time>
      </trkpt>
      <trkpt lat="42.93947" lon="-0.12739">
        <ele>1956.2173412506</ele>
        <time>2014-01-05T11:23:53Z</time>
      </trkpt>
      <trkpt lat="42.93944" lon="-0.12739">
        <ele>1956.2173412506</ele>
        <time>2014-01-05T11:23:58Z</time>
      </trkpt>
      <trkpt lat="42.93941" lon="-0.12741">
        <ele>1956.2173412506</ele>
        <time>2014-01-05T11:24:03Z</time>
      </trkpt>
      <trkpt lat="42.93939" lon="-0.12744">
        <ele>1956.2173412506</ele>
        <time>2014-01-05T11:24:08Z</time>
      </trkpt>
      <trkpt lat="42.93935" lon="-0.12743">
        <ele>1958.7220911518</ele>
        <time>2014-01-05T11:24:13Z</time>
      </trkpt>
      <trkpt lat="42.93932" lon="-0.12742">
        <ele>1958.7220911518</ele>
        <time>2014-01-05T11:24:18Z</time>
      </trkpt>
      <trkpt lat="42.93928" lon="-0.12744">
        <ele>1958.7220911518</ele>
        <time>2014-01-05T11:24:24Z</time>
      </trkpt>
      <trkpt lat="42.93926" lon="-0.12745">
        <ele>1961.2872852685</ele>
        <time>2014-01-05T11:24:28Z</time>
      </trkpt>
      <trkpt lat="42.93922" lon="-0.12743">
        <ele>1961.2872852685</ele>
        <time>2014-01-05T11:24:34Z</time>
      </trkpt>
      <trkpt lat="42.93918" lon="-0.12741">
        <ele>1961.2872852685</ele>
        <time>2014-01-05T11:24:38Z</time>
      </trkpt>
      <trkpt lat="42.93916" lon="-0.12742">
        <ele>1963.9366935739</ele>
        <time>2014-01-05T11:24:43Z</time>
      </trkpt>
      <trkpt lat="42.93915" lon="-0.12742">
        <ele>1963.9366935739</ele>
        <time>2014-01-05T11:24:48Z</time>
      </trkpt>
      <trkpt lat="42.93912" lon="-0.1274">
        <ele>1963.9366935739</ele>
        <time>2014-01-05T11:25:03Z</time>
      </trkpt>
      <trkpt lat="42.93913" lon="-0.1274">
        <ele>1963.9366935739</ele>
        <time>2014-01-05T11:25:08Z</time>
      </trkpt>
      <trkpt lat="42.93911" lon="-0.12742">
        <ele>1963.9366935739</ele>
        <time>2014-01-05T11:25:13Z</time>
      </trkpt>
      <trkpt lat="42.93908" lon="-0.12739">
        <ele>1966.7642723269</ele>
        <time>2014-01-05T11:25:18Z</time>
      </trkpt>
      <trkpt lat="42.93904" lon="-0.1274">
        <ele>1966.7642723269</ele>
        <time>2014-01-05T11:25:23Z</time>
      </trkpt>
      <trkpt lat="42.93902" lon="-0.12742">
        <ele>1966.7642723269</ele>
        <time>2014-01-05T11:25:29Z</time>
      </trkpt>
      <trkpt lat="42.939" lon="-0.12744">
        <ele>1966.7642723269</ele>
        <time>2014-01-05T11:25:33Z</time>
      </trkpt>
      <trkpt lat="42.93898" lon="-0.12746">
        <ele>1969.4819936332</ele>
        <time>2014-01-05T11:25:38Z</time>
      </trkpt>
      <trkpt lat="42.93896" lon="-0.12747">
        <ele>1969.4819936332</ele>
        <time>2014-01-05T11:25:43Z</time>
      </trkpt>
      <trkpt lat="42.93892" lon="-0.12746">
        <ele>1969.4819936332</ele>
        <time>2014-01-05T11:26:13Z</time>
      </trkpt>
      <trkpt lat="42.93891" lon="-0.12746">
        <ele>1969.4819936332</ele>
        <time>2014-01-05T11:26:18Z</time>
      </trkpt>
      <trkpt lat="42.93892" lon="-0.12748">
        <ele>1973.0483434343</ele>
        <time>2014-01-05T11:28:13Z</time>
      </trkpt>
      <trkpt lat="42.93892" lon="-0.12748">
        <ele>1973.0483434343</ele>
        <time>2014-01-05T11:28:18Z</time>
      </trkpt>
      <trkpt lat="42.93893" lon="-0.1275">
        <ele>1973.0483434343</ele>
        <time>2014-01-05T11:29:23Z</time>
      </trkpt>
      <trkpt lat="42.93889" lon="-0.12749">
        <ele>1973.0483434343</ele>
        <time>2014-01-05T11:29:28Z</time>
      </trkpt>
      <trkpt lat="42.93885" lon="-0.12747">
        <ele>1976.3747932903</ele>
        <time>2014-01-05T11:29:33Z</time>
      </trkpt>
      <trkpt lat="42.9388" lon="-0.12745">
        <ele>1976.3747932903</ele>
        <time>2014-01-05T11:29:38Z</time>
      </trkpt>
      <trkpt lat="42.93876" lon="-0.12746">
        <ele>1979.3902696072</ele>
        <time>2014-01-05T11:29:43Z</time>
      </trkpt>
      <trkpt lat="42.93872" lon="-0.12744">
        <ele>1979.3902696072</ele>
        <time>2014-01-05T11:29:48Z</time>
      </trkpt>
      <trkpt lat="42.9387" lon="-0.12745">
        <ele>1979.3902696072</ele>
        <time>2014-01-05T11:29:53Z</time>
      </trkpt>
      <trkpt lat="42.93868" lon="-0.12746">
        <ele>1979.3902696072</ele>
        <time>2014-01-05T11:29:58Z</time>
      </trkpt>
      <trkpt lat="42.93866" lon="-0.12749">
        <ele>1982.2460533489</ele>
        <time>2014-01-05T11:30:03Z</time>
      </trkpt>
      <trkpt lat="42.93864" lon="-0.12751">
        <ele>1982.2460533489</ele>
        <time>2014-01-05T11:30:08Z</time>
      </trkpt>
      <trkpt lat="42.93859" lon="-0.12751">
        <ele>1982.2460533489</ele>
        <time>2014-01-05T11:30:13Z</time>
      </trkpt>
      <trkpt lat="42.93854" lon="-0.12753">
        <ele>1984.9675631967</ele>
        <time>2014-01-05T11:30:18Z</time>
      </trkpt>
      <trkpt lat="42.93851" lon="-0.12755">
        <ele>1984.9675631967</ele>
        <time>2014-01-05T11:30:23Z</time>
      </trkpt>
      <trkpt lat="42.93851" lon="-0.12757">
        <ele>1984.9675631967</ele>
        <time>2014-01-05T11:30:28Z</time>
      </trkpt>
      <trkpt lat="42.93847" lon="-0.12761">
        <ele>1987.4347030787</ele>
        <time>2014-01-05T11:30:33Z</time>
      </trkpt>
      <trkpt lat="42.93844" lon="-0.12764">
        <ele>1987.4347030787</ele>
        <time>2014-01-05T11:30:38Z</time>
      </trkpt>
      <trkpt lat="42.93841" lon="-0.1277">
        <ele>1989.7531601977</ele>
        <time>2014-01-05T11:30:43Z</time>
      </trkpt>
      <trkpt lat="42.93839" lon="-0.12774">
        <ele>1989.7531601977</ele>
        <time>2014-01-05T11:30:53Z</time>
      </trkpt>
      <trkpt lat="42.93838" lon="-0.12778">
        <ele>1989.7531601977</ele>
        <time>2014-01-05T11:30:58Z</time>
      </trkpt>
      <trkpt lat="42.93837" lon="-0.12781">
        <ele>1991.9348817545</ele>
        <time>2014-01-05T11:31:03Z</time>
      </trkpt>
      <trkpt lat="42.93835" lon="-0.12784">
        <ele>1991.9348817545</ele>
        <time>2014-01-05T11:31:08Z</time>
      </trkpt>
      <trkpt lat="42.93834" lon="-0.12788">
        <ele>1991.9348817545</ele>
        <time>2014-01-05T11:31:13Z</time>
      </trkpt>
      <trkpt lat="42.93832" lon="-0.12792">
        <ele>1993.8616854549</ele>
        <time>2014-01-05T11:31:18Z</time>
      </trkpt>
      <trkpt lat="42.9383" lon="-0.12798">
        <ele>1993.8616854549</ele>
        <time>2014-01-05T11:31:23Z</time>
      </trkpt>
      <trkpt lat="42.93828" lon="-0.12801">
        <ele>1993.8616854549</ele>
        <time>2014-01-05T11:31:28Z</time>
      </trkpt>
      <trkpt lat="42.93829" lon="-0.12804">
        <ele>1995.5401293233</ele>
        <time>2014-01-05T11:31:33Z</time>
      </trkpt>
      <trkpt lat="42.93828" lon="-0.1281">
        <ele>1995.5401293233</ele>
        <time>2014-01-05T11:31:38Z</time>
      </trkpt>
      <trkpt lat="42.93829" lon="-0.12815">
        <ele>1995.5401293233</ele>
        <time>2014-01-05T11:31:43Z</time>
      </trkpt>
      <trkpt lat="42.93829" lon="-0.12819">
        <ele>1997.2508416137</ele>
        <time>2014-01-05T11:31:48Z</time>
      </trkpt>
      <trkpt lat="42.93827" lon="-0.12824">
        <ele>1997.2508416137</ele>
        <time>2014-01-05T11:31:53Z</time>
      </trkpt>
      <trkpt lat="42.93823" lon="-0.12827">
        <ele>1997.2508416137</ele>
        <time>2014-01-05T11:31:58Z</time>
      </trkpt>
      <trkpt lat="42.93822" lon="-0.12833">
        <ele>1999.0664338665</ele>
        <time>2014-01-05T11:32:03Z</time>
      </trkpt>
      <trkpt lat="42.9382" lon="-0.12838">
        <ele>1999.0664338665</ele>
        <time>2014-01-05T11:32:08Z</time>
      </trkpt>
      <trkpt lat="42.93819" lon="-0.12841">
        <ele>1999.0664338665</ele>
        <time>2014-01-05T11:32:13Z</time>
      </trkpt>
      <trkpt lat="42.93818" lon="-0.12845">
        <ele>2000.8233337168</ele>
        <time>2014-01-05T11:32:18Z</time>
      </trkpt>
      <trkpt lat="42.93818" lon="-0.12846">
        <ele>2000.8233337168</ele>
        <time>2014-01-05T11:32:23Z</time>
      </trkpt>
      <trkpt lat="42.93817" lon="-0.12851">
        <ele>2000.8233337168</ele>
        <time>2014-01-05T11:32:38Z</time>
      </trkpt>
      <trkpt lat="42.93816" lon="-0.12853">
        <ele>2000.8233337168</ele>
        <time>2014-01-05T11:32:43Z</time>
      </trkpt>
      <trkpt lat="42.93812" lon="-0.12854">
        <ele>2002.2404606198</ele>
        <time>2014-01-05T11:32:48Z</time>
      </trkpt>
      <trkpt lat="42.9381" lon="-0.12854">
        <ele>2002.2404606198</ele>
        <time>2014-01-05T11:32:53Z</time>
      </trkpt>
      <trkpt lat="42.93808" lon="-0.12853">
        <ele>2002.2404606198</ele>
        <time>2014-01-05T11:32:58Z</time>
      </trkpt>
      <trkpt lat="42.93805" lon="-0.12853">
        <ele>2002.2404606198</ele>
        <time>2014-01-05T11:33:03Z</time>
      </trkpt>
      <trkpt lat="42.93804" lon="-0.12851">
        <ele>2003.5194915707</ele>
        <time>2014-01-05T11:33:08Z</time>
      </trkpt>
      <trkpt lat="42.93804" lon="-0.12849">
        <ele>2003.5194915707</ele>
        <time>2014-01-05T11:33:13Z</time>
      </trkpt>
      <trkpt lat="42.93803" lon="-0.1285">
        <ele>2003.5194915707</ele>
        <time>2014-01-05T11:33:23Z</time>
      </trkpt>
      <trkpt lat="42.93801" lon="-0.12851">
        <ele>2003.5194915707</ele>
        <time>2014-01-05T11:33:28Z</time>
      </trkpt>
      <trkpt lat="42.93799" lon="-0.12856">
        <ele>2003.5194915707</ele>
        <time>2014-01-05T11:33:33Z</time>
      </trkpt>
      <trkpt lat="42.93797" lon="-0.12859">
        <ele>2004.6314987768</ele>
        <time>2014-01-05T11:33:38Z</time>
      </trkpt>
      <trkpt lat="42.93799" lon="-0.1286">
        <ele>2004.6314987768</ele>
        <time>2014-01-05T11:33:43Z</time>
      </trkpt>
      <trkpt lat="42.93793" lon="-0.12855">
        <ele>2005.7374707647</ele>
        <time>2014-01-05T11:34:18Z</time>
      </trkpt>
      <trkpt lat="42.9379" lon="-0.12851">
        <ele>2005.7374707647</ele>
        <time>2014-01-05T11:34:23Z</time>
      </trkpt>
      <trkpt lat="42.9379" lon="-0.12848">
        <ele>2005.7374707647</ele>
        <time>2014-01-05T11:34:28Z</time>
      </trkpt>
      <trkpt lat="42.9379" lon="-0.12847">
        <ele>2005.7374707647</ele>
        <time>2014-01-05T11:34:33Z</time>
      </trkpt>
      <trkpt lat="42.9379" lon="-0.12853">
        <ele>2006.7992089525</ele>
        <time>2014-01-05T11:34:48Z</time>
      </trkpt>
      <trkpt lat="42.93787" lon="-0.12856">
        <ele>2006.7992089525</ele>
        <time>2014-01-05T11:34:53Z</time>
      </trkpt>
      <trkpt lat="42.93786" lon="-0.12859">
        <ele>2006.7992089525</ele>
        <time>2014-01-05T11:34:58Z</time>
      </trkpt>
      <trkpt lat="42.93785" lon="-0.1286">
        <ele>2006.7992089525</ele>
        <time>2014-01-05T11:35:03Z</time>
      </trkpt>
      <trkpt lat="42.93776" lon="-0.12866">
        <ele>2007.8390446851</ele>
        <time>2014-01-05T11:35:33Z</time>
      </trkpt>
      <trkpt lat="42.93775" lon="-0.1287">
        <ele>2007.8390446851</ele>
        <time>2014-01-05T11:35:38Z</time>
      </trkpt>
      <trkpt lat="42.93777" lon="-0.12873">
        <ele>2007.8390446851</ele>
        <time>2014-01-05T11:35:43Z</time>
      </trkpt>
      <trkpt lat="42.93778" lon="-0.12877">
        <ele>2008.719152428</ele>
        <time>2014-01-05T11:35:48Z</time>
      </trkpt>
      <trkpt lat="42.93775" lon="-0.12883">
        <ele>2008.719152428</ele>
        <time>2014-01-05T11:35:53Z</time>
      </trkpt>
      <trkpt lat="42.93775" lon="-0.12889">
        <ele>2009.3986798013</ele>
        <time>2014-01-05T11:35:58Z</time>
      </trkpt>
      <trkpt lat="42.93778" lon="-0.12895">
        <ele>2009.3986798013</ele>
        <time>2014-01-05T11:36:03Z</time>
      </trkpt>
      <trkpt lat="42.93786" lon="-0.12904">
        <ele>2009.9123168749</ele>
        <time>2014-01-05T11:36:08Z</time>
      </trkpt>
      <trkpt lat="42.93788" lon="-0.12912">
        <ele>2009.9123168749</ele>
        <time>2014-01-05T11:36:13Z</time>
      </trkpt>
      <trkpt lat="42.93791" lon="-0.12915">
        <ele>2010.2925831901</ele>
        <time>2014-01-05T11:36:18Z</time>
      </trkpt>
      <trkpt lat="42.93793" lon="-0.12918">
        <ele>2010.2925831901</ele>
        <time>2014-01-05T11:36:23Z</time>
      </trkpt>
      <trkpt lat="42.93795" lon="-0.12921">
        <ele>2010.2925831901</ele>
        <time>2014-01-05T11:36:28Z</time>
      </trkpt>
      <trkpt lat="42.93797" lon="-0.12923">
        <ele>2010.2925831901</ele>
        <time>2014-01-05T11:36:33Z</time>
      </trkpt>
      <trkpt lat="42.93799" lon="-0.12924">
        <ele>2010.8725189507</ele>
        <time>2014-01-05T11:36:38Z</time>
      </trkpt>
      <trkpt lat="42.93799" lon="-0.12923">
        <ele>2010.8725189507</ele>
        <time>2014-01-05T11:36:43Z</time>
      </trkpt>
      <trkpt lat="42.93796" lon="-0.12921">
        <ele>2010.8725189507</ele>
        <time>2014-01-05T11:37:18Z</time>
      </trkpt>
      <trkpt lat="42.93793" lon="-0.12921">
        <ele>2010.8725189507</ele>
        <time>2014-01-05T11:37:23Z</time>
      </trkpt>
      <trkpt lat="42.9379" lon="-0.12922">
        <ele>2011.7150427071</ele>
        <time>2014-01-05T11:37:28Z</time>
      </trkpt>
      <trkpt lat="42.93786" lon="-0.12922">
        <ele>2011.7150427071</ele>
        <time>2014-01-05T11:37:33Z</time>
      </trkpt>
      <trkpt lat="42.93783" lon="-0.12922">
        <ele>2011.7150427071</ele>
        <time>2014-01-05T11:37:38Z</time>
      </trkpt>
      <trkpt lat="42.93783" lon="-0.12924">
        <ele>2011.7150427071</ele>
        <time>2014-01-05T11:37:43Z</time>
      </trkpt>
      <trkpt lat="42.93775" lon="-0.12924">
        <ele>2012.935243725</ele>
        <time>2014-01-05T11:38:38Z</time>
      </trkpt>
      <trkpt lat="42.93771" lon="-0.12926">
        <ele>2012.935243725</ele>
        <time>2014-01-05T11:38:43Z</time>
      </trkpt>
      <trkpt lat="42.93768" lon="-0.12926">
        <ele>2012.935243725</ele>
        <time>2014-01-05T11:38:48Z</time>
      </trkpt>
      <trkpt lat="42.93763" lon="-0.12926">
        <ele>2014.0044874681</ele>
        <time>2014-01-05T11:38:53Z</time>
      </trkpt>
      <trkpt lat="42.9376" lon="-0.12923">
        <ele>2014.0044874681</ele>
        <time>2014-01-05T11:38:58Z</time>
      </trkpt>
      <trkpt lat="42.93757" lon="-0.1292">
        <ele>2014.0044874681</ele>
        <time>2014-01-05T11:39:03Z</time>
      </trkpt>
      <trkpt lat="42.93757" lon="-0.1292">
        <ele>2014.0044874681</ele>
        <time>2014-01-05T11:39:08Z</time>
      </trkpt>
      <trkpt lat="42.93755" lon="-0.12915">
        <ele>2015.1682389281</ele>
        <time>2014-01-05T11:39:23Z</time>
      </trkpt>
      <trkpt lat="42.93755" lon="-0.1291">
        <ele>2015.1682389281</ele>
        <time>2014-01-05T11:39:28Z</time>
      </trkpt>
      <trkpt lat="42.93754" lon="-0.12906">
        <ele>2015.1682389281</ele>
        <time>2014-01-05T11:39:33Z</time>
      </trkpt>
      <trkpt lat="42.93753" lon="-0.12901">
        <ele>2016.2788513043</ele>
        <time>2014-01-05T11:39:38Z</time>
      </trkpt>
      <trkpt lat="42.93752" lon="-0.12894">
        <ele>2016.2788513043</ele>
        <time>2014-01-05T11:39:43Z</time>
      </trkpt>
      <trkpt lat="42.9375" lon="-0.1289">
        <ele>2017.3148348115</ele>
        <time>2014-01-05T11:39:48Z</time>
      </trkpt>
      <trkpt lat="42.9375" lon="-0.12887">
        <ele>2017.3148348115</ele>
        <time>2014-01-05T11:39:53Z</time>
      </trkpt>
      <trkpt lat="42.9375" lon="-0.12887">
        <ele>2017.3148348115</ele>
        <time>2014-01-05T11:39:58Z</time>
      </trkpt>
      <trkpt lat="42.93747" lon="-0.1288">
        <ele>2017.3148348115</ele>
        <time>2014-01-05T11:41:18Z</time>
      </trkpt>
      <trkpt lat="42.93746" lon="-0.12874">
        <ele>2018.3860598532</ele>
        <time>2014-01-05T11:41:23Z</time>
      </trkpt>
      <trkpt lat="42.93745" lon="-0.12867">
        <ele>2018.3860598532</ele>
        <time>2014-01-05T11:41:28Z</time>
      </trkpt>
      <trkpt lat="42.93743" lon="-0.12864">
        <ele>2018.3860598532</ele>
        <time>2014-01-05T11:41:33Z</time>
      </trkpt>
      <trkpt lat="42.93742" lon="-0.12862">
        <ele>2019.4067540624</ele>
        <time>2014-01-05T11:41:38Z</time>
      </trkpt>
      <trkpt lat="42.93742" lon="-0.12859">
        <ele>2019.4067540624</ele>
        <time>2014-01-05T11:41:43Z</time>
      </trkpt>
      <trkpt lat="42.93741" lon="-0.12855">
        <ele>2019.4067540624</ele>
        <time>2014-01-05T11:41:48Z</time>
      </trkpt>
      <trkpt lat="42.9374" lon="-0.12851">
        <ele>2019.4067540624</ele>
        <time>2014-01-05T11:41:53Z</time>
      </trkpt>
      <trkpt lat="42.93739" lon="-0.12846">
        <ele>2020.3983366851</ele>
        <time>2014-01-05T11:41:58Z</time>
      </trkpt>
      <trkpt lat="42.93738" lon="-0.12843">
        <ele>2020.3983366851</ele>
        <time>2014-01-05T11:42:03Z</time>
      </trkpt>
      <trkpt lat="42.93736" lon="-0.1284">
        <ele>2020.3983366851</ele>
        <time>2014-01-05T11:42:08Z</time>
      </trkpt>
      <trkpt lat="42.93736" lon="-0.1284">
        <ele>2020.3983366851</ele>
        <time>2014-01-05T11:42:13Z</time>
      </trkpt>
      <trkpt lat="42.93736" lon="-0.12839">
        <ele>2020.3983366851</ele>
        <time>2014-01-05T11:42:18Z</time>
      </trkpt>
      <trkpt lat="42.93734" lon="-0.12833">
        <ele>2021.5967734276</ele>
        <time>2014-01-05T11:42:38Z</time>
      </trkpt>
      <trkpt lat="42.93734" lon="-0.12828">
        <ele>2021.5967734276</ele>
        <time>2014-01-05T11:42:44Z</time>
      </trkpt>
      <trkpt lat="42.93733" lon="-0.12822">
        <ele>2021.5967734276</ele>
        <time>2014-01-05T11:42:48Z</time>
      </trkpt>
      <trkpt lat="42.93733" lon="-0.12819">
        <ele>2022.7011877028</ele>
        <time>2014-01-05T11:42:53Z</time>
      </trkpt>
      <trkpt lat="42.93732" lon="-0.12816">
        <ele>2022.7011877028</ele>
        <time>2014-01-05T11:42:58Z</time>
      </trkpt>
      <trkpt lat="42.93732" lon="-0.12815">
        <ele>2022.7011877028</ele>
        <time>2014-01-05T11:43:03Z</time>
      </trkpt>
      <trkpt lat="42.93736" lon="-0.12812">
        <ele>2022.7011877028</ele>
        <time>2014-01-05T11:43:08Z</time>
      </trkpt>
      <trkpt lat="42.93736" lon="-0.12814">
        <ele>2024.557010522</ele>
        <time>2014-01-05T11:43:28Z</time>
      </trkpt>
      <trkpt lat="42.93736" lon="-0.12816">
        <ele>2024.557010522</ele>
        <time>2014-01-05T11:43:33Z</time>
      </trkpt>
      <trkpt lat="42.93736" lon="-0.12816">
        <ele>2024.557010522</ele>
        <time>2014-01-05T11:43:38Z</time>
      </trkpt>
      <trkpt lat="42.93736" lon="-0.12817">
        <ele>2024.557010522</ele>
        <time>2014-01-05T11:43:43Z</time>
      </trkpt>
      <trkpt lat="42.93732" lon="-0.12824">
        <ele>2024.557010522</ele>
        <time>2014-01-05T11:44:03Z</time>
      </trkpt>
      <trkpt lat="42.93731" lon="-0.12824">
        <ele>2026.504226933</ele>
        <time>2014-01-05T11:44:08Z</time>
      </trkpt>
      <trkpt lat="42.93727" lon="-0.12819">
        <ele>2026.504226933</ele>
        <time>2014-01-05T11:44:58Z</time>
      </trkpt>
      <trkpt lat="42.93725" lon="-0.12813">
        <ele>2028.824424072</ele>
        <time>2014-01-05T11:45:03Z</time>
      </trkpt>
      <trkpt lat="42.93721" lon="-0.12808">
        <ele>2028.824424072</ele>
        <time>2014-01-05T11:45:08Z</time>
      </trkpt>
      <trkpt lat="42.93719" lon="-0.12803">
        <ele>2031.1288505431</ele>
        <time>2014-01-05T11:45:13Z</time>
      </trkpt>
      <trkpt lat="42.93717" lon="-0.12799">
        <ele>2031.1288505431</ele>
        <time>2014-01-05T11:45:18Z</time>
      </trkpt>
      <trkpt lat="42.93716" lon="-0.12797">
        <ele>2031.1288505431</ele>
        <time>2014-01-05T11:45:23Z</time>
      </trkpt>
      <trkpt lat="42.93714" lon="-0.12794">
        <ele>2031.1288505431</ele>
        <time>2014-01-05T11:45:28Z</time>
      </trkpt>
      <trkpt lat="42.93713" lon="-0.1279">
        <ele>2033.6192937446</ele>
        <time>2014-01-05T11:45:33Z</time>
      </trkpt>
      <trkpt lat="42.93712" lon="-0.12787">
        <ele>2033.6192937446</ele>
        <time>2014-01-05T11:45:38Z</time>
      </trkpt>
      <trkpt lat="42.93711" lon="-0.12783">
        <ele>2033.6192937446</ele>
        <time>2014-01-05T11:45:43Z</time>
      </trkpt>
      <trkpt lat="42.9371" lon="-0.1278">
        <ele>2033.6192937446</ele>
        <time>2014-01-05T11:45:48Z</time>
      </trkpt>
      <trkpt lat="42.93709" lon="-0.12776">
        <ele>2036.2947663026</ele>
        <time>2014-01-05T11:45:53Z</time>
      </trkpt>
      <trkpt lat="42.93708" lon="-0.12776">
        <ele>2036.2947663026</ele>
        <time>2014-01-05T11:45:58Z</time>
      </trkpt>
      <trkpt lat="42.93704" lon="-0.12772">
        <ele>2036.2947663026</ele>
        <time>2014-01-05T11:46:28Z</time>
      </trkpt>
      <trkpt lat="42.93703" lon="-0.12769">
        <ele>2036.2947663026</ele>
        <time>2014-01-05T11:46:33Z</time>
      </trkpt>
      <trkpt lat="42.93702" lon="-0.12765">
        <ele>2039.3122836653</ele>
        <time>2014-01-05T11:46:38Z</time>
      </trkpt>
      <trkpt lat="42.93701" lon="-0.12758">
        <ele>2039.3122836653</ele>
        <time>2014-01-05T11:46:43Z</time>
      </trkpt>
      <trkpt lat="42.93701" lon="-0.12753">
        <ele>2039.3122836653</ele>
        <time>2014-01-05T11:46:48Z</time>
      </trkpt>
      <trkpt lat="42.93702" lon="-0.12748">
        <ele>2042.2542736501</ele>
        <time>2014-01-05T11:46:53Z</time>
      </trkpt>
      <trkpt lat="42.93701" lon="-0.12744">
        <ele>2042.2542736501</ele>
        <time>2014-01-05T11:46:58Z</time>
      </trkpt>
      <trkpt lat="42.937" lon="-0.1274">
        <ele>2042.2542736501</ele>
        <time>2014-01-05T11:47:03Z</time>
      </trkpt>
      <trkpt lat="42.93699" lon="-0.12734">
        <ele>2045.0798699641</ele>
        <time>2014-01-05T11:47:08Z</time>
      </trkpt>
      <trkpt lat="42.93699" lon="-0.12733">
        <ele>2045.0798699641</ele>
        <time>2014-01-05T11:47:13Z</time>
      </trkpt>
      <trkpt lat="42.93699" lon="-0.12733">
        <ele>2045.0798699641</ele>
        <time>2014-01-05T11:47:18Z</time>
      </trkpt>
      <trkpt lat="42.93698" lon="-0.12732">
        <ele>2045.0798699641</ele>
        <time>2014-01-05T11:47:28Z</time>
      </trkpt>
      <trkpt lat="42.93697" lon="-0.12727">
        <ele>2045.0798699641</ele>
        <time>2014-01-05T11:47:33Z</time>
      </trkpt>
      <trkpt lat="42.93695" lon="-0.12728">
        <ele>2045.0798699641</ele>
        <time>2014-01-05T11:47:38Z</time>
      </trkpt>
      <trkpt lat="42.93694" lon="-0.12729">
        <ele>2048.0397226902</ele>
        <time>2014-01-05T11:47:43Z</time>
      </trkpt>
      <trkpt lat="42.93691" lon="-0.1273">
        <ele>2048.0397226902</ele>
        <time>2014-01-05T11:47:48Z</time>
      </trkpt>
      <trkpt lat="42.9369" lon="-0.12729">
        <ele>2048.0397226902</ele>
        <time>2014-01-05T11:47:53Z</time>
      </trkpt>
      <trkpt lat="42.9369" lon="-0.12729">
        <ele>2048.0397226902</ele>
        <time>2014-01-05T11:47:58Z</time>
      </trkpt>
      <trkpt lat="42.93689" lon="-0.12728">
        <ele>2048.0397226902</ele>
        <time>2014-01-05T11:48:03Z</time>
      </trkpt>
      <trkpt lat="42.93688" lon="-0.12724">
        <ele>2048.0397226902</ele>
        <time>2014-01-05T11:48:08Z</time>
      </trkpt>
      <trkpt lat="42.93687" lon="-0.12721">
        <ele>2050.9333368495</ele>
        <time>2014-01-05T11:48:13Z</time>
      </trkpt>
      <trkpt lat="42.93686" lon="-0.12717">
        <ele>2050.9333368495</ele>
        <time>2014-01-05T11:48:18Z</time>
      </trkpt>
      <trkpt lat="42.93685" lon="-0.12712">
        <ele>2050.9333368495</ele>
        <time>2014-01-05T11:48:23Z</time>
      </trkpt>
      <trkpt lat="42.93685" lon="-0.1271">
        <ele>2050.9333368495</ele>
        <time>2014-01-05T11:48:28Z</time>
      </trkpt>
      <trkpt lat="42.93685" lon="-0.12711">
        <ele>2050.9333368495</ele>
        <time>2014-01-05T11:48:33Z</time>
      </trkpt>
      <trkpt lat="42.93684" lon="-0.12707">
        <ele>2053.9065761779</ele>
        <time>2014-01-05T11:48:53Z</time>
      </trkpt>
      <trkpt lat="42.93684" lon="-0.12706">
        <ele>2053.9065761779</ele>
        <time>2014-01-05T11:48:58Z</time>
      </trkpt>
      <trkpt lat="42.93683" lon="-0.12702">
        <ele>2053.9065761779</ele>
        <time>2014-01-05T11:49:03Z</time>
      </trkpt>
      <trkpt lat="42.93683" lon="-0.12699">
        <ele>2053.9065761779</ele>
        <time>2014-01-05T11:49:08Z</time>
      </trkpt>
      <trkpt lat="42.93682" lon="-0.12696">
        <ele>2053.9065761779</ele>
        <time>2014-01-05T11:49:13Z</time>
      </trkpt>
      <trkpt lat="42.93682" lon="-0.12692">
        <ele>2056.7773207472</ele>
        <time>2014-01-05T11:49:18Z</time>
      </trkpt>
      <trkpt lat="42.93681" lon="-0.12688">
        <ele>2056.7773207472</ele>
        <time>2014-01-05T11:49:23Z</time>
      </trkpt>
      <trkpt lat="42.93681" lon="-0.12686">
        <ele>2056.7773207472</ele>
        <time>2014-01-05T11:49:28Z</time>
      </trkpt>
      <trkpt lat="42.93681" lon="-0.12685">
        <ele>2056.7773207472</ele>
        <time>2014-01-05T11:49:33Z</time>
      </trkpt>
      <trkpt lat="42.93683" lon="-0.12672">
        <ele>2060.8326504177</ele>
        <time>2014-01-05T11:54:33Z</time>
      </trkpt>
      <trkpt lat="42.93683" lon="-0.12669">
        <ele>2060.8326504177</ele>
        <time>2014-01-05T11:54:38Z</time>
      </trkpt>
      <trkpt lat="42.93683" lon="-0.12668">
        <ele>2060.8326504177</ele>
        <time>2014-01-05T11:54:43Z</time>
      </trkpt>
      <trkpt lat="42.93678" lon="-0.12657">
        <ele>2064.9992519805</ele>
        <time>2014-01-05T11:55:48Z</time>
      </trkpt>
      <trkpt lat="42.93677" lon="-0.12657">
        <ele>2064.9992519805</ele>
        <time>2014-01-05T11:55:53Z</time>
      </trkpt>
      <trkpt lat="42.93674" lon="-0.12648">
        <ele>2064.9992519805</ele>
        <time>2014-01-05T11:56:38Z</time>
      </trkpt>
      <trkpt lat="42.93676" lon="-0.12644">
        <ele>2069.4208610803</ele>
        <time>2014-01-05T11:56:43Z</time>
      </trkpt>
      <trkpt lat="42.93676" lon="-0.12643">
        <ele>2069.4208610803</ele>
        <time>2014-01-05T11:56:48Z</time>
      </trkpt>
      <trkpt lat="42.93675" lon="-0.12645">
        <ele>2069.4208610803</ele>
        <time>2014-01-05T11:57:13Z</time>
      </trkpt>
      <trkpt lat="42.93674" lon="-0.12645">
        <ele>2069.4208610803</ele>
        <time>2014-01-05T11:57:18Z</time>
      </trkpt>
      <trkpt lat="42.93671" lon="-0.12641">
        <ele>2069.4208610803</ele>
        <time>2014-01-05T11:57:38Z</time>
      </trkpt>
      <trkpt lat="42.93671" lon="-0.12639">
        <ele>2069.4208610803</ele>
        <time>2014-01-05T11:57:43Z</time>
      </trkpt>
      <trkpt lat="42.93671" lon="-0.12628">
        <ele>2074.7199725072</ele>
        <time>2014-01-05T11:58:18Z</time>
      </trkpt>
      <trkpt lat="42.93672" lon="-0.12627">
        <ele>2074.7199725072</ele>
        <time>2014-01-05T11:58:23Z</time>
      </trkpt>
      <trkpt lat="42.93673" lon="-0.12623">
        <ele>2074.7199725072</ele>
        <time>2014-01-05T11:58:28Z</time>
      </trkpt>
      <trkpt lat="42.93673" lon="-0.12622">
        <ele>2074.7199725072</ele>
        <time>2014-01-05T11:58:33Z</time>
      </trkpt>
      <trkpt lat="42.93673" lon="-0.12622">
        <ele>2074.7199725072</ele>
        <time>2014-01-05T11:58:38Z</time>
      </trkpt>
      <trkpt lat="42.9367" lon="-0.12619">
        <ele>2080.1883769857</ele>
        <time>2014-01-05T11:59:03Z</time>
      </trkpt>
      <trkpt lat="42.93669" lon="-0.12617">
        <ele>2080.1883769857</ele>
        <time>2014-01-05T11:59:08Z</time>
      </trkpt>
      <trkpt lat="42.9367" lon="-0.12616">
        <ele>2080.1883769857</ele>
        <time>2014-01-05T11:59:13Z</time>
      </trkpt>
      <trkpt lat="42.9367" lon="-0.1261">
        <ele>2080.1883769857</ele>
        <time>2014-01-05T11:59:18Z</time>
      </trkpt>
      <trkpt lat="42.93671" lon="-0.12608">
        <ele>2080.1883769857</ele>
        <time>2014-01-05T11:59:23Z</time>
      </trkpt>
      <trkpt lat="42.9367" lon="-0.12604">
        <ele>2086.0341784271</ele>
        <time>2014-01-05T11:59:58Z</time>
      </trkpt>
      <trkpt lat="42.9367" lon="-0.126">
        <ele>2086.0341784271</ele>
        <time>2014-01-05T12:00:03Z</time>
      </trkpt>
      <trkpt lat="42.93671" lon="-0.12596">
        <ele>2086.0341784271</ele>
        <time>2014-01-05T12:00:08Z</time>
      </trkpt>
      <trkpt lat="42.93672" lon="-0.12592">
        <ele>2086.0341784271</ele>
        <time>2014-01-05T12:00:13Z</time>
      </trkpt>
      <trkpt lat="42.93672" lon="-0.12591">
        <ele>2091.4116525195</ele>
        <time>2014-01-05T12:00:18Z</time>
      </trkpt>
      <trkpt lat="42.93675" lon="-0.12587">
        <ele>2091.4116525195</ele>
        <time>2014-01-05T12:00:38Z</time>
      </trkpt>
      <trkpt lat="42.93676" lon="-0.12584">
        <ele>2091.4116525195</ele>
        <time>2014-01-05T12:00:43Z</time>
      </trkpt>
      <trkpt lat="42.93675" lon="-0.12581">
        <ele>2096.3889097026</ele>
        <time>2014-01-05T12:00:48Z</time>
      </trkpt>
      <trkpt lat="42.93675" lon="-0.12578">
        <ele>2096.3889097026</ele>
        <time>2014-01-05T12:00:53Z</time>
      </trkpt>
      <trkpt lat="42.93673" lon="-0.12576">
        <ele>2096.3889097026</ele>
        <time>2014-01-05T12:00:58Z</time>
      </trkpt>
      <trkpt lat="42.93672" lon="-0.12573">
        <ele>2096.3889097026</ele>
        <time>2014-01-05T12:01:03Z</time>
      </trkpt>
      <trkpt lat="42.9367" lon="-0.1257">
        <ele>2101.1456250793</ele>
        <time>2014-01-05T12:01:08Z</time>
      </trkpt>
      <trkpt lat="42.9367" lon="-0.12566">
        <ele>2101.1456250793</ele>
        <time>2014-01-05T12:01:13Z</time>
      </trkpt>
      <trkpt lat="42.93669" lon="-0.12563">
        <ele>2101.1456250793</ele>
        <time>2014-01-05T12:01:18Z</time>
      </trkpt>
      <trkpt lat="42.93667" lon="-0.12561">
        <ele>2101.1456250793</ele>
        <time>2014-01-05T12:01:23Z</time>
      </trkpt>
      <trkpt lat="42.93667" lon="-0.1256">
        <ele>2101.1456250793</ele>
        <time>2014-01-05T12:01:28Z</time>
      </trkpt>
      <trkpt lat="42.93667" lon="-0.1256">
        <ele>2101.1456250793</ele>
        <time>2014-01-05T12:01:33Z</time>
      </trkpt>
      <trkpt lat="42.93665" lon="-0.12555">
        <ele>2105.9067087734</ele>
        <time>2014-01-05T12:01:48Z</time>
      </trkpt>
      <trkpt lat="42.93664" lon="-0.12553">
        <ele>2105.9067087734</ele>
        <time>2014-01-05T12:01:53Z</time>
      </trkpt>
      <trkpt lat="42.93662" lon="-0.12551">
        <ele>2105.9067087734</ele>
        <time>2014-01-05T12:01:58Z</time>
      </trkpt>
      <trkpt lat="42.93662" lon="-0.12548">
        <ele>2105.9067087734</ele>
        <time>2014-01-05T12:02:03Z</time>
      </trkpt>
      <trkpt lat="42.93661" lon="-0.12544">
        <ele>2110.333095418</ele>
        <time>2014-01-05T12:02:08Z</time>
      </trkpt>
      <trkpt lat="42.93661" lon="-0.12541">
        <ele>2110.333095418</ele>
        <time>2014-01-05T12:02:13Z</time>
      </trkpt>
      <trkpt lat="42.9366" lon="-0.12539">
        <ele>2110.333095418</ele>
        <time>2014-01-05T12:02:18Z</time>
      </trkpt>
      <trkpt lat="42.93659" lon="-0.12536">
        <ele>2110.333095418</ele>
        <time>2014-01-05T12:02:23Z</time>
      </trkpt>
      <trkpt lat="42.93659" lon="-0.12533">
        <ele>2110.333095418</ele>
        <time>2014-01-05T12:02:28Z</time>
      </trkpt>
      <trkpt lat="42.93658" lon="-0.12528">
        <ele>2114.6881991293</ele>
        <time>2014-01-05T12:02:33Z</time>
      </trkpt>
      <trkpt lat="42.93657" lon="-0.12527">
        <ele>2114.6881991293</ele>
        <time>2014-01-05T12:02:38Z</time>
      </trkpt>
      <trkpt lat="42.93656" lon="-0.12525">
        <ele>2114.6881991293</ele>
        <time>2014-01-05T12:03:03Z</time>
      </trkpt>
      <trkpt lat="42.93656" lon="-0.12526">
        <ele>2114.6881991293</ele>
        <time>2014-01-05T12:03:08Z</time>
      </trkpt>
      <trkpt lat="42.93657" lon="-0.12523">
        <ele>2114.6881991293</ele>
        <time>2014-01-05T12:03:13Z</time>
      </trkpt>
      <trkpt lat="42.93657" lon="-0.12521">
        <ele>2114.6881991293</ele>
        <time>2014-01-05T12:03:18Z</time>
      </trkpt>
      <trkpt lat="42.93657" lon="-0.12519">
        <ele>2114.6881991293</ele>
        <time>2014-01-05T12:03:23Z</time>
      </trkpt>
      <trkpt lat="42.93654" lon="-0.12517">
        <ele>2119.4326447041</ele>
        <time>2014-01-05T12:03:43Z</time>
      </trkpt>
      <trkpt lat="42.93653" lon="-0.12515">
        <ele>2119.4326447041</ele>
        <time>2014-01-05T12:03:48Z</time>
      </trkpt>
      <trkpt lat="42.9365" lon="-0.12516">
        <ele>2119.4326447041</ele>
        <time>2014-01-05T12:03:58Z</time>
      </trkpt>
      <trkpt lat="42.9365" lon="-0.12517">
        <ele>2119.4326447041</ele>
        <time>2014-01-05T12:04:03Z</time>
      </trkpt>
      <trkpt lat="42.93648" lon="-0.12512">
        <ele>2119.4326447041</ele>
        <time>2014-01-05T12:04:28Z</time>
      </trkpt>
      <trkpt lat="42.93648" lon="-0.12512">
        <ele>2124.2573594281</ele>
        <time>2014-01-05T12:04:33Z</time>
      </trkpt>
      <trkpt lat="42.93641" lon="-0.12505">
        <ele>2124.2573594281</ele>
        <time>2014-01-05T12:05:58Z</time>
      </trkpt>
      <trkpt lat="42.9364" lon="-0.12502">
        <ele>2129.538864782</ele>
        <time>2014-01-05T12:06:03Z</time>
      </trkpt>
      <trkpt lat="42.9364" lon="-0.12501">
        <ele>2129.538864782</ele>
        <time>2014-01-05T12:06:08Z</time>
      </trkpt>
      <trkpt lat="42.9364" lon="-0.12501">
        <ele>2129.538864782</ele>
        <time>2014-01-05T12:06:13Z</time>
      </trkpt>
      <trkpt lat="42.9364" lon="-0.12497">
        <ele>2129.538864782</ele>
        <time>2014-01-05T12:06:43Z</time>
      </trkpt>
      <trkpt lat="42.9364" lon="-0.12496">
        <ele>2129.538864782</ele>
        <time>2014-01-05T12:06:48Z</time>
      </trkpt>
      <trkpt lat="42.9364" lon="-0.1249">
        <ele>2134.9043950859</ele>
        <time>2014-01-05T12:07:08Z</time>
      </trkpt>
      <trkpt lat="42.9364" lon="-0.1249">
        <ele>2134.9043950859</ele>
        <time>2014-01-05T12:07:13Z</time>
      </trkpt>
      <trkpt lat="42.93631" lon="-0.12484">
        <ele>2140.6426371608</ele>
        <time>2014-01-05T12:09:03Z</time>
      </trkpt>
      <trkpt lat="42.93627" lon="-0.12472">
        <ele>2146.7320270166</ele>
        <time>2014-01-05T12:11:03Z</time>
      </trkpt>
      <trkpt lat="42.93627" lon="-0.1247">
        <ele>2146.7320270166</ele>
        <time>2014-01-05T12:11:08Z</time>
      </trkpt>
      <trkpt lat="42.93627" lon="-0.12469">
        <ele>2146.7320270166</ele>
        <time>2014-01-05T12:11:13Z</time>
      </trkpt>
      <trkpt lat="42.93629" lon="-0.12463">
        <ele>2146.7320270166</ele>
        <time>2014-01-05T12:11:33Z</time>
      </trkpt>
      <trkpt lat="42.93629" lon="-0.12458">
        <ele>2152.4745090959</ele>
        <time>2014-01-05T12:11:38Z</time>
      </trkpt>
      <trkpt lat="42.93629" lon="-0.12457">
        <ele>2152.4745090959</ele>
        <time>2014-01-05T12:11:43Z</time>
      </trkpt>
      <trkpt lat="42.93628" lon="-0.12447">
        <ele>2152.4745090959</ele>
        <time>2014-01-05T12:12:28Z</time>
      </trkpt>
      <trkpt lat="42.93629" lon="-0.12447">
        <ele>2158.0027194645</ele>
        <time>2014-01-05T12:12:33Z</time>
      </trkpt>
      <trkpt lat="42.9363" lon="-0.12434">
        <ele>2163.2818749878</ele>
        <time>2014-01-05T12:13:13Z</time>
      </trkpt>
      <trkpt lat="42.93629" lon="-0.12431">
        <ele>2163.2818749878</ele>
        <time>2014-01-05T12:13:19Z</time>
      </trkpt>
      <trkpt lat="42.93628" lon="-0.12428">
        <ele>2163.2818749878</ele>
        <time>2014-01-05T12:13:23Z</time>
      </trkpt>
      <trkpt lat="42.93629" lon="-0.12428">
        <ele>2163.2818749878</ele>
        <time>2014-01-05T12:13:28Z</time>
      </trkpt>
      <trkpt lat="42.9363" lon="-0.12425">
        <ele>2163.2818749878</ele>
        <time>2014-01-05T12:13:38Z</time>
      </trkpt>
      <trkpt lat="42.93631" lon="-0.12425">
        <ele>2168.4248064105</ele>
        <time>2014-01-05T12:13:43Z</time>
      </trkpt>
    </trkseg>
  </trk>
</gpx>